<?xml version="1.0" encoding="UTF-8" standalone="no" ?>
<gpx xmlns="http://www.topografix.com/GPX/1/1" xmlns:xsi="http://www.w3.org/2001/XMLSchema-instance" xsi:schemaLocation="http://www.topografix.com/GPX/1/1 http://www.topografix.com/GPX/1/1/gpx.xsd" version="1.1" creator="VisuGPX - https://www.visugpx.com">
  <metadata>
    <name>Le Villaret-Dourbies</name>
    <desc><![CDATA[Départ u village Le Villaret au dessus de Trèbes. On monte en forêt par un sentier très agréable qui passe à proximité de plusieurs grottes et nous conduit à Comeiras. De là, on monte au col du Suquet, on redescend sur Dourbies. On longe un petit moment les Gorges de la Dourbie avant de remonter vers le Serre du Cade pour redescendre en forêt sur Le Villaret.]]></desc>
  </metadata>
  <trk>
    <name><![CDATA[2019-08-25 17:03:20]]></name>
    <trkseg>
      <trkpt lat="44.07801" lon="3.39337">
        <ele>625.47</ele>
        <time>2019-08-25T07:12:55Z</time>
      </trkpt>
      <trkpt lat="44.07802" lon="3.39336">
        <ele>625.47</ele>
        <time>2019-08-25T07:13:27Z</time>
      </trkpt>
      <trkpt lat="44.07802" lon="3.39335">
        <ele>625.47</ele>
        <time>2019-08-25T07:13:53Z</time>
      </trkpt>
      <trkpt lat="44.07804" lon="3.39338">
        <ele>625.96</ele>
        <time>2019-08-25T07:14:03Z</time>
      </trkpt>
      <trkpt lat="44.07807" lon="3.39342">
        <ele>631.24</ele>
        <time>2019-08-25T07:14:27Z</time>
      </trkpt>
      <trkpt lat="44.07806" lon="3.39344">
        <ele>632.68</ele>
        <time>2019-08-25T07:15:15Z</time>
      </trkpt>
      <trkpt lat="44.07801" lon="3.39339">
        <ele>629.8</ele>
        <time>2019-08-25T07:15:27Z</time>
      </trkpt>
      <trkpt lat="44.078" lon="3.39333">
        <ele>632.2</ele>
        <time>2019-08-25T07:15:43Z</time>
      </trkpt>
      <trkpt lat="44.07801" lon="3.39333">
        <ele>633.17</ele>
        <time>2019-08-25T07:15:56Z</time>
      </trkpt>
      <trkpt lat="44.07799" lon="3.39328">
        <ele>632.2</ele>
        <time>2019-08-25T07:16:21Z</time>
      </trkpt>
      <trkpt lat="44.07798" lon="3.3933">
        <ele>631.72</ele>
        <time>2019-08-25T07:16:35Z</time>
      </trkpt>
      <trkpt lat="44.07794" lon="3.39324">
        <ele>627.4</ele>
        <time>2019-08-25T07:16:48Z</time>
      </trkpt>
      <trkpt lat="44.07807" lon="3.39324">
        <ele>622.59</ele>
        <time>2019-08-25T07:17:03Z</time>
      </trkpt>
      <trkpt lat="44.0781" lon="3.39332">
        <ele>622.59</ele>
        <time>2019-08-25T07:17:12Z</time>
      </trkpt>
      <trkpt lat="44.0781" lon="3.39339">
        <ele>622.59</ele>
        <time>2019-08-25T07:17:18Z</time>
      </trkpt>
      <trkpt lat="44.07807" lon="3.39358">
        <ele>621.63</ele>
        <time>2019-08-25T07:17:31Z</time>
      </trkpt>
      <trkpt lat="44.07806" lon="3.3937">
        <ele>620.67</ele>
        <time>2019-08-25T07:17:39Z</time>
      </trkpt>
      <trkpt lat="44.07806" lon="3.39386">
        <ele>620.67</ele>
        <time>2019-08-25T07:17:53Z</time>
      </trkpt>
      <trkpt lat="44.07809" lon="3.39402">
        <ele>620.67</ele>
        <time>2019-08-25T07:18:05Z</time>
      </trkpt>
      <trkpt lat="44.07815" lon="3.39418">
        <ele>622.11</ele>
        <time>2019-08-25T07:18:18Z</time>
      </trkpt>
      <trkpt lat="44.07824" lon="3.39434">
        <ele>621.15</ele>
        <time>2019-08-25T07:18:33Z</time>
      </trkpt>
      <trkpt lat="44.0783" lon="3.39445">
        <ele>621.15</ele>
        <time>2019-08-25T07:18:44Z</time>
      </trkpt>
      <trkpt lat="44.07832" lon="3.39459">
        <ele>623.55</ele>
        <time>2019-08-25T07:18:56Z</time>
      </trkpt>
      <trkpt lat="44.07833" lon="3.3947">
        <ele>625.47</ele>
        <time>2019-08-25T07:19:08Z</time>
      </trkpt>
      <trkpt lat="44.07841" lon="3.39488">
        <ele>624.03</ele>
        <time>2019-08-25T07:19:22Z</time>
      </trkpt>
      <trkpt lat="44.07843" lon="3.39508">
        <ele>622.11</ele>
        <time>2019-08-25T07:19:37Z</time>
      </trkpt>
      <trkpt lat="44.07848" lon="3.39526">
        <ele>625.47</ele>
        <time>2019-08-25T07:19:52Z</time>
      </trkpt>
      <trkpt lat="44.07851" lon="3.39539">
        <ele>626.92</ele>
        <time>2019-08-25T07:20:07Z</time>
      </trkpt>
      <trkpt lat="44.07863" lon="3.39555">
        <ele>632.68</ele>
        <time>2019-08-25T07:20:21Z</time>
      </trkpt>
      <trkpt lat="44.07871" lon="3.39567">
        <ele>637.49</ele>
        <time>2019-08-25T07:20:33Z</time>
      </trkpt>
      <trkpt lat="44.07876" lon="3.39574">
        <ele>641.82</ele>
        <time>2019-08-25T07:20:45Z</time>
      </trkpt>
      <trkpt lat="44.07879" lon="3.39575">
        <ele>646.14</ele>
        <time>2019-08-25T07:20:54Z</time>
      </trkpt>
      <trkpt lat="44.07889" lon="3.39577">
        <ele>648.07</ele>
        <time>2019-08-25T07:21:07Z</time>
      </trkpt>
      <trkpt lat="44.07901" lon="3.39582">
        <ele>651.91</ele>
        <time>2019-08-25T07:21:23Z</time>
      </trkpt>
      <trkpt lat="44.07909" lon="3.39594">
        <ele>652.87</ele>
        <time>2019-08-25T07:21:37Z</time>
      </trkpt>
      <trkpt lat="44.07908" lon="3.39603">
        <ele>652.87</ele>
        <time>2019-08-25T07:21:47Z</time>
      </trkpt>
      <trkpt lat="44.07902" lon="3.39609">
        <ele>656.72</ele>
        <time>2019-08-25T07:22:01Z</time>
      </trkpt>
      <trkpt lat="44.07901" lon="3.39616">
        <ele>658.16</ele>
        <time>2019-08-25T07:22:14Z</time>
      </trkpt>
      <trkpt lat="44.07895" lon="3.39611">
        <ele>661.04</ele>
        <time>2019-08-25T07:22:26Z</time>
      </trkpt>
      <trkpt lat="44.07894" lon="3.39618">
        <ele>662.97</ele>
        <time>2019-08-25T07:22:37Z</time>
      </trkpt>
      <trkpt lat="44.07895" lon="3.39622">
        <ele>668.25</ele>
        <time>2019-08-25T07:22:52Z</time>
      </trkpt>
      <trkpt lat="44.0789" lon="3.39625">
        <ele>671.62</ele>
        <time>2019-08-25T07:23:03Z</time>
      </trkpt>
      <trkpt lat="44.07891" lon="3.39631">
        <ele>674.02</ele>
        <time>2019-08-25T07:23:19Z</time>
      </trkpt>
      <trkpt lat="44.07891" lon="3.39636">
        <ele>677.87</ele>
        <time>2019-08-25T07:23:31Z</time>
      </trkpt>
      <trkpt lat="44.07885" lon="3.39639">
        <ele>685.08</ele>
        <time>2019-08-25T07:23:45Z</time>
      </trkpt>
      <trkpt lat="44.07881" lon="3.39644">
        <ele>685.56</ele>
        <time>2019-08-25T07:23:57Z</time>
      </trkpt>
      <trkpt lat="44.07882" lon="3.3965">
        <ele>686.52</ele>
        <time>2019-08-25T07:24:16Z</time>
      </trkpt>
      <trkpt lat="44.07886" lon="3.39651">
        <ele>687</ele>
        <time>2019-08-25T07:24:40Z</time>
      </trkpt>
      <trkpt lat="44.0788" lon="3.39646">
        <ele>695.65</ele>
        <time>2019-08-25T07:25:03Z</time>
      </trkpt>
      <trkpt lat="44.07881" lon="3.39637">
        <ele>698.53</ele>
        <time>2019-08-25T07:25:27Z</time>
      </trkpt>
      <trkpt lat="44.0788" lon="3.39642">
        <ele>698.53</ele>
        <time>2019-08-25T07:25:45Z</time>
      </trkpt>
      <trkpt lat="44.07876" lon="3.39644">
        <ele>706.23</ele>
        <time>2019-08-25T07:26:14Z</time>
      </trkpt>
      <trkpt lat="44.07879" lon="3.39644">
        <ele>700.46</ele>
        <time>2019-08-25T07:26:32Z</time>
      </trkpt>
      <trkpt lat="44.07882" lon="3.39648">
        <ele>693.25</ele>
        <time>2019-08-25T07:26:49Z</time>
      </trkpt>
      <trkpt lat="44.07885" lon="3.39651">
        <ele>690.36</ele>
        <time>2019-08-25T07:27:16Z</time>
      </trkpt>
      <trkpt lat="44.0789" lon="3.39652">
        <ele>689.88</ele>
        <time>2019-08-25T07:27:28Z</time>
      </trkpt>
      <trkpt lat="44.07897" lon="3.39662">
        <ele>687.48</ele>
        <time>2019-08-25T07:27:42Z</time>
      </trkpt>
      <trkpt lat="44.079" lon="3.3967">
        <ele>688.44</ele>
        <time>2019-08-25T07:27:53Z</time>
      </trkpt>
      <trkpt lat="44.07907" lon="3.39681">
        <ele>689.88</ele>
        <time>2019-08-25T07:28:08Z</time>
      </trkpt>
      <trkpt lat="44.07913" lon="3.39695">
        <ele>691.81</ele>
        <time>2019-08-25T07:28:23Z</time>
      </trkpt>
      <trkpt lat="44.07917" lon="3.39709">
        <ele>694.69</ele>
        <time>2019-08-25T07:28:37Z</time>
      </trkpt>
      <trkpt lat="44.07908" lon="3.39703">
        <ele>697.09</ele>
        <time>2019-08-25T07:28:49Z</time>
      </trkpt>
      <trkpt lat="44.07899" lon="3.39703">
        <ele>699.98</ele>
        <time>2019-08-25T07:29:03Z</time>
      </trkpt>
      <trkpt lat="44.07894" lon="3.39694">
        <ele>703.82</ele>
        <time>2019-08-25T07:29:11Z</time>
      </trkpt>
      <trkpt lat="44.07891" lon="3.39692">
        <ele>703.82</ele>
        <time>2019-08-25T07:29:13Z</time>
      </trkpt>
      <trkpt lat="44.07888" lon="3.39688">
        <ele>703.82</ele>
        <time>2019-08-25T07:29:18Z</time>
      </trkpt>
      <trkpt lat="44.0788" lon="3.39695">
        <ele>702.38</ele>
        <time>2019-08-25T07:29:30Z</time>
      </trkpt>
      <trkpt lat="44.07883" lon="3.39703">
        <ele>702.86</ele>
        <time>2019-08-25T07:29:43Z</time>
      </trkpt>
      <trkpt lat="44.07883" lon="3.39706">
        <ele>702.86</ele>
        <time>2019-08-25T07:29:45Z</time>
      </trkpt>
      <trkpt lat="44.07875" lon="3.39704">
        <ele>706.23</ele>
        <time>2019-08-25T07:29:58Z</time>
      </trkpt>
      <trkpt lat="44.07868" lon="3.39705">
        <ele>707.19</ele>
        <time>2019-08-25T07:30:09Z</time>
      </trkpt>
      <trkpt lat="44.07875" lon="3.39712">
        <ele>709.11</ele>
        <time>2019-08-25T07:30:21Z</time>
      </trkpt>
      <trkpt lat="44.0788" lon="3.39722">
        <ele>711.51</ele>
        <time>2019-08-25T07:30:34Z</time>
      </trkpt>
      <trkpt lat="44.07886" lon="3.39733">
        <ele>715.84</ele>
        <time>2019-08-25T07:30:47Z</time>
      </trkpt>
      <trkpt lat="44.0788" lon="3.39729">
        <ele>719.2</ele>
        <time>2019-08-25T07:30:57Z</time>
      </trkpt>
      <trkpt lat="44.07871" lon="3.39729">
        <ele>721.13</ele>
        <time>2019-08-25T07:31:10Z</time>
      </trkpt>
      <trkpt lat="44.07871" lon="3.39735">
        <ele>720.65</ele>
        <time>2019-08-25T07:31:22Z</time>
      </trkpt>
      <trkpt lat="44.07877" lon="3.39748">
        <ele>722.09</ele>
        <time>2019-08-25T07:31:37Z</time>
      </trkpt>
      <trkpt lat="44.07886" lon="3.39756">
        <ele>725.93</ele>
        <time>2019-08-25T07:31:53Z</time>
      </trkpt>
      <trkpt lat="44.07883" lon="3.39762">
        <ele>729.78</ele>
        <time>2019-08-25T07:32:07Z</time>
      </trkpt>
      <trkpt lat="44.07876" lon="3.39758">
        <ele>734.1</ele>
        <time>2019-08-25T07:32:20Z</time>
      </trkpt>
      <trkpt lat="44.07881" lon="3.39773">
        <ele>736.99</ele>
        <time>2019-08-25T07:32:36Z</time>
      </trkpt>
      <trkpt lat="44.07886" lon="3.39783">
        <ele>738.43</ele>
        <time>2019-08-25T07:32:50Z</time>
      </trkpt>
      <trkpt lat="44.07892" lon="3.39798">
        <ele>739.39</ele>
        <time>2019-08-25T07:33:07Z</time>
      </trkpt>
      <trkpt lat="44.07895" lon="3.39808">
        <ele>744.2</ele>
        <time>2019-08-25T07:33:21Z</time>
      </trkpt>
      <trkpt lat="44.07897" lon="3.39819">
        <ele>750.45</ele>
        <time>2019-08-25T07:33:41Z</time>
      </trkpt>
      <trkpt lat="44.07896" lon="3.39833">
        <ele>754.77</ele>
        <time>2019-08-25T07:33:58Z</time>
      </trkpt>
      <trkpt lat="44.07896" lon="3.39838">
        <ele>755.73</ele>
        <time>2019-08-25T07:34:12Z</time>
      </trkpt>
      <trkpt lat="44.07888" lon="3.39826">
        <ele>756.69</ele>
        <time>2019-08-25T07:34:26Z</time>
      </trkpt>
      <trkpt lat="44.07885" lon="3.39832">
        <ele>760.54</ele>
        <time>2019-08-25T07:34:40Z</time>
      </trkpt>
      <trkpt lat="44.07894" lon="3.39847">
        <ele>763.42</ele>
        <time>2019-08-25T07:34:53Z</time>
      </trkpt>
      <trkpt lat="44.07899" lon="3.39862">
        <ele>766.31</ele>
        <time>2019-08-25T07:35:08Z</time>
      </trkpt>
      <trkpt lat="44.07899" lon="3.39869">
        <ele>768.71</ele>
        <time>2019-08-25T07:35:22Z</time>
      </trkpt>
      <trkpt lat="44.07905" lon="3.39887">
        <ele>771.11</ele>
        <time>2019-08-25T07:35:36Z</time>
      </trkpt>
      <trkpt lat="44.07906" lon="3.39902">
        <ele>770.15</ele>
        <time>2019-08-25T07:35:56Z</time>
      </trkpt>
      <trkpt lat="44.07911" lon="3.39917">
        <ele>770.63</ele>
        <time>2019-08-25T07:36:10Z</time>
      </trkpt>
      <trkpt lat="44.07906" lon="3.39916">
        <ele>769.67</ele>
        <time>2019-08-25T07:36:20Z</time>
      </trkpt>
      <trkpt lat="44.07901" lon="3.39912">
        <ele>769.67</ele>
        <time>2019-08-25T07:36:32Z</time>
      </trkpt>
      <trkpt lat="44.07896" lon="3.39907">
        <ele>773.52</ele>
        <time>2019-08-25T07:36:44Z</time>
      </trkpt>
      <trkpt lat="44.07897" lon="3.39918">
        <ele>780.25</ele>
        <time>2019-08-25T07:36:58Z</time>
      </trkpt>
      <trkpt lat="44.07903" lon="3.39934">
        <ele>783.61</ele>
        <time>2019-08-25T07:37:13Z</time>
      </trkpt>
      <trkpt lat="44.07905" lon="3.3994">
        <ele>781.21</ele>
        <time>2019-08-25T07:37:27Z</time>
      </trkpt>
      <trkpt lat="44.07898" lon="3.3994">
        <ele>777.36</ele>
        <time>2019-08-25T07:37:39Z</time>
      </trkpt>
      <trkpt lat="44.07891" lon="3.39938">
        <ele>775.44</ele>
        <time>2019-08-25T07:37:51Z</time>
      </trkpt>
      <trkpt lat="44.07883" lon="3.39934">
        <ele>777.84</ele>
        <time>2019-08-25T07:38:04Z</time>
      </trkpt>
      <trkpt lat="44.07879" lon="3.39937">
        <ele>785.53</ele>
        <time>2019-08-25T07:38:18Z</time>
      </trkpt>
      <trkpt lat="44.07874" lon="3.39937">
        <ele>786.02</ele>
        <time>2019-08-25T07:38:29Z</time>
      </trkpt>
      <trkpt lat="44.07888" lon="3.39958">
        <ele>792.26</ele>
        <time>2019-08-25T07:38:43Z</time>
      </trkpt>
      <trkpt lat="44.07901" lon="3.39974">
        <ele>798.51</ele>
        <time>2019-08-25T07:38:57Z</time>
      </trkpt>
      <trkpt lat="44.07902" lon="3.39985">
        <ele>798.99</ele>
        <time>2019-08-25T07:39:12Z</time>
      </trkpt>
      <trkpt lat="44.07904" lon="3.3999">
        <ele>799.47</ele>
        <time>2019-08-25T07:39:25Z</time>
      </trkpt>
      <trkpt lat="44.07904" lon="3.39998">
        <ele>799.47</ele>
        <time>2019-08-25T07:39:38Z</time>
      </trkpt>
      <trkpt lat="44.07914" lon="3.40009">
        <ele>799.47</ele>
        <time>2019-08-25T07:39:51Z</time>
      </trkpt>
      <trkpt lat="44.07923" lon="3.40019">
        <ele>799.47</ele>
        <time>2019-08-25T07:40:03Z</time>
      </trkpt>
      <trkpt lat="44.0794" lon="3.40037">
        <ele>799.47</ele>
        <time>2019-08-25T07:40:17Z</time>
      </trkpt>
      <trkpt lat="44.07953" lon="3.40043">
        <ele>801.4</ele>
        <time>2019-08-25T07:40:30Z</time>
      </trkpt>
      <trkpt lat="44.07951" lon="3.40047">
        <ele>802.84</ele>
        <time>2019-08-25T07:40:42Z</time>
      </trkpt>
      <trkpt lat="44.07945" lon="3.40053">
        <ele>803.8</ele>
        <time>2019-08-25T07:40:55Z</time>
      </trkpt>
      <trkpt lat="44.07942" lon="3.40058">
        <ele>804.76</ele>
        <time>2019-08-25T07:41:08Z</time>
      </trkpt>
      <trkpt lat="44.07939" lon="3.40061">
        <ele>804.76</ele>
        <time>2019-08-25T07:41:18Z</time>
      </trkpt>
      <trkpt lat="44.07938" lon="3.40069">
        <ele>807.16</ele>
        <time>2019-08-25T07:41:34Z</time>
      </trkpt>
      <trkpt lat="44.07943" lon="3.40073">
        <ele>812.45</ele>
        <time>2019-08-25T07:41:49Z</time>
      </trkpt>
      <trkpt lat="44.07945" lon="3.40068">
        <ele>817.74</ele>
        <time>2019-08-25T07:41:59Z</time>
      </trkpt>
      <trkpt lat="44.07946" lon="3.40068">
        <ele>818.22</ele>
        <time>2019-08-25T07:42:00Z</time>
      </trkpt>
      <trkpt lat="44.07948" lon="3.40074">
        <ele>820.14</ele>
        <time>2019-08-25T07:42:13Z</time>
      </trkpt>
      <trkpt lat="44.0795" lon="3.40082">
        <ele>821.58</ele>
        <time>2019-08-25T07:42:30Z</time>
      </trkpt>
      <trkpt lat="44.07944" lon="3.40085">
        <ele>823.99</ele>
        <time>2019-08-25T07:42:40Z</time>
      </trkpt>
      <trkpt lat="44.0794" lon="3.40085">
        <ele>830.72</ele>
        <time>2019-08-25T07:42:55Z</time>
      </trkpt>
      <trkpt lat="44.07942" lon="3.40078">
        <ele>845.14</ele>
        <time>2019-08-25T07:43:12Z</time>
      </trkpt>
      <trkpt lat="44.07944" lon="3.40076">
        <ele>848.02</ele>
        <time>2019-08-25T07:43:22Z</time>
      </trkpt>
      <trkpt lat="44.07948" lon="3.40075">
        <ele>847.54</ele>
        <time>2019-08-25T07:43:32Z</time>
      </trkpt>
      <trkpt lat="44.07955" lon="3.40071">
        <ele>849.46</ele>
        <time>2019-08-25T07:43:44Z</time>
      </trkpt>
      <trkpt lat="44.07962" lon="3.40066">
        <ele>847.54</ele>
        <time>2019-08-25T07:43:57Z</time>
      </trkpt>
      <trkpt lat="44.07968" lon="3.40059">
        <ele>847.54</ele>
        <time>2019-08-25T07:44:08Z</time>
      </trkpt>
      <trkpt lat="44.07974" lon="3.40058">
        <ele>848.02</ele>
        <time>2019-08-25T07:44:14Z</time>
      </trkpt>
      <trkpt lat="44.07975" lon="3.40056">
        <ele>848.02</ele>
        <time>2019-08-25T07:44:16Z</time>
      </trkpt>
      <trkpt lat="44.07982" lon="3.4005">
        <ele>850.42</ele>
        <time>2019-08-25T07:44:30Z</time>
      </trkpt>
      <trkpt lat="44.07998" lon="3.40051">
        <ele>853.79</ele>
        <time>2019-08-25T07:44:44Z</time>
      </trkpt>
      <trkpt lat="44.08008" lon="3.40051">
        <ele>853.31</ele>
        <time>2019-08-25T07:44:56Z</time>
      </trkpt>
      <trkpt lat="44.08024" lon="3.40051">
        <ele>854.27</ele>
        <time>2019-08-25T07:45:09Z</time>
      </trkpt>
      <trkpt lat="44.08031" lon="3.40056">
        <ele>851.38</ele>
        <time>2019-08-25T07:45:22Z</time>
      </trkpt>
      <trkpt lat="44.08046" lon="3.40065">
        <ele>847.54</ele>
        <time>2019-08-25T07:45:37Z</time>
      </trkpt>
      <trkpt lat="44.08063" lon="3.40076">
        <ele>844.18</ele>
        <time>2019-08-25T07:45:51Z</time>
      </trkpt>
      <trkpt lat="44.08069" lon="3.40089">
        <ele>842.73</ele>
        <time>2019-08-25T07:46:04Z</time>
      </trkpt>
      <trkpt lat="44.08078" lon="3.40097">
        <ele>841.77</ele>
        <time>2019-08-25T07:46:13Z</time>
      </trkpt>
      <trkpt lat="44.08084" lon="3.40109">
        <ele>842.25</ele>
        <time>2019-08-25T07:46:24Z</time>
      </trkpt>
      <trkpt lat="44.08089" lon="3.40116">
        <ele>836.96</ele>
        <time>2019-08-25T07:46:36Z</time>
      </trkpt>
      <trkpt lat="44.08094" lon="3.40121">
        <ele>830.72</ele>
        <time>2019-08-25T07:46:47Z</time>
      </trkpt>
      <trkpt lat="44.08098" lon="3.40128">
        <ele>826.39</ele>
        <time>2019-08-25T07:46:57Z</time>
      </trkpt>
      <trkpt lat="44.08104" lon="3.40138">
        <ele>822.55</ele>
        <time>2019-08-25T07:47:11Z</time>
      </trkpt>
      <trkpt lat="44.08119" lon="3.40152">
        <ele>821.58</ele>
        <time>2019-08-25T07:47:24Z</time>
      </trkpt>
      <trkpt lat="44.08125" lon="3.40162">
        <ele>817.26</ele>
        <time>2019-08-25T07:47:36Z</time>
      </trkpt>
      <trkpt lat="44.08146" lon="3.40169">
        <ele>827.83</ele>
        <time>2019-08-25T07:47:48Z</time>
      </trkpt>
      <trkpt lat="44.08158" lon="3.40165">
        <ele>826.87</ele>
        <time>2019-08-25T07:48:02Z</time>
      </trkpt>
      <trkpt lat="44.08159" lon="3.40158">
        <ele>822.06</ele>
        <time>2019-08-25T07:48:12Z</time>
      </trkpt>
      <trkpt lat="44.08163" lon="3.40147">
        <ele>819.18</ele>
        <time>2019-08-25T07:48:24Z</time>
      </trkpt>
      <trkpt lat="44.08164" lon="3.4014">
        <ele>816.3</ele>
        <time>2019-08-25T07:48:37Z</time>
      </trkpt>
      <trkpt lat="44.08162" lon="3.40126">
        <ele>811.01</ele>
        <time>2019-08-25T07:48:48Z</time>
      </trkpt>
      <trkpt lat="44.08164" lon="3.40118">
        <ele>807.64</ele>
        <time>2019-08-25T07:49:00Z</time>
      </trkpt>
      <trkpt lat="44.08162" lon="3.40098">
        <ele>813.89</ele>
        <time>2019-08-25T07:49:12Z</time>
      </trkpt>
      <trkpt lat="44.0816" lon="3.40084">
        <ele>816.78</ele>
        <time>2019-08-25T07:49:25Z</time>
      </trkpt>
      <trkpt lat="44.08162" lon="3.4008">
        <ele>817.74</ele>
        <time>2019-08-25T07:49:39Z</time>
      </trkpt>
      <trkpt lat="44.0816" lon="3.40078">
        <ele>817.26</ele>
        <time>2019-08-25T07:49:57Z</time>
      </trkpt>
      <trkpt lat="44.08161" lon="3.40079">
        <ele>816.78</ele>
        <time>2019-08-25T07:50:24Z</time>
      </trkpt>
      <trkpt lat="44.08168" lon="3.4008">
        <ele>815.82</ele>
        <time>2019-08-25T07:50:46Z</time>
      </trkpt>
      <trkpt lat="44.08171" lon="3.40102">
        <ele>816.78</ele>
        <time>2019-08-25T07:51:00Z</time>
      </trkpt>
      <trkpt lat="44.08178" lon="3.40107">
        <ele>811.97</ele>
        <time>2019-08-25T07:51:21Z</time>
      </trkpt>
      <trkpt lat="44.08183" lon="3.40113">
        <ele>811.49</ele>
        <time>2019-08-25T07:51:33Z</time>
      </trkpt>
      <trkpt lat="44.08188" lon="3.40114">
        <ele>809.09</ele>
        <time>2019-08-25T07:51:46Z</time>
      </trkpt>
      <trkpt lat="44.08193" lon="3.40115">
        <ele>808.13</ele>
        <time>2019-08-25T07:51:59Z</time>
      </trkpt>
      <trkpt lat="44.08189" lon="3.40102">
        <ele>805.24</ele>
        <time>2019-08-25T07:52:14Z</time>
      </trkpt>
      <trkpt lat="44.08187" lon="3.40097">
        <ele>805.72</ele>
        <time>2019-08-25T07:52:25Z</time>
      </trkpt>
      <trkpt lat="44.08185" lon="3.4011">
        <ele>802.84</ele>
        <time>2019-08-25T07:52:38Z</time>
      </trkpt>
      <trkpt lat="44.08183" lon="3.40119">
        <ele>802.36</ele>
        <time>2019-08-25T07:52:54Z</time>
      </trkpt>
      <trkpt lat="44.082" lon="3.40111">
        <ele>810.53</ele>
        <time>2019-08-25T07:53:13Z</time>
      </trkpt>
      <trkpt lat="44.08205" lon="3.40104">
        <ele>810.53</ele>
        <time>2019-08-25T07:53:27Z</time>
      </trkpt>
      <trkpt lat="44.0821" lon="3.40104">
        <ele>814.37</ele>
        <time>2019-08-25T07:53:39Z</time>
      </trkpt>
      <trkpt lat="44.08213" lon="3.40099">
        <ele>816.3</ele>
        <time>2019-08-25T07:53:53Z</time>
      </trkpt>
      <trkpt lat="44.08211" lon="3.40086">
        <ele>820.62</ele>
        <time>2019-08-25T07:54:07Z</time>
      </trkpt>
      <trkpt lat="44.08211" lon="3.40076">
        <ele>823.03</ele>
        <time>2019-08-25T07:54:21Z</time>
      </trkpt>
      <trkpt lat="44.08216" lon="3.40066">
        <ele>823.51</ele>
        <time>2019-08-25T07:54:32Z</time>
      </trkpt>
      <trkpt lat="44.08222" lon="3.40054">
        <ele>825.43</ele>
        <time>2019-08-25T07:54:45Z</time>
      </trkpt>
      <trkpt lat="44.08232" lon="3.40047">
        <ele>829.27</ele>
        <time>2019-08-25T07:54:59Z</time>
      </trkpt>
      <trkpt lat="44.08244" lon="3.40044">
        <ele>831.68</ele>
        <time>2019-08-25T07:55:14Z</time>
      </trkpt>
      <trkpt lat="44.08249" lon="3.40042">
        <ele>832.16</ele>
        <time>2019-08-25T07:55:26Z</time>
      </trkpt>
      <trkpt lat="44.08254" lon="3.40043">
        <ele>834.08</ele>
        <time>2019-08-25T07:55:35Z</time>
      </trkpt>
      <trkpt lat="44.08253" lon="3.40053">
        <ele>836.48</ele>
        <time>2019-08-25T07:55:47Z</time>
      </trkpt>
      <trkpt lat="44.08253" lon="3.40073">
        <ele>836.48</ele>
        <time>2019-08-25T07:56:01Z</time>
      </trkpt>
      <trkpt lat="44.08256" lon="3.40076">
        <ele>837.45</ele>
        <time>2019-08-25T07:56:12Z</time>
      </trkpt>
      <trkpt lat="44.08263" lon="3.40065">
        <ele>837.93</ele>
        <time>2019-08-25T07:56:25Z</time>
      </trkpt>
      <trkpt lat="44.08265" lon="3.40054">
        <ele>840.81</ele>
        <time>2019-08-25T07:56:34Z</time>
      </trkpt>
      <trkpt lat="44.08275" lon="3.40044">
        <ele>845.62</ele>
        <time>2019-08-25T07:56:46Z</time>
      </trkpt>
      <trkpt lat="44.08285" lon="3.40035">
        <ele>849.46</ele>
        <time>2019-08-25T07:57:00Z</time>
      </trkpt>
      <trkpt lat="44.08298" lon="3.40027">
        <ele>852.83</ele>
        <time>2019-08-25T07:57:16Z</time>
      </trkpt>
      <trkpt lat="44.08308" lon="3.40021">
        <ele>852.83</ele>
        <time>2019-08-25T07:57:29Z</time>
      </trkpt>
      <trkpt lat="44.08321" lon="3.4002">
        <ele>854.75</ele>
        <time>2019-08-25T07:57:43Z</time>
      </trkpt>
      <trkpt lat="44.08331" lon="3.40016">
        <ele>858.59</ele>
        <time>2019-08-25T07:57:55Z</time>
      </trkpt>
      <trkpt lat="44.08336" lon="3.40011">
        <ele>859.56</ele>
        <time>2019-08-25T07:58:05Z</time>
      </trkpt>
      <trkpt lat="44.08339" lon="3.40012">
        <ele>858.59</ele>
        <time>2019-08-25T07:58:18Z</time>
      </trkpt>
      <trkpt lat="44.08328" lon="3.40025">
        <ele>862.92</ele>
        <time>2019-08-25T07:58:32Z</time>
      </trkpt>
      <trkpt lat="44.08317" lon="3.40036">
        <ele>864.84</ele>
        <time>2019-08-25T07:58:45Z</time>
      </trkpt>
      <trkpt lat="44.08311" lon="3.40047">
        <ele>864.36</ele>
        <time>2019-08-25T07:58:56Z</time>
      </trkpt>
      <trkpt lat="44.0832" lon="3.40044">
        <ele>866.29</ele>
        <time>2019-08-25T07:59:06Z</time>
      </trkpt>
      <trkpt lat="44.08343" lon="3.40045">
        <ele>870.61</ele>
        <time>2019-08-25T07:59:21Z</time>
      </trkpt>
      <trkpt lat="44.08347" lon="3.40048">
        <ele>869.65</ele>
        <time>2019-08-25T07:59:34Z</time>
      </trkpt>
      <trkpt lat="44.08356" lon="3.40058">
        <ele>871.57</ele>
        <time>2019-08-25T07:59:49Z</time>
      </trkpt>
      <trkpt lat="44.0836" lon="3.40064">
        <ele>874.46</ele>
        <time>2019-08-25T08:00:01Z</time>
      </trkpt>
      <trkpt lat="44.08362" lon="3.40071">
        <ele>875.42</ele>
        <time>2019-08-25T08:00:15Z</time>
      </trkpt>
      <trkpt lat="44.08363" lon="3.40074">
        <ele>877.82</ele>
        <time>2019-08-25T08:00:41Z</time>
      </trkpt>
      <trkpt lat="44.08366" lon="3.40083">
        <ele>878.78</ele>
        <time>2019-08-25T08:01:02Z</time>
      </trkpt>
      <trkpt lat="44.08365" lon="3.40085">
        <ele>878.3</ele>
        <time>2019-08-25T08:01:04Z</time>
      </trkpt>
      <trkpt lat="44.08358" lon="3.40103">
        <ele>878.3</ele>
        <time>2019-08-25T08:01:18Z</time>
      </trkpt>
      <trkpt lat="44.08361" lon="3.40104">
        <ele>878.3</ele>
        <time>2019-08-25T08:01:21Z</time>
      </trkpt>
      <trkpt lat="44.08361" lon="3.40108">
        <ele>878.3</ele>
        <time>2019-08-25T08:01:24Z</time>
      </trkpt>
      <trkpt lat="44.08361" lon="3.40122">
        <ele>878.78</ele>
        <time>2019-08-25T08:01:38Z</time>
      </trkpt>
      <trkpt lat="44.08367" lon="3.40134">
        <ele>879.74</ele>
        <time>2019-08-25T08:01:49Z</time>
      </trkpt>
      <trkpt lat="44.08374" lon="3.40141">
        <ele>879.74</ele>
        <time>2019-08-25T08:02:00Z</time>
      </trkpt>
      <trkpt lat="44.08387" lon="3.4013">
        <ele>878.3</ele>
        <time>2019-08-25T08:02:14Z</time>
      </trkpt>
      <trkpt lat="44.08387" lon="3.40129">
        <ele>877.82</ele>
        <time>2019-08-25T08:02:15Z</time>
      </trkpt>
      <trkpt lat="44.0839" lon="3.40119">
        <ele>877.34</ele>
        <time>2019-08-25T08:02:20Z</time>
      </trkpt>
      <trkpt lat="44.08393" lon="3.40113">
        <ele>877.34</ele>
        <time>2019-08-25T08:02:25Z</time>
      </trkpt>
      <trkpt lat="44.08397" lon="3.401">
        <ele>876.86</ele>
        <time>2019-08-25T08:02:37Z</time>
      </trkpt>
      <trkpt lat="44.08402" lon="3.40085">
        <ele>875.42</ele>
        <time>2019-08-25T08:02:49Z</time>
      </trkpt>
      <trkpt lat="44.08404" lon="3.40075">
        <ele>875.42</ele>
        <time>2019-08-25T08:02:55Z</time>
      </trkpt>
      <trkpt lat="44.08406" lon="3.40072">
        <ele>874.94</ele>
        <time>2019-08-25T08:02:57Z</time>
      </trkpt>
      <trkpt lat="44.08408" lon="3.40063">
        <ele>874.94</ele>
        <time>2019-08-25T08:03:02Z</time>
      </trkpt>
      <trkpt lat="44.08411" lon="3.40059">
        <ele>874.46</ele>
        <time>2019-08-25T08:03:05Z</time>
      </trkpt>
      <trkpt lat="44.08416" lon="3.40055">
        <ele>874.94</ele>
        <time>2019-08-25T08:03:09Z</time>
      </trkpt>
      <trkpt lat="44.08428" lon="3.40042">
        <ele>877.82</ele>
        <time>2019-08-25T08:03:23Z</time>
      </trkpt>
      <trkpt lat="44.08441" lon="3.40036">
        <ele>877.82</ele>
        <time>2019-08-25T08:03:34Z</time>
      </trkpt>
      <trkpt lat="44.08457" lon="3.40043">
        <ele>873.98</ele>
        <time>2019-08-25T08:03:50Z</time>
      </trkpt>
      <trkpt lat="44.08463" lon="3.40049">
        <ele>872.05</ele>
        <time>2019-08-25T08:03:55Z</time>
      </trkpt>
      <trkpt lat="44.0847" lon="3.40062">
        <ele>869.65</ele>
        <time>2019-08-25T08:04:05Z</time>
      </trkpt>
      <trkpt lat="44.08474" lon="3.4008">
        <ele>865.32</ele>
        <time>2019-08-25T08:04:18Z</time>
      </trkpt>
      <trkpt lat="44.0848" lon="3.40096">
        <ele>860.04</ele>
        <time>2019-08-25T08:04:31Z</time>
      </trkpt>
      <trkpt lat="44.08487" lon="3.40112">
        <ele>855.23</ele>
        <time>2019-08-25T08:04:42Z</time>
      </trkpt>
      <trkpt lat="44.08492" lon="3.40126">
        <ele>851.38</ele>
        <time>2019-08-25T08:04:53Z</time>
      </trkpt>
      <trkpt lat="44.08497" lon="3.40136">
        <ele>844.66</ele>
        <time>2019-08-25T08:05:03Z</time>
      </trkpt>
      <trkpt lat="44.08501" lon="3.40151">
        <ele>835.52</ele>
        <time>2019-08-25T08:05:17Z</time>
      </trkpt>
      <trkpt lat="44.08512" lon="3.40167">
        <ele>832.64</ele>
        <time>2019-08-25T08:05:31Z</time>
      </trkpt>
      <trkpt lat="44.0852" lon="3.40181">
        <ele>835.52</ele>
        <time>2019-08-25T08:05:40Z</time>
      </trkpt>
      <trkpt lat="44.08526" lon="3.40191">
        <ele>837.45</ele>
        <time>2019-08-25T08:05:52Z</time>
      </trkpt>
      <trkpt lat="44.08535" lon="3.40202">
        <ele>835.52</ele>
        <time>2019-08-25T08:06:05Z</time>
      </trkpt>
      <trkpt lat="44.08542" lon="3.40227">
        <ele>839.85</ele>
        <time>2019-08-25T08:06:18Z</time>
      </trkpt>
      <trkpt lat="44.08544" lon="3.40231">
        <ele>840.81</ele>
        <time>2019-08-25T08:06:20Z</time>
      </trkpt>
      <trkpt lat="44.08557" lon="3.40252">
        <ele>846.1</ele>
        <time>2019-08-25T08:06:33Z</time>
      </trkpt>
      <trkpt lat="44.08567" lon="3.40265">
        <ele>848.02</ele>
        <time>2019-08-25T08:06:44Z</time>
      </trkpt>
      <trkpt lat="44.08577" lon="3.40274">
        <ele>848.5</ele>
        <time>2019-08-25T08:06:55Z</time>
      </trkpt>
      <trkpt lat="44.08583" lon="3.40288">
        <ele>848.5</ele>
        <time>2019-08-25T08:07:07Z</time>
      </trkpt>
      <trkpt lat="44.08589" lon="3.40308">
        <ele>848.02</ele>
        <time>2019-08-25T08:07:21Z</time>
      </trkpt>
      <trkpt lat="44.08596" lon="3.40308">
        <ele>848.02</ele>
        <time>2019-08-25T08:07:31Z</time>
      </trkpt>
      <trkpt lat="44.08601" lon="3.40299">
        <ele>847.54</ele>
        <time>2019-08-25T08:07:39Z</time>
      </trkpt>
      <trkpt lat="44.08605" lon="3.40283">
        <ele>846.58</ele>
        <time>2019-08-25T08:07:52Z</time>
      </trkpt>
      <trkpt lat="44.0861" lon="3.40263">
        <ele>845.14</ele>
        <time>2019-08-25T08:08:05Z</time>
      </trkpt>
      <trkpt lat="44.08615" lon="3.40248">
        <ele>844.18</ele>
        <time>2019-08-25T08:08:17Z</time>
      </trkpt>
      <trkpt lat="44.08616" lon="3.40246">
        <ele>844.18</ele>
        <time>2019-08-25T08:08:18Z</time>
      </trkpt>
      <trkpt lat="44.08621" lon="3.40241">
        <ele>843.69</ele>
        <time>2019-08-25T08:08:22Z</time>
      </trkpt>
      <trkpt lat="44.08629" lon="3.40223">
        <ele>843.21</ele>
        <time>2019-08-25T08:08:34Z</time>
      </trkpt>
      <trkpt lat="44.0864" lon="3.40199">
        <ele>845.14</ele>
        <time>2019-08-25T08:08:48Z</time>
      </trkpt>
      <trkpt lat="44.08648" lon="3.40182">
        <ele>845.62</ele>
        <time>2019-08-25T08:09:00Z</time>
      </trkpt>
      <trkpt lat="44.08654" lon="3.40167">
        <ele>846.58</ele>
        <time>2019-08-25T08:09:10Z</time>
      </trkpt>
      <trkpt lat="44.0866" lon="3.40155">
        <ele>847.06</ele>
        <time>2019-08-25T08:09:21Z</time>
      </trkpt>
      <trkpt lat="44.08666" lon="3.40144">
        <ele>846.58</ele>
        <time>2019-08-25T08:09:32Z</time>
      </trkpt>
      <trkpt lat="44.08678" lon="3.40134">
        <ele>844.66</ele>
        <time>2019-08-25T08:09:44Z</time>
      </trkpt>
      <trkpt lat="44.08692" lon="3.40142">
        <ele>836.48</ele>
        <time>2019-08-25T08:09:55Z</time>
      </trkpt>
      <trkpt lat="44.08703" lon="3.40163">
        <ele>825.43</ele>
        <time>2019-08-25T08:10:09Z</time>
      </trkpt>
      <trkpt lat="44.08703" lon="3.40177">
        <ele>823.03</ele>
        <time>2019-08-25T08:10:19Z</time>
      </trkpt>
      <trkpt lat="44.08706" lon="3.40194">
        <ele>823.03</ele>
        <time>2019-08-25T08:10:31Z</time>
      </trkpt>
      <trkpt lat="44.0871" lon="3.40208">
        <ele>823.03</ele>
        <time>2019-08-25T08:10:42Z</time>
      </trkpt>
      <trkpt lat="44.08716" lon="3.40231">
        <ele>823.51</ele>
        <time>2019-08-25T08:10:55Z</time>
      </trkpt>
      <trkpt lat="44.08718" lon="3.4025">
        <ele>823.99</ele>
        <time>2019-08-25T08:11:07Z</time>
      </trkpt>
      <trkpt lat="44.0872" lon="3.40272">
        <ele>823.03</ele>
        <time>2019-08-25T08:11:20Z</time>
      </trkpt>
      <trkpt lat="44.08728" lon="3.40292">
        <ele>821.58</ele>
        <time>2019-08-25T08:11:35Z</time>
      </trkpt>
      <trkpt lat="44.08741" lon="3.40315">
        <ele>821.58</ele>
        <time>2019-08-25T08:11:48Z</time>
      </trkpt>
      <trkpt lat="44.08748" lon="3.4033">
        <ele>821.58</ele>
        <time>2019-08-25T08:12:01Z</time>
      </trkpt>
      <trkpt lat="44.08754" lon="3.40348">
        <ele>821.1</ele>
        <time>2019-08-25T08:12:14Z</time>
      </trkpt>
      <trkpt lat="44.08761" lon="3.40362">
        <ele>820.62</ele>
        <time>2019-08-25T08:12:26Z</time>
      </trkpt>
      <trkpt lat="44.08762" lon="3.4038">
        <ele>819.66</ele>
        <time>2019-08-25T08:12:38Z</time>
      </trkpt>
      <trkpt lat="44.08767" lon="3.40397">
        <ele>818.7</ele>
        <time>2019-08-25T08:12:49Z</time>
      </trkpt>
      <trkpt lat="44.08765" lon="3.40419">
        <ele>817.74</ele>
        <time>2019-08-25T08:13:01Z</time>
      </trkpt>
      <trkpt lat="44.08768" lon="3.40437">
        <ele>816.78</ele>
        <time>2019-08-25T08:13:12Z</time>
      </trkpt>
      <trkpt lat="44.08775" lon="3.40456">
        <ele>814.37</ele>
        <time>2019-08-25T08:13:25Z</time>
      </trkpt>
      <trkpt lat="44.08776" lon="3.40463">
        <ele>812.93</ele>
        <time>2019-08-25T08:13:30Z</time>
      </trkpt>
      <trkpt lat="44.08783" lon="3.40485">
        <ele>811.01</ele>
        <time>2019-08-25T08:13:42Z</time>
      </trkpt>
      <trkpt lat="44.08791" lon="3.40503">
        <ele>807.16</ele>
        <time>2019-08-25T08:13:54Z</time>
      </trkpt>
      <trkpt lat="44.08797" lon="3.40519">
        <ele>803.32</ele>
        <time>2019-08-25T08:14:06Z</time>
      </trkpt>
      <trkpt lat="44.08807" lon="3.40533">
        <ele>799.47</ele>
        <time>2019-08-25T08:14:17Z</time>
      </trkpt>
      <trkpt lat="44.08819" lon="3.40546">
        <ele>796.59</ele>
        <time>2019-08-25T08:14:29Z</time>
      </trkpt>
      <trkpt lat="44.08829" lon="3.4056">
        <ele>791.78</ele>
        <time>2019-08-25T08:14:40Z</time>
      </trkpt>
      <trkpt lat="44.08832" lon="3.40575">
        <ele>788.42</ele>
        <time>2019-08-25T08:14:52Z</time>
      </trkpt>
      <trkpt lat="44.08842" lon="3.40589">
        <ele>783.61</ele>
        <time>2019-08-25T08:15:03Z</time>
      </trkpt>
      <trkpt lat="44.08853" lon="3.40605">
        <ele>777.84</ele>
        <time>2019-08-25T08:15:14Z</time>
      </trkpt>
      <trkpt lat="44.08867" lon="3.4062">
        <ele>773.52</ele>
        <time>2019-08-25T08:15:28Z</time>
      </trkpt>
      <trkpt lat="44.08877" lon="3.40636">
        <ele>768.71</ele>
        <time>2019-08-25T08:15:41Z</time>
      </trkpt>
      <trkpt lat="44.08885" lon="3.40648">
        <ele>764.39</ele>
        <time>2019-08-25T08:15:52Z</time>
      </trkpt>
      <trkpt lat="44.08892" lon="3.40659">
        <ele>760.06</ele>
        <time>2019-08-25T08:16:01Z</time>
      </trkpt>
      <trkpt lat="44.08894" lon="3.40661">
        <ele>759.1</ele>
        <time>2019-08-25T08:16:03Z</time>
      </trkpt>
      <trkpt lat="44.08907" lon="3.4067">
        <ele>753.81</ele>
        <time>2019-08-25T08:16:16Z</time>
      </trkpt>
      <trkpt lat="44.08915" lon="3.40687">
        <ele>745.64</ele>
        <time>2019-08-25T08:16:28Z</time>
      </trkpt>
      <trkpt lat="44.08925" lon="3.40702">
        <ele>736.51</ele>
        <time>2019-08-25T08:16:40Z</time>
      </trkpt>
      <trkpt lat="44.08926" lon="3.40717">
        <ele>730.74</ele>
        <time>2019-08-25T08:16:49Z</time>
      </trkpt>
      <trkpt lat="44.08928" lon="3.4074">
        <ele>724.49</ele>
        <time>2019-08-25T08:17:00Z</time>
      </trkpt>
      <trkpt lat="44.08933" lon="3.40753">
        <ele>716.8</ele>
        <time>2019-08-25T08:17:10Z</time>
      </trkpt>
      <trkpt lat="44.08935" lon="3.4077">
        <ele>708.15</ele>
        <time>2019-08-25T08:17:21Z</time>
      </trkpt>
      <trkpt lat="44.08935" lon="3.40788">
        <ele>697.57</ele>
        <time>2019-08-25T08:17:32Z</time>
      </trkpt>
      <trkpt lat="44.08932" lon="3.40809">
        <ele>687.48</ele>
        <time>2019-08-25T08:17:45Z</time>
      </trkpt>
      <trkpt lat="44.08931" lon="3.40828">
        <ele>680.27</ele>
        <time>2019-08-25T08:17:56Z</time>
      </trkpt>
      <trkpt lat="44.08929" lon="3.40847">
        <ele>675.94</ele>
        <time>2019-08-25T08:18:07Z</time>
      </trkpt>
      <trkpt lat="44.08925" lon="3.40859">
        <ele>671.62</ele>
        <time>2019-08-25T08:18:15Z</time>
      </trkpt>
      <trkpt lat="44.08926" lon="3.40882">
        <ele>667.29</ele>
        <time>2019-08-25T08:18:26Z</time>
      </trkpt>
      <trkpt lat="44.08925" lon="3.40896">
        <ele>662.49</ele>
        <time>2019-08-25T08:18:35Z</time>
      </trkpt>
      <trkpt lat="44.08923" lon="3.40919">
        <ele>658.64</ele>
        <time>2019-08-25T08:18:48Z</time>
      </trkpt>
      <trkpt lat="44.08923" lon="3.40938">
        <ele>664.41</ele>
        <time>2019-08-25T08:19:00Z</time>
      </trkpt>
      <trkpt lat="44.08923" lon="3.40954">
        <ele>661.52</ele>
        <time>2019-08-25T08:19:13Z</time>
      </trkpt>
      <trkpt lat="44.08922" lon="3.40975">
        <ele>655.76</ele>
        <time>2019-08-25T08:19:26Z</time>
      </trkpt>
      <trkpt lat="44.08917" lon="3.41">
        <ele>649.03</ele>
        <time>2019-08-25T08:19:38Z</time>
      </trkpt>
      <trkpt lat="44.08905" lon="3.41023">
        <ele>653.35</ele>
        <time>2019-08-25T08:19:52Z</time>
      </trkpt>
      <trkpt lat="44.08906" lon="3.41042">
        <ele>660.08</ele>
        <time>2019-08-25T08:20:04Z</time>
      </trkpt>
      <trkpt lat="44.08905" lon="3.41062">
        <ele>663.45</ele>
        <time>2019-08-25T08:20:16Z</time>
      </trkpt>
      <trkpt lat="44.08906" lon="3.41081">
        <ele>666.81</ele>
        <time>2019-08-25T08:20:29Z</time>
      </trkpt>
      <trkpt lat="44.08908" lon="3.41099">
        <ele>670.18</ele>
        <time>2019-08-25T08:20:41Z</time>
      </trkpt>
      <trkpt lat="44.08911" lon="3.41114">
        <ele>672.1</ele>
        <time>2019-08-25T08:20:52Z</time>
      </trkpt>
      <trkpt lat="44.08912" lon="3.4113">
        <ele>673.54</ele>
        <time>2019-08-25T08:21:03Z</time>
      </trkpt>
      <trkpt lat="44.08914" lon="3.41143">
        <ele>671.14</ele>
        <time>2019-08-25T08:21:14Z</time>
      </trkpt>
      <trkpt lat="44.08907" lon="3.41165">
        <ele>670.18</ele>
        <time>2019-08-25T08:21:28Z</time>
      </trkpt>
      <trkpt lat="44.08903" lon="3.41185">
        <ele>676.42</ele>
        <time>2019-08-25T08:21:40Z</time>
      </trkpt>
      <trkpt lat="44.08903" lon="3.41194">
        <ele>682.67</ele>
        <time>2019-08-25T08:21:56Z</time>
      </trkpt>
      <trkpt lat="44.08908" lon="3.41199">
        <ele>692.77</ele>
        <time>2019-08-25T08:22:10Z</time>
      </trkpt>
      <trkpt lat="44.08909" lon="3.41199">
        <ele>703.82</ele>
        <time>2019-08-25T08:22:21Z</time>
      </trkpt>
      <trkpt lat="44.08911" lon="3.41196">
        <ele>710.07</ele>
        <time>2019-08-25T08:22:32Z</time>
      </trkpt>
      <trkpt lat="44.08912" lon="3.41198">
        <ele>706.23</ele>
        <time>2019-08-25T08:22:50Z</time>
      </trkpt>
      <trkpt lat="44.08912" lon="3.41198">
        <ele>703.34</ele>
        <time>2019-08-25T08:23:06Z</time>
      </trkpt>
      <trkpt lat="44.08915" lon="3.41199">
        <ele>703.34</ele>
        <time>2019-08-25T08:23:20Z</time>
      </trkpt>
      <trkpt lat="44.08915" lon="3.41198">
        <ele>707.19</ele>
        <time>2019-08-25T08:23:40Z</time>
      </trkpt>
      <trkpt lat="44.08919" lon="3.41192">
        <ele>714.4</ele>
        <time>2019-08-25T08:23:54Z</time>
      </trkpt>
      <trkpt lat="44.08922" lon="3.41188">
        <ele>721.61</ele>
        <time>2019-08-25T08:24:08Z</time>
      </trkpt>
      <trkpt lat="44.08927" lon="3.41184">
        <ele>728.82</ele>
        <time>2019-08-25T08:24:23Z</time>
      </trkpt>
      <trkpt lat="44.08926" lon="3.41186">
        <ele>729.78</ele>
        <time>2019-08-25T08:24:38Z</time>
      </trkpt>
      <trkpt lat="44.08928" lon="3.41185">
        <ele>733.14</ele>
        <time>2019-08-25T08:24:50Z</time>
      </trkpt>
      <trkpt lat="44.08932" lon="3.41182">
        <ele>739.39</ele>
        <time>2019-08-25T08:25:05Z</time>
      </trkpt>
      <trkpt lat="44.08936" lon="3.41177">
        <ele>748.04</ele>
        <time>2019-08-25T08:25:18Z</time>
      </trkpt>
      <trkpt lat="44.08936" lon="3.41172">
        <ele>749.49</ele>
        <time>2019-08-25T08:25:33Z</time>
      </trkpt>
      <trkpt lat="44.08924" lon="3.41156">
        <ele>752.37</ele>
        <time>2019-08-25T08:25:53Z</time>
      </trkpt>
      <trkpt lat="44.08926" lon="3.41155">
        <ele>755.25</ele>
        <time>2019-08-25T08:26:12Z</time>
      </trkpt>
      <trkpt lat="44.0893" lon="3.41156">
        <ele>755.73</ele>
        <time>2019-08-25T08:26:25Z</time>
      </trkpt>
      <trkpt lat="44.08936" lon="3.41153">
        <ele>762.46</ele>
        <time>2019-08-25T08:26:42Z</time>
      </trkpt>
      <trkpt lat="44.08942" lon="3.41151">
        <ele>767.27</ele>
        <time>2019-08-25T08:26:58Z</time>
      </trkpt>
      <trkpt lat="44.08946" lon="3.41152">
        <ele>767.27</ele>
        <time>2019-08-25T08:27:09Z</time>
      </trkpt>
      <trkpt lat="44.08949" lon="3.41144">
        <ele>768.71</ele>
        <time>2019-08-25T08:27:22Z</time>
      </trkpt>
      <trkpt lat="44.08953" lon="3.41133">
        <ele>768.23</ele>
        <time>2019-08-25T08:27:34Z</time>
      </trkpt>
      <trkpt lat="44.08958" lon="3.41126">
        <ele>767.75</ele>
        <time>2019-08-25T08:27:45Z</time>
      </trkpt>
      <trkpt lat="44.08962" lon="3.41119">
        <ele>767.75</ele>
        <time>2019-08-25T08:27:57Z</time>
      </trkpt>
      <trkpt lat="44.08968" lon="3.41111">
        <ele>768.23</ele>
        <time>2019-08-25T08:28:11Z</time>
      </trkpt>
      <trkpt lat="44.08973" lon="3.41104">
        <ele>768.71</ele>
        <time>2019-08-25T08:28:22Z</time>
      </trkpt>
      <trkpt lat="44.0898" lon="3.411">
        <ele>771.11</ele>
        <time>2019-08-25T08:28:33Z</time>
      </trkpt>
      <trkpt lat="44.08989" lon="3.41097">
        <ele>771.11</ele>
        <time>2019-08-25T08:28:45Z</time>
      </trkpt>
      <trkpt lat="44.08999" lon="3.41093">
        <ele>771.11</ele>
        <time>2019-08-25T08:28:56Z</time>
      </trkpt>
      <trkpt lat="44.09" lon="3.41092">
        <ele>771.11</ele>
        <time>2019-08-25T08:28:57Z</time>
      </trkpt>
      <trkpt lat="44.09009" lon="3.41086">
        <ele>769.19</ele>
        <time>2019-08-25T08:29:09Z</time>
      </trkpt>
      <trkpt lat="44.09012" lon="3.41084">
        <ele>768.23</ele>
        <time>2019-08-25T08:29:22Z</time>
      </trkpt>
      <trkpt lat="44.09015" lon="3.41082">
        <ele>767.75</ele>
        <time>2019-08-25T08:29:34Z</time>
      </trkpt>
      <trkpt lat="44.09016" lon="3.41082">
        <ele>766.31</ele>
        <time>2019-08-25T08:29:49Z</time>
      </trkpt>
      <trkpt lat="44.09022" lon="3.41073">
        <ele>767.27</ele>
        <time>2019-08-25T08:30:00Z</time>
      </trkpt>
      <trkpt lat="44.09022" lon="3.4107">
        <ele>766.79</ele>
        <time>2019-08-25T08:30:03Z</time>
      </trkpt>
      <trkpt lat="44.09026" lon="3.41059">
        <ele>766.79</ele>
        <time>2019-08-25T08:30:14Z</time>
      </trkpt>
      <trkpt lat="44.09034" lon="3.41046">
        <ele>764.87</ele>
        <time>2019-08-25T08:30:27Z</time>
      </trkpt>
      <trkpt lat="44.0904" lon="3.41039">
        <ele>764.87</ele>
        <time>2019-08-25T08:30:38Z</time>
      </trkpt>
      <trkpt lat="44.09047" lon="3.41033">
        <ele>764.39</ele>
        <time>2019-08-25T08:30:46Z</time>
      </trkpt>
      <trkpt lat="44.09057" lon="3.41027">
        <ele>761.02</ele>
        <time>2019-08-25T08:30:58Z</time>
      </trkpt>
      <trkpt lat="44.09063" lon="3.41024">
        <ele>759.58</ele>
        <time>2019-08-25T08:31:09Z</time>
      </trkpt>
      <trkpt lat="44.09073" lon="3.41016">
        <ele>758.14</ele>
        <time>2019-08-25T08:31:21Z</time>
      </trkpt>
      <trkpt lat="44.0908" lon="3.41011">
        <ele>754.77</ele>
        <time>2019-08-25T08:31:34Z</time>
      </trkpt>
      <trkpt lat="44.09091" lon="3.41004">
        <ele>753.33</ele>
        <time>2019-08-25T08:31:48Z</time>
      </trkpt>
      <trkpt lat="44.091" lon="3.40995">
        <ele>752.85</ele>
        <time>2019-08-25T08:32:01Z</time>
      </trkpt>
      <trkpt lat="44.09106" lon="3.40985">
        <ele>754.29</ele>
        <time>2019-08-25T08:32:13Z</time>
      </trkpt>
      <trkpt lat="44.09119" lon="3.40979">
        <ele>755.25</ele>
        <time>2019-08-25T08:32:25Z</time>
      </trkpt>
      <trkpt lat="44.09127" lon="3.40976">
        <ele>758.62</ele>
        <time>2019-08-25T08:32:38Z</time>
      </trkpt>
      <trkpt lat="44.09135" lon="3.40971">
        <ele>763.42</ele>
        <time>2019-08-25T08:32:53Z</time>
      </trkpt>
      <trkpt lat="44.09146" lon="3.40958">
        <ele>771.6</ele>
        <time>2019-08-25T08:33:07Z</time>
      </trkpt>
      <trkpt lat="44.09153" lon="3.40955">
        <ele>772.08</ele>
        <time>2019-08-25T08:33:20Z</time>
      </trkpt>
      <trkpt lat="44.09161" lon="3.40954">
        <ele>770.63</ele>
        <time>2019-08-25T08:33:34Z</time>
      </trkpt>
      <trkpt lat="44.0917" lon="3.40949">
        <ele>769.67</ele>
        <time>2019-08-25T08:33:45Z</time>
      </trkpt>
      <trkpt lat="44.09177" lon="3.40942">
        <ele>772.56</ele>
        <time>2019-08-25T08:33:58Z</time>
      </trkpt>
      <trkpt lat="44.09188" lon="3.40941">
        <ele>776.88</ele>
        <time>2019-08-25T08:34:12Z</time>
      </trkpt>
      <trkpt lat="44.09187" lon="3.40953">
        <ele>777.84</ele>
        <time>2019-08-25T08:34:30Z</time>
      </trkpt>
      <trkpt lat="44.09195" lon="3.4095">
        <ele>778.32</ele>
        <time>2019-08-25T08:34:43Z</time>
      </trkpt>
      <trkpt lat="44.09196" lon="3.40945">
        <ele>779.77</ele>
        <time>2019-08-25T08:34:56Z</time>
      </trkpt>
      <trkpt lat="44.09194" lon="3.4094">
        <ele>780.73</ele>
        <time>2019-08-25T08:35:20Z</time>
      </trkpt>
      <trkpt lat="44.09196" lon="3.40921">
        <ele>797.55</ele>
        <time>2019-08-25T08:35:38Z</time>
      </trkpt>
      <trkpt lat="44.09199" lon="3.40934">
        <ele>809.09</ele>
        <time>2019-08-25T08:35:51Z</time>
      </trkpt>
      <trkpt lat="44.09193" lon="3.40932">
        <ele>821.1</ele>
        <time>2019-08-25T08:36:16Z</time>
      </trkpt>
      <trkpt lat="44.09199" lon="3.40945">
        <ele>824.95</ele>
        <time>2019-08-25T08:36:37Z</time>
      </trkpt>
      <trkpt lat="44.09196" lon="3.40942">
        <ele>831.2</ele>
        <time>2019-08-25T08:37:04Z</time>
      </trkpt>
      <trkpt lat="44.09201" lon="3.40946">
        <ele>837.45</ele>
        <time>2019-08-25T08:37:36Z</time>
      </trkpt>
      <trkpt lat="44.09201" lon="3.40946">
        <ele>837.93</ele>
        <time>2019-08-25T08:37:59Z</time>
      </trkpt>
      <trkpt lat="44.09204" lon="3.40942">
        <ele>834.08</ele>
        <time>2019-08-25T08:38:30Z</time>
      </trkpt>
      <trkpt lat="44.09194" lon="3.4094">
        <ele>827.35</ele>
        <time>2019-08-25T08:39:08Z</time>
      </trkpt>
      <trkpt lat="44.09195" lon="3.40942">
        <ele>818.7</ele>
        <time>2019-08-25T08:39:39Z</time>
      </trkpt>
      <trkpt lat="44.09201" lon="3.40946">
        <ele>812.93</ele>
        <time>2019-08-25T08:40:12Z</time>
      </trkpt>
      <trkpt lat="44.09198" lon="3.40944">
        <ele>816.78</ele>
        <time>2019-08-25T08:40:46Z</time>
      </trkpt>
      <trkpt lat="44.09201" lon="3.40942">
        <ele>817.74</ele>
        <time>2019-08-25T08:41:10Z</time>
      </trkpt>
      <trkpt lat="44.09209" lon="3.4094">
        <ele>831.68</ele>
        <time>2019-08-25T08:41:43Z</time>
      </trkpt>
      <trkpt lat="44.09202" lon="3.40941">
        <ele>838.41</ele>
        <time>2019-08-25T08:42:10Z</time>
      </trkpt>
      <trkpt lat="44.09194" lon="3.40944">
        <ele>834.56</ele>
        <time>2019-08-25T08:42:33Z</time>
      </trkpt>
      <trkpt lat="44.09202" lon="3.40943">
        <ele>828.31</ele>
        <time>2019-08-25T08:43:03Z</time>
      </trkpt>
      <trkpt lat="44.092" lon="3.40948">
        <ele>832.64</ele>
        <time>2019-08-25T08:43:26Z</time>
      </trkpt>
      <trkpt lat="44.09194" lon="3.40949">
        <ele>831.2</ele>
        <time>2019-08-25T08:43:54Z</time>
      </trkpt>
      <trkpt lat="44.09199" lon="3.40947">
        <ele>831.68</ele>
        <time>2019-08-25T08:44:24Z</time>
      </trkpt>
      <trkpt lat="44.09198" lon="3.40946">
        <ele>832.16</ele>
        <time>2019-08-25T08:44:54Z</time>
      </trkpt>
      <trkpt lat="44.09199" lon="3.40951">
        <ele>837.93</ele>
        <time>2019-08-25T08:45:23Z</time>
      </trkpt>
      <trkpt lat="44.09205" lon="3.40952">
        <ele>831.68</ele>
        <time>2019-08-25T08:45:55Z</time>
      </trkpt>
      <trkpt lat="44.092" lon="3.40949">
        <ele>835.04</ele>
        <time>2019-08-25T08:46:20Z</time>
      </trkpt>
      <trkpt lat="44.09201" lon="3.40945">
        <ele>834.08</ele>
        <time>2019-08-25T08:46:45Z</time>
      </trkpt>
      <trkpt lat="44.09207" lon="3.4095">
        <ele>835.52</ele>
        <time>2019-08-25T08:47:15Z</time>
      </trkpt>
      <trkpt lat="44.09199" lon="3.40946">
        <ele>831.68</ele>
        <time>2019-08-25T08:47:44Z</time>
      </trkpt>
      <trkpt lat="44.09194" lon="3.40944">
        <ele>831.2</ele>
        <time>2019-08-25T08:48:16Z</time>
      </trkpt>
      <trkpt lat="44.092" lon="3.40946">
        <ele>833.6</ele>
        <time>2019-08-25T08:48:29Z</time>
      </trkpt>
      <trkpt lat="44.09203" lon="3.40948">
        <ele>832.64</ele>
        <time>2019-08-25T08:48:57Z</time>
      </trkpt>
      <trkpt lat="44.09199" lon="3.40941">
        <ele>830.72</ele>
        <time>2019-08-25T08:49:10Z</time>
      </trkpt>
      <trkpt lat="44.09203" lon="3.40952">
        <ele>824.95</ele>
        <time>2019-08-25T08:49:26Z</time>
      </trkpt>
      <trkpt lat="44.09208" lon="3.40957">
        <ele>823.51</ele>
        <time>2019-08-25T08:49:33Z</time>
      </trkpt>
      <trkpt lat="44.09215" lon="3.4097">
        <ele>823.03</ele>
        <time>2019-08-25T08:49:45Z</time>
      </trkpt>
      <trkpt lat="44.0922" lon="3.40984">
        <ele>819.18</ele>
        <time>2019-08-25T08:49:58Z</time>
      </trkpt>
      <trkpt lat="44.09222" lon="3.41001">
        <ele>819.66</ele>
        <time>2019-08-25T08:50:11Z</time>
      </trkpt>
      <trkpt lat="44.09222" lon="3.41003">
        <ele>819.66</ele>
        <time>2019-08-25T08:50:12Z</time>
      </trkpt>
      <trkpt lat="44.09222" lon="3.41019">
        <ele>817.26</ele>
        <time>2019-08-25T08:50:26Z</time>
      </trkpt>
      <trkpt lat="44.09221" lon="3.41036">
        <ele>815.82</ele>
        <time>2019-08-25T08:50:39Z</time>
      </trkpt>
      <trkpt lat="44.09216" lon="3.41052">
        <ele>815.34</ele>
        <time>2019-08-25T08:50:50Z</time>
      </trkpt>
      <trkpt lat="44.09211" lon="3.41062">
        <ele>815.34</ele>
        <time>2019-08-25T08:50:58Z</time>
      </trkpt>
      <trkpt lat="44.09205" lon="3.4108">
        <ele>816.3</ele>
        <time>2019-08-25T08:51:12Z</time>
      </trkpt>
      <trkpt lat="44.09201" lon="3.41098">
        <ele>817.26</ele>
        <time>2019-08-25T08:51:24Z</time>
      </trkpt>
      <trkpt lat="44.09198" lon="3.41112">
        <ele>816.78</ele>
        <time>2019-08-25T08:51:36Z</time>
      </trkpt>
      <trkpt lat="44.09196" lon="3.41125">
        <ele>813.41</ele>
        <time>2019-08-25T08:51:48Z</time>
      </trkpt>
      <trkpt lat="44.09193" lon="3.41138">
        <ele>812.93</ele>
        <time>2019-08-25T08:51:58Z</time>
      </trkpt>
      <trkpt lat="44.09193" lon="3.41139">
        <ele>812.93</ele>
        <time>2019-08-25T08:51:59Z</time>
      </trkpt>
      <trkpt lat="44.09193" lon="3.41158">
        <ele>814.85</ele>
        <time>2019-08-25T08:52:11Z</time>
      </trkpt>
      <trkpt lat="44.09192" lon="3.41166">
        <ele>814.37</ele>
        <time>2019-08-25T08:52:18Z</time>
      </trkpt>
      <trkpt lat="44.09187" lon="3.41176">
        <ele>814.37</ele>
        <time>2019-08-25T08:52:29Z</time>
      </trkpt>
      <trkpt lat="44.09181" lon="3.4119">
        <ele>814.37</ele>
        <time>2019-08-25T08:52:43Z</time>
      </trkpt>
      <trkpt lat="44.09177" lon="3.41205">
        <ele>814.37</ele>
        <time>2019-08-25T08:52:55Z</time>
      </trkpt>
      <trkpt lat="44.09176" lon="3.41219">
        <ele>814.37</ele>
        <time>2019-08-25T08:53:05Z</time>
      </trkpt>
      <trkpt lat="44.09175" lon="3.41233">
        <ele>814.37</ele>
        <time>2019-08-25T08:53:16Z</time>
      </trkpt>
      <trkpt lat="44.09173" lon="3.41247">
        <ele>814.37</ele>
        <time>2019-08-25T08:53:28Z</time>
      </trkpt>
      <trkpt lat="44.09173" lon="3.41259">
        <ele>815.34</ele>
        <time>2019-08-25T08:53:38Z</time>
      </trkpt>
      <trkpt lat="44.09175" lon="3.41272">
        <ele>815.82</ele>
        <time>2019-08-25T08:53:49Z</time>
      </trkpt>
      <trkpt lat="44.09174" lon="3.4129">
        <ele>816.78</ele>
        <time>2019-08-25T08:54:00Z</time>
      </trkpt>
      <trkpt lat="44.09172" lon="3.41304">
        <ele>818.22</ele>
        <time>2019-08-25T08:54:12Z</time>
      </trkpt>
      <trkpt lat="44.09172" lon="3.41318">
        <ele>819.18</ele>
        <time>2019-08-25T08:54:24Z</time>
      </trkpt>
      <trkpt lat="44.09171" lon="3.4133">
        <ele>819.66</ele>
        <time>2019-08-25T08:54:36Z</time>
      </trkpt>
      <trkpt lat="44.09175" lon="3.41342">
        <ele>820.62</ele>
        <time>2019-08-25T08:54:51Z</time>
      </trkpt>
      <trkpt lat="44.09179" lon="3.41357">
        <ele>822.06</ele>
        <time>2019-08-25T08:55:04Z</time>
      </trkpt>
      <trkpt lat="44.09186" lon="3.41363">
        <ele>822.55</ele>
        <time>2019-08-25T08:55:15Z</time>
      </trkpt>
      <trkpt lat="44.09193" lon="3.41349">
        <ele>822.55</ele>
        <time>2019-08-25T08:55:28Z</time>
      </trkpt>
      <trkpt lat="44.09199" lon="3.41337">
        <ele>822.55</ele>
        <time>2019-08-25T08:55:40Z</time>
      </trkpt>
      <trkpt lat="44.09205" lon="3.41328">
        <ele>823.03</ele>
        <time>2019-08-25T08:55:49Z</time>
      </trkpt>
      <trkpt lat="44.09206" lon="3.41325">
        <ele>823.03</ele>
        <time>2019-08-25T08:55:51Z</time>
      </trkpt>
      <trkpt lat="44.09212" lon="3.41312">
        <ele>824.47</ele>
        <time>2019-08-25T08:56:02Z</time>
      </trkpt>
      <trkpt lat="44.09214" lon="3.41307">
        <ele>824.95</ele>
        <time>2019-08-25T08:56:06Z</time>
      </trkpt>
      <trkpt lat="44.09224" lon="3.41292">
        <ele>843.69</ele>
        <time>2019-08-25T08:56:20Z</time>
      </trkpt>
      <trkpt lat="44.0923" lon="3.41283">
        <ele>847.06</ele>
        <time>2019-08-25T08:56:31Z</time>
      </trkpt>
      <trkpt lat="44.0924" lon="3.41276">
        <ele>848.5</ele>
        <time>2019-08-25T08:56:43Z</time>
      </trkpt>
      <trkpt lat="44.0925" lon="3.41272">
        <ele>850.42</ele>
        <time>2019-08-25T08:56:55Z</time>
      </trkpt>
      <trkpt lat="44.09266" lon="3.41273">
        <ele>850.9</ele>
        <time>2019-08-25T08:57:09Z</time>
      </trkpt>
      <trkpt lat="44.09281" lon="3.41275">
        <ele>846.58</ele>
        <time>2019-08-25T08:57:23Z</time>
      </trkpt>
      <trkpt lat="44.09292" lon="3.41278">
        <ele>847.54</ele>
        <time>2019-08-25T08:57:35Z</time>
      </trkpt>
      <trkpt lat="44.09306" lon="3.41282">
        <ele>846.58</ele>
        <time>2019-08-25T08:57:47Z</time>
      </trkpt>
      <trkpt lat="44.09319" lon="3.41287">
        <ele>847.54</ele>
        <time>2019-08-25T08:58:00Z</time>
      </trkpt>
      <trkpt lat="44.09331" lon="3.41294">
        <ele>847.54</ele>
        <time>2019-08-25T08:58:12Z</time>
      </trkpt>
      <trkpt lat="44.09343" lon="3.41298">
        <ele>846.58</ele>
        <time>2019-08-25T08:58:24Z</time>
      </trkpt>
      <trkpt lat="44.09357" lon="3.41303">
        <ele>846.58</ele>
        <time>2019-08-25T08:58:36Z</time>
      </trkpt>
      <trkpt lat="44.09362" lon="3.41308">
        <ele>847.54</ele>
        <time>2019-08-25T08:58:42Z</time>
      </trkpt>
      <trkpt lat="44.09373" lon="3.41312">
        <ele>845.62</ele>
        <time>2019-08-25T08:58:56Z</time>
      </trkpt>
      <trkpt lat="44.09387" lon="3.41316">
        <ele>844.66</ele>
        <time>2019-08-25T08:59:11Z</time>
      </trkpt>
      <trkpt lat="44.094" lon="3.41319">
        <ele>844.18</ele>
        <time>2019-08-25T08:59:24Z</time>
      </trkpt>
      <trkpt lat="44.0941" lon="3.41324">
        <ele>845.62</ele>
        <time>2019-08-25T08:59:36Z</time>
      </trkpt>
      <trkpt lat="44.09422" lon="3.4133">
        <ele>845.14</ele>
        <time>2019-08-25T08:59:47Z</time>
      </trkpt>
      <trkpt lat="44.0943" lon="3.41334">
        <ele>845.62</ele>
        <time>2019-08-25T08:59:55Z</time>
      </trkpt>
      <trkpt lat="44.09437" lon="3.41337">
        <ele>846.1</ele>
        <time>2019-08-25T09:00:04Z</time>
      </trkpt>
      <trkpt lat="44.09447" lon="3.41343">
        <ele>847.54</ele>
        <time>2019-08-25T09:00:15Z</time>
      </trkpt>
      <trkpt lat="44.09462" lon="3.41349">
        <ele>849.46</ele>
        <time>2019-08-25T09:00:28Z</time>
      </trkpt>
      <trkpt lat="44.09475" lon="3.41356">
        <ele>852.35</ele>
        <time>2019-08-25T09:00:41Z</time>
      </trkpt>
      <trkpt lat="44.09479" lon="3.41357">
        <ele>851.87</ele>
        <time>2019-08-25T09:00:44Z</time>
      </trkpt>
      <trkpt lat="44.09491" lon="3.41359">
        <ele>849.94</ele>
        <time>2019-08-25T09:00:57Z</time>
      </trkpt>
      <trkpt lat="44.09509" lon="3.41359">
        <ele>851.87</ele>
        <time>2019-08-25T09:01:10Z</time>
      </trkpt>
      <trkpt lat="44.09521" lon="3.41359">
        <ele>852.35</ele>
        <time>2019-08-25T09:01:22Z</time>
      </trkpt>
      <trkpt lat="44.09529" lon="3.4136">
        <ele>855.71</ele>
        <time>2019-08-25T09:01:32Z</time>
      </trkpt>
      <trkpt lat="44.09538" lon="3.41359">
        <ele>859.08</ele>
        <time>2019-08-25T09:01:44Z</time>
      </trkpt>
      <trkpt lat="44.09541" lon="3.41361">
        <ele>859.56</ele>
        <time>2019-08-25T09:01:47Z</time>
      </trkpt>
      <trkpt lat="44.09555" lon="3.4138">
        <ele>860.52</ele>
        <time>2019-08-25T09:02:02Z</time>
      </trkpt>
      <trkpt lat="44.09562" lon="3.41392">
        <ele>863.4</ele>
        <time>2019-08-25T09:02:14Z</time>
      </trkpt>
      <trkpt lat="44.09569" lon="3.41407">
        <ele>864.84</ele>
        <time>2019-08-25T09:02:27Z</time>
      </trkpt>
      <trkpt lat="44.09574" lon="3.41416">
        <ele>865.32</ele>
        <time>2019-08-25T09:02:34Z</time>
      </trkpt>
      <trkpt lat="44.09577" lon="3.41429">
        <ele>863.88</ele>
        <time>2019-08-25T09:02:46Z</time>
      </trkpt>
      <trkpt lat="44.09578" lon="3.41445">
        <ele>863.88</ele>
        <time>2019-08-25T09:02:58Z</time>
      </trkpt>
      <trkpt lat="44.09581" lon="3.41451">
        <ele>863.4</ele>
        <time>2019-08-25T09:03:03Z</time>
      </trkpt>
      <trkpt lat="44.09587" lon="3.41475">
        <ele>864.36</ele>
        <time>2019-08-25T09:03:17Z</time>
      </trkpt>
      <trkpt lat="44.09592" lon="3.41497">
        <ele>864.36</ele>
        <time>2019-08-25T09:03:30Z</time>
      </trkpt>
      <trkpt lat="44.09596" lon="3.41519">
        <ele>863.88</ele>
        <time>2019-08-25T09:03:43Z</time>
      </trkpt>
      <trkpt lat="44.09598" lon="3.4153">
        <ele>864.36</ele>
        <time>2019-08-25T09:03:52Z</time>
      </trkpt>
      <trkpt lat="44.09598" lon="3.41552">
        <ele>864.36</ele>
        <time>2019-08-25T09:04:04Z</time>
      </trkpt>
      <trkpt lat="44.096" lon="3.41565">
        <ele>864.84</ele>
        <time>2019-08-25T09:04:14Z</time>
      </trkpt>
      <trkpt lat="44.096" lon="3.41577">
        <ele>864.84</ele>
        <time>2019-08-25T09:04:21Z</time>
      </trkpt>
      <trkpt lat="44.09602" lon="3.416">
        <ele>864.84</ele>
        <time>2019-08-25T09:04:34Z</time>
      </trkpt>
      <trkpt lat="44.09605" lon="3.41618">
        <ele>864.84</ele>
        <time>2019-08-25T09:04:45Z</time>
      </trkpt>
      <trkpt lat="44.09607" lon="3.41622">
        <ele>864.84</ele>
        <time>2019-08-25T09:04:48Z</time>
      </trkpt>
      <trkpt lat="44.09612" lon="3.41637">
        <ele>864.84</ele>
        <time>2019-08-25T09:05:00Z</time>
      </trkpt>
      <trkpt lat="44.09617" lon="3.41651">
        <ele>864.84</ele>
        <time>2019-08-25T09:05:09Z</time>
      </trkpt>
      <trkpt lat="44.0962" lon="3.41651">
        <ele>864.84</ele>
        <time>2019-08-25T09:05:12Z</time>
      </trkpt>
      <trkpt lat="44.09626" lon="3.41672">
        <ele>865.32</ele>
        <time>2019-08-25T09:05:26Z</time>
      </trkpt>
      <trkpt lat="44.09629" lon="3.41691">
        <ele>866.29</ele>
        <time>2019-08-25T09:05:39Z</time>
      </trkpt>
      <trkpt lat="44.09629" lon="3.41693">
        <ele>866.29</ele>
        <time>2019-08-25T09:05:40Z</time>
      </trkpt>
      <trkpt lat="44.09631" lon="3.41702">
        <ele>866.77</ele>
        <time>2019-08-25T09:05:45Z</time>
      </trkpt>
      <trkpt lat="44.09632" lon="3.41708">
        <ele>867.25</ele>
        <time>2019-08-25T09:05:51Z</time>
      </trkpt>
      <trkpt lat="44.09626" lon="3.41726">
        <ele>868.21</ele>
        <time>2019-08-25T09:06:03Z</time>
      </trkpt>
      <trkpt lat="44.09626" lon="3.41747">
        <ele>868.69</ele>
        <time>2019-08-25T09:06:14Z</time>
      </trkpt>
      <trkpt lat="44.09626" lon="3.41762">
        <ele>869.65</ele>
        <time>2019-08-25T09:06:26Z</time>
      </trkpt>
      <trkpt lat="44.09624" lon="3.41771">
        <ele>870.13</ele>
        <time>2019-08-25T09:06:31Z</time>
      </trkpt>
      <trkpt lat="44.09623" lon="3.4179">
        <ele>871.09</ele>
        <time>2019-08-25T09:06:42Z</time>
      </trkpt>
      <trkpt lat="44.09622" lon="3.41809">
        <ele>872.05</ele>
        <time>2019-08-25T09:06:53Z</time>
      </trkpt>
      <trkpt lat="44.09623" lon="3.41812">
        <ele>872.53</ele>
        <time>2019-08-25T09:06:55Z</time>
      </trkpt>
      <trkpt lat="44.09616" lon="3.4183">
        <ele>873.5</ele>
        <time>2019-08-25T09:07:09Z</time>
      </trkpt>
      <trkpt lat="44.09609" lon="3.41848">
        <ele>873.98</ele>
        <time>2019-08-25T09:07:21Z</time>
      </trkpt>
      <trkpt lat="44.09608" lon="3.4187">
        <ele>874.46</ele>
        <time>2019-08-25T09:07:34Z</time>
      </trkpt>
      <trkpt lat="44.0961" lon="3.41885">
        <ele>874.94</ele>
        <time>2019-08-25T09:07:46Z</time>
      </trkpt>
      <trkpt lat="44.09609" lon="3.41893">
        <ele>874.94</ele>
        <time>2019-08-25T09:07:50Z</time>
      </trkpt>
      <trkpt lat="44.09608" lon="3.41917">
        <ele>875.42</ele>
        <time>2019-08-25T09:08:03Z</time>
      </trkpt>
      <trkpt lat="44.09613" lon="3.41936">
        <ele>874.94</ele>
        <time>2019-08-25T09:08:17Z</time>
      </trkpt>
      <trkpt lat="44.0962" lon="3.41943">
        <ele>878.3</ele>
        <time>2019-08-25T09:08:32Z</time>
      </trkpt>
      <trkpt lat="44.09617" lon="3.41934">
        <ele>888.4</ele>
        <time>2019-08-25T09:08:46Z</time>
      </trkpt>
      <trkpt lat="44.09616" lon="3.41917">
        <ele>892.24</ele>
        <time>2019-08-25T09:08:59Z</time>
      </trkpt>
      <trkpt lat="44.09616" lon="3.41912">
        <ele>895.12</ele>
        <time>2019-08-25T09:09:10Z</time>
      </trkpt>
      <trkpt lat="44.09617" lon="3.41921">
        <ele>896.09</ele>
        <time>2019-08-25T09:09:21Z</time>
      </trkpt>
      <trkpt lat="44.09621" lon="3.41932">
        <ele>897.53</ele>
        <time>2019-08-25T09:09:33Z</time>
      </trkpt>
      <trkpt lat="44.09623" lon="3.41933">
        <ele>895.12</ele>
        <time>2019-08-25T09:09:45Z</time>
      </trkpt>
      <trkpt lat="44.09626" lon="3.41924">
        <ele>891.28</ele>
        <time>2019-08-25T09:10:06Z</time>
      </trkpt>
      <trkpt lat="44.09633" lon="3.41917">
        <ele>893.2</ele>
        <time>2019-08-25T09:10:17Z</time>
      </trkpt>
      <trkpt lat="44.09635" lon="3.4191">
        <ele>894.16</ele>
        <time>2019-08-25T09:10:26Z</time>
      </trkpt>
      <trkpt lat="44.09641" lon="3.41905">
        <ele>893.68</ele>
        <time>2019-08-25T09:10:38Z</time>
      </trkpt>
      <trkpt lat="44.09646" lon="3.41893">
        <ele>890.8</ele>
        <time>2019-08-25T09:10:51Z</time>
      </trkpt>
      <trkpt lat="44.09647" lon="3.41889">
        <ele>890.8</ele>
        <time>2019-08-25T09:10:53Z</time>
      </trkpt>
      <trkpt lat="44.09648" lon="3.41887">
        <ele>890.8</ele>
        <time>2019-08-25T09:10:54Z</time>
      </trkpt>
      <trkpt lat="44.09657" lon="3.41879">
        <ele>890.32</ele>
        <time>2019-08-25T09:11:05Z</time>
      </trkpt>
      <trkpt lat="44.09659" lon="3.41879">
        <ele>889.84</ele>
        <time>2019-08-25T09:11:06Z</time>
      </trkpt>
      <trkpt lat="44.09664" lon="3.41876">
        <ele>889.36</ele>
        <time>2019-08-25T09:11:10Z</time>
      </trkpt>
      <trkpt lat="44.09665" lon="3.41875">
        <ele>889.36</ele>
        <time>2019-08-25T09:11:11Z</time>
      </trkpt>
      <trkpt lat="44.09666" lon="3.41873">
        <ele>888.88</ele>
        <time>2019-08-25T09:11:12Z</time>
      </trkpt>
      <trkpt lat="44.09674" lon="3.41862">
        <ele>887.43</ele>
        <time>2019-08-25T09:11:22Z</time>
      </trkpt>
      <trkpt lat="44.09684" lon="3.41849">
        <ele>885.51</ele>
        <time>2019-08-25T09:11:33Z</time>
      </trkpt>
      <trkpt lat="44.0969" lon="3.41845">
        <ele>885.51</ele>
        <time>2019-08-25T09:11:41Z</time>
      </trkpt>
      <trkpt lat="44.09707" lon="3.41839">
        <ele>883.59</ele>
        <time>2019-08-25T09:11:54Z</time>
      </trkpt>
      <trkpt lat="44.09712" lon="3.41833">
        <ele>884.07</ele>
        <time>2019-08-25T09:12:01Z</time>
      </trkpt>
      <trkpt lat="44.09712" lon="3.41819">
        <ele>884.07</ele>
        <time>2019-08-25T09:12:11Z</time>
      </trkpt>
      <trkpt lat="44.09712" lon="3.41807">
        <ele>884.55</ele>
        <time>2019-08-25T09:12:20Z</time>
      </trkpt>
      <trkpt lat="44.09712" lon="3.41805">
        <ele>884.55</ele>
        <time>2019-08-25T09:12:21Z</time>
      </trkpt>
      <trkpt lat="44.09713" lon="3.41803">
        <ele>884.55</ele>
        <time>2019-08-25T09:12:22Z</time>
      </trkpt>
      <trkpt lat="44.09714" lon="3.41801">
        <ele>884.07</ele>
        <time>2019-08-25T09:12:23Z</time>
      </trkpt>
      <trkpt lat="44.09724" lon="3.4179">
        <ele>883.11</ele>
        <time>2019-08-25T09:12:34Z</time>
      </trkpt>
      <trkpt lat="44.09731" lon="3.41777">
        <ele>883.11</ele>
        <time>2019-08-25T09:12:44Z</time>
      </trkpt>
      <trkpt lat="44.09735" lon="3.41768">
        <ele>882.63</ele>
        <time>2019-08-25T09:12:53Z</time>
      </trkpt>
      <trkpt lat="44.09736" lon="3.41766">
        <ele>882.63</ele>
        <time>2019-08-25T09:12:54Z</time>
      </trkpt>
      <trkpt lat="44.09737" lon="3.41764">
        <ele>882.63</ele>
        <time>2019-08-25T09:12:55Z</time>
      </trkpt>
      <trkpt lat="44.09745" lon="3.4175">
        <ele>878.78</ele>
        <time>2019-08-25T09:13:06Z</time>
      </trkpt>
      <trkpt lat="44.09756" lon="3.41732">
        <ele>873.5</ele>
        <time>2019-08-25T09:13:19Z</time>
      </trkpt>
      <trkpt lat="44.09758" lon="3.4173">
        <ele>873.5</ele>
        <time>2019-08-25T09:13:20Z</time>
      </trkpt>
      <trkpt lat="44.09764" lon="3.41721">
        <ele>873.98</ele>
        <time>2019-08-25T09:13:29Z</time>
      </trkpt>
      <trkpt lat="44.09765" lon="3.4172">
        <ele>874.46</ele>
        <time>2019-08-25T09:13:30Z</time>
      </trkpt>
      <trkpt lat="44.09777" lon="3.41712">
        <ele>877.34</ele>
        <time>2019-08-25T09:13:42Z</time>
      </trkpt>
      <trkpt lat="44.09776" lon="3.41695">
        <ele>880.22</ele>
        <time>2019-08-25T09:13:54Z</time>
      </trkpt>
      <trkpt lat="44.09776" lon="3.41694">
        <ele>880.71</ele>
        <time>2019-08-25T09:13:55Z</time>
      </trkpt>
      <trkpt lat="44.09771" lon="3.41687">
        <ele>880.71</ele>
        <time>2019-08-25T09:14:02Z</time>
      </trkpt>
      <trkpt lat="44.0977" lon="3.41684">
        <ele>880.71</ele>
        <time>2019-08-25T09:14:04Z</time>
      </trkpt>
      <trkpt lat="44.09765" lon="3.41668">
        <ele>881.67</ele>
        <time>2019-08-25T09:14:15Z</time>
      </trkpt>
      <trkpt lat="44.09766" lon="3.41649">
        <ele>884.55</ele>
        <time>2019-08-25T09:14:26Z</time>
      </trkpt>
      <trkpt lat="44.09767" lon="3.41632">
        <ele>885.99</ele>
        <time>2019-08-25T09:14:36Z</time>
      </trkpt>
      <trkpt lat="44.09769" lon="3.41628">
        <ele>885.99</ele>
        <time>2019-08-25T09:14:39Z</time>
      </trkpt>
      <trkpt lat="44.09773" lon="3.41623">
        <ele>885.99</ele>
        <time>2019-08-25T09:14:43Z</time>
      </trkpt>
      <trkpt lat="44.09776" lon="3.41618">
        <ele>886.47</ele>
        <time>2019-08-25T09:14:47Z</time>
      </trkpt>
      <trkpt lat="44.09777" lon="3.41617">
        <ele>886.47</ele>
        <time>2019-08-25T09:14:48Z</time>
      </trkpt>
      <trkpt lat="44.09777" lon="3.41616">
        <ele>886.47</ele>
        <time>2019-08-25T09:14:49Z</time>
      </trkpt>
      <trkpt lat="44.09785" lon="3.41598">
        <ele>887.91</ele>
        <time>2019-08-25T09:15:02Z</time>
      </trkpt>
      <trkpt lat="44.09787" lon="3.41579">
        <ele>888.4</ele>
        <time>2019-08-25T09:15:14Z</time>
      </trkpt>
      <trkpt lat="44.09787" lon="3.41564">
        <ele>890.8</ele>
        <time>2019-08-25T09:15:23Z</time>
      </trkpt>
      <trkpt lat="44.0979" lon="3.4155">
        <ele>891.28</ele>
        <time>2019-08-25T09:15:34Z</time>
      </trkpt>
      <trkpt lat="44.09794" lon="3.4153">
        <ele>892.24</ele>
        <time>2019-08-25T09:15:47Z</time>
      </trkpt>
      <trkpt lat="44.09799" lon="3.41515">
        <ele>890.32</ele>
        <time>2019-08-25T09:15:58Z</time>
      </trkpt>
      <trkpt lat="44.09805" lon="3.415">
        <ele>890.8</ele>
        <time>2019-08-25T09:16:09Z</time>
      </trkpt>
      <trkpt lat="44.09811" lon="3.41483">
        <ele>892.72</ele>
        <time>2019-08-25T09:16:21Z</time>
      </trkpt>
      <trkpt lat="44.09815" lon="3.41468">
        <ele>893.2</ele>
        <time>2019-08-25T09:16:32Z</time>
      </trkpt>
      <trkpt lat="44.09816" lon="3.41456">
        <ele>894.16</ele>
        <time>2019-08-25T09:16:41Z</time>
      </trkpt>
      <trkpt lat="44.09817" lon="3.41438">
        <ele>897.05</ele>
        <time>2019-08-25T09:16:52Z</time>
      </trkpt>
      <trkpt lat="44.09814" lon="3.4142">
        <ele>898.01</ele>
        <time>2019-08-25T09:17:03Z</time>
      </trkpt>
      <trkpt lat="44.09816" lon="3.41404">
        <ele>901.85</ele>
        <time>2019-08-25T09:17:14Z</time>
      </trkpt>
      <trkpt lat="44.09814" lon="3.41387">
        <ele>904.74</ele>
        <time>2019-08-25T09:17:26Z</time>
      </trkpt>
      <trkpt lat="44.0981" lon="3.41379">
        <ele>905.7</ele>
        <time>2019-08-25T09:17:33Z</time>
      </trkpt>
      <trkpt lat="44.09802" lon="3.41359">
        <ele>906.66</ele>
        <time>2019-08-25T09:17:45Z</time>
      </trkpt>
      <trkpt lat="44.09809" lon="3.41335">
        <ele>907.62</ele>
        <time>2019-08-25T09:18:02Z</time>
      </trkpt>
      <trkpt lat="44.09806" lon="3.41318">
        <ele>907.62</ele>
        <time>2019-08-25T09:18:15Z</time>
      </trkpt>
      <trkpt lat="44.09804" lon="3.41311">
        <ele>907.14</ele>
        <time>2019-08-25T09:18:21Z</time>
      </trkpt>
      <trkpt lat="44.09806" lon="3.41302">
        <ele>907.62</ele>
        <time>2019-08-25T09:18:27Z</time>
      </trkpt>
      <trkpt lat="44.09811" lon="3.41294">
        <ele>907.62</ele>
        <time>2019-08-25T09:18:34Z</time>
      </trkpt>
      <trkpt lat="44.09812" lon="3.41293">
        <ele>908.1</ele>
        <time>2019-08-25T09:18:35Z</time>
      </trkpt>
      <trkpt lat="44.09825" lon="3.41279">
        <ele>907.14</ele>
        <time>2019-08-25T09:18:48Z</time>
      </trkpt>
      <trkpt lat="44.09832" lon="3.41276">
        <ele>906.66</ele>
        <time>2019-08-25T09:18:55Z</time>
      </trkpt>
      <trkpt lat="44.09833" lon="3.41277">
        <ele>906.66</ele>
        <time>2019-08-25T09:18:56Z</time>
      </trkpt>
      <trkpt lat="44.09847" lon="3.41281">
        <ele>905.22</ele>
        <time>2019-08-25T09:19:08Z</time>
      </trkpt>
      <trkpt lat="44.09859" lon="3.41287">
        <ele>905.7</ele>
        <time>2019-08-25T09:19:19Z</time>
      </trkpt>
      <trkpt lat="44.09872" lon="3.4129">
        <ele>904.26</ele>
        <time>2019-08-25T09:19:32Z</time>
      </trkpt>
      <trkpt lat="44.09874" lon="3.41291">
        <ele>904.74</ele>
        <time>2019-08-25T09:19:33Z</time>
      </trkpt>
      <trkpt lat="44.0988" lon="3.41293">
        <ele>904.26</ele>
        <time>2019-08-25T09:19:38Z</time>
      </trkpt>
      <trkpt lat="44.09897" lon="3.413">
        <ele>906.18</ele>
        <time>2019-08-25T09:19:52Z</time>
      </trkpt>
      <trkpt lat="44.09912" lon="3.41314">
        <ele>910.99</ele>
        <time>2019-08-25T09:20:08Z</time>
      </trkpt>
      <trkpt lat="44.09922" lon="3.41328">
        <ele>910.03</ele>
        <time>2019-08-25T09:20:21Z</time>
      </trkpt>
      <trkpt lat="44.09928" lon="3.41335">
        <ele>910.03</ele>
        <time>2019-08-25T09:20:27Z</time>
      </trkpt>
      <trkpt lat="44.0993" lon="3.41336">
        <ele>910.03</ele>
        <time>2019-08-25T09:20:28Z</time>
      </trkpt>
      <trkpt lat="44.09938" lon="3.41348">
        <ele>908.1</ele>
        <time>2019-08-25T09:20:38Z</time>
      </trkpt>
      <trkpt lat="44.09939" lon="3.41349">
        <ele>908.1</ele>
        <time>2019-08-25T09:20:39Z</time>
      </trkpt>
      <trkpt lat="44.09942" lon="3.41357">
        <ele>908.1</ele>
        <time>2019-08-25T09:20:45Z</time>
      </trkpt>
      <trkpt lat="44.09943" lon="3.41358">
        <ele>908.1</ele>
        <time>2019-08-25T09:20:46Z</time>
      </trkpt>
      <trkpt lat="44.09945" lon="3.4137">
        <ele>908.1</ele>
        <time>2019-08-25T09:20:54Z</time>
      </trkpt>
      <trkpt lat="44.09946" lon="3.41372">
        <ele>908.1</ele>
        <time>2019-08-25T09:20:55Z</time>
      </trkpt>
      <trkpt lat="44.09949" lon="3.41384">
        <ele>907.62</ele>
        <time>2019-08-25T09:21:03Z</time>
      </trkpt>
      <trkpt lat="44.0995" lon="3.4139">
        <ele>907.14</ele>
        <time>2019-08-25T09:21:06Z</time>
      </trkpt>
      <trkpt lat="44.09954" lon="3.41405">
        <ele>906.66</ele>
        <time>2019-08-25T09:21:17Z</time>
      </trkpt>
      <trkpt lat="44.09954" lon="3.4141">
        <ele>906.66</ele>
        <time>2019-08-25T09:21:28Z</time>
      </trkpt>
      <trkpt lat="44.09952" lon="3.41417">
        <ele>907.62</ele>
        <time>2019-08-25T09:21:43Z</time>
      </trkpt>
      <trkpt lat="44.09953" lon="3.41428">
        <ele>908.1</ele>
        <time>2019-08-25T09:21:50Z</time>
      </trkpt>
      <trkpt lat="44.09953" lon="3.41433">
        <ele>908.1</ele>
        <time>2019-08-25T09:21:53Z</time>
      </trkpt>
      <trkpt lat="44.09955" lon="3.41446">
        <ele>909.06</ele>
        <time>2019-08-25T09:22:01Z</time>
      </trkpt>
      <trkpt lat="44.09956" lon="3.41456">
        <ele>909.54</ele>
        <time>2019-08-25T09:22:07Z</time>
      </trkpt>
      <trkpt lat="44.09961" lon="3.41469">
        <ele>908.58</ele>
        <time>2019-08-25T09:22:16Z</time>
      </trkpt>
      <trkpt lat="44.09966" lon="3.41485">
        <ele>908.1</ele>
        <time>2019-08-25T09:22:28Z</time>
      </trkpt>
      <trkpt lat="44.09973" lon="3.41503">
        <ele>908.58</ele>
        <time>2019-08-25T09:22:39Z</time>
      </trkpt>
      <trkpt lat="44.09975" lon="3.4151">
        <ele>908.58</ele>
        <time>2019-08-25T09:22:43Z</time>
      </trkpt>
      <trkpt lat="44.0998" lon="3.41524">
        <ele>909.54</ele>
        <time>2019-08-25T09:22:54Z</time>
      </trkpt>
      <trkpt lat="44.09981" lon="3.41525">
        <ele>910.03</ele>
        <time>2019-08-25T09:22:55Z</time>
      </trkpt>
      <trkpt lat="44.09988" lon="3.41534">
        <ele>910.03</ele>
        <time>2019-08-25T09:23:08Z</time>
      </trkpt>
      <trkpt lat="44.09989" lon="3.41535">
        <ele>910.03</ele>
        <time>2019-08-25T09:23:09Z</time>
      </trkpt>
      <trkpt lat="44.09996" lon="3.41524">
        <ele>910.03</ele>
        <time>2019-08-25T09:23:21Z</time>
      </trkpt>
      <trkpt lat="44.10002" lon="3.41505">
        <ele>910.03</ele>
        <time>2019-08-25T09:23:32Z</time>
      </trkpt>
      <trkpt lat="44.10007" lon="3.41493">
        <ele>910.03</ele>
        <time>2019-08-25T09:23:41Z</time>
      </trkpt>
      <trkpt lat="44.10011" lon="3.41476">
        <ele>910.99</ele>
        <time>2019-08-25T09:23:52Z</time>
      </trkpt>
      <trkpt lat="44.10018" lon="3.4146">
        <ele>912.91</ele>
        <time>2019-08-25T09:24:02Z</time>
      </trkpt>
      <trkpt lat="44.10019" lon="3.41459">
        <ele>912.91</ele>
        <time>2019-08-25T09:24:03Z</time>
      </trkpt>
      <trkpt lat="44.1002" lon="3.41457">
        <ele>912.91</ele>
        <time>2019-08-25T09:24:04Z</time>
      </trkpt>
      <trkpt lat="44.10021" lon="3.41455">
        <ele>913.39</ele>
        <time>2019-08-25T09:24:05Z</time>
      </trkpt>
      <trkpt lat="44.10021" lon="3.41454">
        <ele>913.39</ele>
        <time>2019-08-25T09:24:06Z</time>
      </trkpt>
      <trkpt lat="44.10021" lon="3.41452">
        <ele>913.39</ele>
        <time>2019-08-25T09:24:07Z</time>
      </trkpt>
      <trkpt lat="44.10029" lon="3.41436">
        <ele>913.87</ele>
        <time>2019-08-25T09:24:18Z</time>
      </trkpt>
      <trkpt lat="44.10033" lon="3.4143">
        <ele>913.87</ele>
        <time>2019-08-25T09:24:23Z</time>
      </trkpt>
      <trkpt lat="44.10033" lon="3.41428">
        <ele>913.87</ele>
        <time>2019-08-25T09:24:24Z</time>
      </trkpt>
      <trkpt lat="44.10036" lon="3.4142">
        <ele>914.83</ele>
        <time>2019-08-25T09:24:36Z</time>
      </trkpt>
      <trkpt lat="44.10033" lon="3.41411">
        <ele>915.31</ele>
        <time>2019-08-25T09:24:50Z</time>
      </trkpt>
      <trkpt lat="44.10024" lon="3.41397">
        <ele>916.27</ele>
        <time>2019-08-25T09:25:02Z</time>
      </trkpt>
      <trkpt lat="44.10023" lon="3.41395">
        <ele>916.27</ele>
        <time>2019-08-25T09:25:03Z</time>
      </trkpt>
      <trkpt lat="44.1002" lon="3.4138">
        <ele>915.31</ele>
        <time>2019-08-25T09:25:13Z</time>
      </trkpt>
      <trkpt lat="44.1002" lon="3.41378">
        <ele>914.83</ele>
        <time>2019-08-25T09:25:14Z</time>
      </trkpt>
      <trkpt lat="44.1002" lon="3.41373">
        <ele>914.83</ele>
        <time>2019-08-25T09:25:17Z</time>
      </trkpt>
      <trkpt lat="44.10024" lon="3.41351">
        <ele>913.87</ele>
        <time>2019-08-25T09:25:30Z</time>
      </trkpt>
      <trkpt lat="44.10025" lon="3.4135">
        <ele>913.87</ele>
        <time>2019-08-25T09:25:31Z</time>
      </trkpt>
      <trkpt lat="44.10029" lon="3.41344">
        <ele>914.35</ele>
        <time>2019-08-25T09:25:36Z</time>
      </trkpt>
      <trkpt lat="44.1003" lon="3.41342">
        <ele>914.35</ele>
        <time>2019-08-25T09:25:37Z</time>
      </trkpt>
      <trkpt lat="44.1003" lon="3.4134">
        <ele>914.35</ele>
        <time>2019-08-25T09:25:38Z</time>
      </trkpt>
      <trkpt lat="44.10039" lon="3.4132">
        <ele>914.35</ele>
        <time>2019-08-25T09:25:51Z</time>
      </trkpt>
      <trkpt lat="44.10042" lon="3.41311">
        <ele>914.35</ele>
        <time>2019-08-25T09:25:56Z</time>
      </trkpt>
      <trkpt lat="44.10042" lon="3.41309">
        <ele>914.35</ele>
        <time>2019-08-25T09:25:57Z</time>
      </trkpt>
      <trkpt lat="44.10042" lon="3.41308">
        <ele>913.87</ele>
        <time>2019-08-25T09:25:58Z</time>
      </trkpt>
      <trkpt lat="44.1004" lon="3.41298">
        <ele>913.87</ele>
        <time>2019-08-25T09:26:04Z</time>
      </trkpt>
      <trkpt lat="44.1004" lon="3.41296">
        <ele>913.87</ele>
        <time>2019-08-25T09:26:05Z</time>
      </trkpt>
      <trkpt lat="44.10037" lon="3.41286">
        <ele>912.91</ele>
        <time>2019-08-25T09:26:12Z</time>
      </trkpt>
      <trkpt lat="44.10037" lon="3.41284">
        <ele>913.39</ele>
        <time>2019-08-25T09:26:13Z</time>
      </trkpt>
      <trkpt lat="44.10036" lon="3.41283">
        <ele>913.39</ele>
        <time>2019-08-25T09:26:14Z</time>
      </trkpt>
      <trkpt lat="44.10035" lon="3.41272">
        <ele>913.87</ele>
        <time>2019-08-25T09:26:21Z</time>
      </trkpt>
      <trkpt lat="44.10036" lon="3.4127">
        <ele>914.35</ele>
        <time>2019-08-25T09:26:22Z</time>
      </trkpt>
      <trkpt lat="44.10037" lon="3.41268">
        <ele>914.35</ele>
        <time>2019-08-25T09:26:23Z</time>
      </trkpt>
      <trkpt lat="44.1004" lon="3.41264">
        <ele>914.83</ele>
        <time>2019-08-25T09:26:27Z</time>
      </trkpt>
      <trkpt lat="44.10054" lon="3.41249">
        <ele>914.35</ele>
        <time>2019-08-25T09:26:41Z</time>
      </trkpt>
      <trkpt lat="44.10066" lon="3.41241">
        <ele>911.95</ele>
        <time>2019-08-25T09:26:54Z</time>
      </trkpt>
      <trkpt lat="44.10071" lon="3.41236">
        <ele>910.99</ele>
        <time>2019-08-25T09:26:59Z</time>
      </trkpt>
      <trkpt lat="44.10079" lon="3.41231">
        <ele>910.51</ele>
        <time>2019-08-25T09:27:06Z</time>
      </trkpt>
      <trkpt lat="44.10092" lon="3.41219">
        <ele>910.99</ele>
        <time>2019-08-25T09:27:19Z</time>
      </trkpt>
      <trkpt lat="44.10098" lon="3.41215">
        <ele>910.99</ele>
        <time>2019-08-25T09:27:25Z</time>
      </trkpt>
      <trkpt lat="44.10109" lon="3.41207">
        <ele>911.47</ele>
        <time>2019-08-25T09:27:36Z</time>
      </trkpt>
      <trkpt lat="44.10116" lon="3.41195">
        <ele>911.95</ele>
        <time>2019-08-25T09:27:48Z</time>
      </trkpt>
      <trkpt lat="44.1011" lon="3.41179">
        <ele>912.43</ele>
        <time>2019-08-25T09:27:58Z</time>
      </trkpt>
      <trkpt lat="44.10101" lon="3.41166">
        <ele>913.39</ele>
        <time>2019-08-25T09:28:06Z</time>
      </trkpt>
      <trkpt lat="44.10094" lon="3.41155">
        <ele>912.91</ele>
        <time>2019-08-25T09:28:14Z</time>
      </trkpt>
      <trkpt lat="44.10084" lon="3.41144">
        <ele>912.91</ele>
        <time>2019-08-25T09:28:24Z</time>
      </trkpt>
      <trkpt lat="44.1007" lon="3.41133">
        <ele>910.51</ele>
        <time>2019-08-25T09:28:38Z</time>
      </trkpt>
      <trkpt lat="44.10066" lon="3.41129">
        <ele>909.54</ele>
        <time>2019-08-25T09:28:42Z</time>
      </trkpt>
      <trkpt lat="44.10065" lon="3.41128">
        <ele>909.54</ele>
        <time>2019-08-25T09:28:43Z</time>
      </trkpt>
      <trkpt lat="44.10064" lon="3.41127">
        <ele>909.54</ele>
        <time>2019-08-25T09:28:44Z</time>
      </trkpt>
      <trkpt lat="44.10063" lon="3.41124">
        <ele>909.06</ele>
        <time>2019-08-25T09:28:46Z</time>
      </trkpt>
      <trkpt lat="44.10062" lon="3.41122">
        <ele>909.06</ele>
        <time>2019-08-25T09:28:47Z</time>
      </trkpt>
      <trkpt lat="44.1006" lon="3.4112">
        <ele>909.06</ele>
        <time>2019-08-25T09:28:49Z</time>
      </trkpt>
      <trkpt lat="44.10059" lon="3.41119">
        <ele>909.06</ele>
        <time>2019-08-25T09:28:50Z</time>
      </trkpt>
      <trkpt lat="44.10048" lon="3.41102">
        <ele>910.03</ele>
        <time>2019-08-25T09:29:04Z</time>
      </trkpt>
      <trkpt lat="44.10046" lon="3.41096">
        <ele>910.03</ele>
        <time>2019-08-25T09:29:09Z</time>
      </trkpt>
      <trkpt lat="44.10042" lon="3.41086">
        <ele>912.91</ele>
        <time>2019-08-25T09:29:17Z</time>
      </trkpt>
      <trkpt lat="44.10043" lon="3.4107">
        <ele>916.27</ele>
        <time>2019-08-25T09:29:29Z</time>
      </trkpt>
      <trkpt lat="44.10048" lon="3.41056">
        <ele>916.27</ele>
        <time>2019-08-25T09:29:41Z</time>
      </trkpt>
      <trkpt lat="44.10056" lon="3.41047">
        <ele>917.72</ele>
        <time>2019-08-25T09:29:54Z</time>
      </trkpt>
      <trkpt lat="44.10058" lon="3.41043">
        <ele>918.68</ele>
        <time>2019-08-25T09:29:58Z</time>
      </trkpt>
      <trkpt lat="44.10063" lon="3.41041">
        <ele>917.72</ele>
        <time>2019-08-25T09:30:03Z</time>
      </trkpt>
      <trkpt lat="44.10075" lon="3.41028">
        <ele>918.2</ele>
        <time>2019-08-25T09:30:17Z</time>
      </trkpt>
      <trkpt lat="44.10081" lon="3.41021">
        <ele>920.12</ele>
        <time>2019-08-25T09:30:30Z</time>
      </trkpt>
      <trkpt lat="44.10081" lon="3.41021">
        <ele>921.56</ele>
        <time>2019-08-25T09:30:41Z</time>
      </trkpt>
      <trkpt lat="44.10081" lon="3.4102">
        <ele>923.48</ele>
        <time>2019-08-25T09:31:00Z</time>
      </trkpt>
      <trkpt lat="44.1008" lon="3.41022">
        <ele>924.45</ele>
        <time>2019-08-25T09:31:10Z</time>
      </trkpt>
      <trkpt lat="44.10083" lon="3.4102">
        <ele>924.93</ele>
        <time>2019-08-25T09:31:21Z</time>
      </trkpt>
      <trkpt lat="44.10091" lon="3.41014">
        <ele>926.85</ele>
        <time>2019-08-25T09:31:29Z</time>
      </trkpt>
      <trkpt lat="44.10096" lon="3.41009">
        <ele>926.85</ele>
        <time>2019-08-25T09:31:34Z</time>
      </trkpt>
      <trkpt lat="44.10104" lon="3.40999">
        <ele>926.85</ele>
        <time>2019-08-25T09:31:44Z</time>
      </trkpt>
      <trkpt lat="44.10109" lon="3.40996">
        <ele>927.81</ele>
        <time>2019-08-25T09:31:49Z</time>
      </trkpt>
      <trkpt lat="44.10112" lon="3.40995">
        <ele>928.29</ele>
        <time>2019-08-25T09:31:52Z</time>
      </trkpt>
      <trkpt lat="44.10119" lon="3.40992">
        <ele>930.69</ele>
        <time>2019-08-25T09:31:58Z</time>
      </trkpt>
      <trkpt lat="44.10135" lon="3.40992">
        <ele>933.58</ele>
        <time>2019-08-25T09:32:13Z</time>
      </trkpt>
      <trkpt lat="44.10139" lon="3.40998">
        <ele>934.06</ele>
        <time>2019-08-25T09:32:27Z</time>
      </trkpt>
      <trkpt lat="44.10141" lon="3.40996">
        <ele>933.58</ele>
        <time>2019-08-25T09:32:31Z</time>
      </trkpt>
      <trkpt lat="44.10142" lon="3.4099">
        <ele>932.62</ele>
        <time>2019-08-25T09:32:42Z</time>
      </trkpt>
      <trkpt lat="44.10141" lon="3.40992">
        <ele>932.62</ele>
        <time>2019-08-25T09:32:56Z</time>
      </trkpt>
      <trkpt lat="44.10141" lon="3.40991">
        <ele>932.62</ele>
        <time>2019-08-25T09:33:10Z</time>
      </trkpt>
      <trkpt lat="44.10147" lon="3.40986">
        <ele>931.17</ele>
        <time>2019-08-25T09:33:22Z</time>
      </trkpt>
      <trkpt lat="44.10146" lon="3.40983">
        <ele>930.21</ele>
        <time>2019-08-25T09:33:40Z</time>
      </trkpt>
      <trkpt lat="44.10151" lon="3.40985">
        <ele>928.77</ele>
        <time>2019-08-25T09:34:01Z</time>
      </trkpt>
      <trkpt lat="44.10159" lon="3.40981">
        <ele>929.25</ele>
        <time>2019-08-25T09:34:12Z</time>
      </trkpt>
      <trkpt lat="44.10166" lon="3.40972">
        <ele>926.37</ele>
        <time>2019-08-25T09:34:21Z</time>
      </trkpt>
      <trkpt lat="44.10169" lon="3.40968">
        <ele>924.45</ele>
        <time>2019-08-25T09:34:25Z</time>
      </trkpt>
      <trkpt lat="44.10168" lon="3.40952">
        <ele>923.48</ele>
        <time>2019-08-25T09:34:37Z</time>
      </trkpt>
      <trkpt lat="44.10167" lon="3.40949">
        <ele>923.96</ele>
        <time>2019-08-25T09:34:39Z</time>
      </trkpt>
      <trkpt lat="44.10166" lon="3.40931">
        <ele>923.96</ele>
        <time>2019-08-25T09:34:51Z</time>
      </trkpt>
      <trkpt lat="44.10161" lon="3.40914">
        <ele>925.89</ele>
        <time>2019-08-25T09:35:05Z</time>
      </trkpt>
      <trkpt lat="44.10157" lon="3.40898">
        <ele>927.81</ele>
        <time>2019-08-25T09:35:17Z</time>
      </trkpt>
      <trkpt lat="44.10157" lon="3.40897">
        <ele>928.29</ele>
        <time>2019-08-25T09:35:18Z</time>
      </trkpt>
      <trkpt lat="44.10147" lon="3.40888">
        <ele>928.77</ele>
        <time>2019-08-25T09:35:29Z</time>
      </trkpt>
      <trkpt lat="44.10135" lon="3.4088">
        <ele>928.77</ele>
        <time>2019-08-25T09:35:43Z</time>
      </trkpt>
      <trkpt lat="44.1013" lon="3.40877">
        <ele>928.29</ele>
        <time>2019-08-25T09:35:57Z</time>
      </trkpt>
      <trkpt lat="44.1013" lon="3.40875">
        <ele>929.25</ele>
        <time>2019-08-25T09:36:13Z</time>
      </trkpt>
      <trkpt lat="44.10131" lon="3.40876">
        <ele>929.25</ele>
        <time>2019-08-25T09:36:30Z</time>
      </trkpt>
      <trkpt lat="44.10131" lon="3.40875">
        <ele>926.85</ele>
        <time>2019-08-25T09:36:42Z</time>
      </trkpt>
      <trkpt lat="44.10132" lon="3.40874">
        <ele>924.93</ele>
        <time>2019-08-25T09:37:01Z</time>
      </trkpt>
      <trkpt lat="44.10133" lon="3.40876">
        <ele>928.29</ele>
        <time>2019-08-25T09:37:20Z</time>
      </trkpt>
      <trkpt lat="44.1013" lon="3.40878">
        <ele>929.73</ele>
        <time>2019-08-25T09:37:33Z</time>
      </trkpt>
      <trkpt lat="44.1013" lon="3.4088">
        <ele>932.14</ele>
        <time>2019-08-25T09:37:49Z</time>
      </trkpt>
      <trkpt lat="44.1013" lon="3.40876">
        <ele>934.54</ele>
        <time>2019-08-25T09:38:08Z</time>
      </trkpt>
      <trkpt lat="44.1013" lon="3.40878">
        <ele>933.58</ele>
        <time>2019-08-25T09:38:24Z</time>
      </trkpt>
      <trkpt lat="44.1013" lon="3.40877">
        <ele>933.58</ele>
        <time>2019-08-25T09:38:38Z</time>
      </trkpt>
      <trkpt lat="44.10131" lon="3.40879">
        <ele>934.54</ele>
        <time>2019-08-25T09:39:03Z</time>
      </trkpt>
      <trkpt lat="44.10129" lon="3.4088">
        <ele>934.06</ele>
        <time>2019-08-25T09:39:21Z</time>
      </trkpt>
      <trkpt lat="44.10129" lon="3.40878">
        <ele>932.14</ele>
        <time>2019-08-25T09:39:35Z</time>
      </trkpt>
      <trkpt lat="44.10128" lon="3.4088">
        <ele>934.06</ele>
        <time>2019-08-25T09:39:49Z</time>
      </trkpt>
      <trkpt lat="44.10128" lon="3.40881">
        <ele>935.02</ele>
        <time>2019-08-25T09:40:07Z</time>
      </trkpt>
      <trkpt lat="44.1013" lon="3.40881">
        <ele>935.02</ele>
        <time>2019-08-25T09:40:10Z</time>
      </trkpt>
      <trkpt lat="44.10144" lon="3.40889">
        <ele>935.98</ele>
        <time>2019-08-25T09:40:22Z</time>
      </trkpt>
      <trkpt lat="44.10152" lon="3.40891">
        <ele>935.02</ele>
        <time>2019-08-25T09:40:29Z</time>
      </trkpt>
      <trkpt lat="44.10156" lon="3.40899">
        <ele>933.58</ele>
        <time>2019-08-25T09:40:36Z</time>
      </trkpt>
      <trkpt lat="44.10162" lon="3.40911">
        <ele>934.54</ele>
        <time>2019-08-25T09:40:45Z</time>
      </trkpt>
      <trkpt lat="44.10166" lon="3.40931">
        <ele>932.62</ele>
        <time>2019-08-25T09:40:59Z</time>
      </trkpt>
      <trkpt lat="44.10168" lon="3.40945">
        <ele>930.21</ele>
        <time>2019-08-25T09:41:10Z</time>
      </trkpt>
      <trkpt lat="44.10167" lon="3.40958">
        <ele>929.73</ele>
        <time>2019-08-25T09:41:22Z</time>
      </trkpt>
      <trkpt lat="44.10165" lon="3.40966">
        <ele>929.73</ele>
        <time>2019-08-25T09:41:27Z</time>
      </trkpt>
      <trkpt lat="44.10159" lon="3.40979">
        <ele>931.65</ele>
        <time>2019-08-25T09:41:38Z</time>
      </trkpt>
      <trkpt lat="44.10155" lon="3.40983">
        <ele>932.62</ele>
        <time>2019-08-25T09:41:43Z</time>
      </trkpt>
      <trkpt lat="44.10151" lon="3.40984">
        <ele>933.1</ele>
        <time>2019-08-25T09:41:47Z</time>
      </trkpt>
      <trkpt lat="44.10146" lon="3.40987">
        <ele>933.1</ele>
        <time>2019-08-25T09:41:53Z</time>
      </trkpt>
      <trkpt lat="44.10141" lon="3.40993">
        <ele>934.06</ele>
        <time>2019-08-25T09:42:06Z</time>
      </trkpt>
      <trkpt lat="44.10141" lon="3.40996">
        <ele>934.54</ele>
        <time>2019-08-25T09:42:09Z</time>
      </trkpt>
      <trkpt lat="44.10143" lon="3.41">
        <ele>935.02</ele>
        <time>2019-08-25T09:42:12Z</time>
      </trkpt>
      <trkpt lat="44.10155" lon="3.4101">
        <ele>936.94</ele>
        <time>2019-08-25T09:42:27Z</time>
      </trkpt>
      <trkpt lat="44.10164" lon="3.41019">
        <ele>937.42</ele>
        <time>2019-08-25T09:42:37Z</time>
      </trkpt>
      <trkpt lat="44.10173" lon="3.4103">
        <ele>936.94</ele>
        <time>2019-08-25T09:42:50Z</time>
      </trkpt>
      <trkpt lat="44.10178" lon="3.4104">
        <ele>938.38</ele>
        <time>2019-08-25T09:43:01Z</time>
      </trkpt>
      <trkpt lat="44.10177" lon="3.41042">
        <ele>939.83</ele>
        <time>2019-08-25T09:43:18Z</time>
      </trkpt>
      <trkpt lat="44.10179" lon="3.41045">
        <ele>939.83</ele>
        <time>2019-08-25T09:43:27Z</time>
      </trkpt>
      <trkpt lat="44.10191" lon="3.41049">
        <ele>942.71</ele>
        <time>2019-08-25T09:43:41Z</time>
      </trkpt>
      <trkpt lat="44.10199" lon="3.4105">
        <ele>944.15</ele>
        <time>2019-08-25T09:43:55Z</time>
      </trkpt>
      <trkpt lat="44.10203" lon="3.41049">
        <ele>943.67</ele>
        <time>2019-08-25T09:44:09Z</time>
      </trkpt>
      <trkpt lat="44.10204" lon="3.4105">
        <ele>945.11</ele>
        <time>2019-08-25T09:44:27Z</time>
      </trkpt>
      <trkpt lat="44.10209" lon="3.41059">
        <ele>945.11</ele>
        <time>2019-08-25T09:44:41Z</time>
      </trkpt>
      <trkpt lat="44.10212" lon="3.41069">
        <ele>946.56</ele>
        <time>2019-08-25T09:44:52Z</time>
      </trkpt>
      <trkpt lat="44.10217" lon="3.41077">
        <ele>949.92</ele>
        <time>2019-08-25T09:45:06Z</time>
      </trkpt>
      <trkpt lat="44.10219" lon="3.41087">
        <ele>950.88</ele>
        <time>2019-08-25T09:45:19Z</time>
      </trkpt>
      <trkpt lat="44.10221" lon="3.41091">
        <ele>951.84</ele>
        <time>2019-08-25T09:45:25Z</time>
      </trkpt>
      <trkpt lat="44.10214" lon="3.41096">
        <ele>955.21</ele>
        <time>2019-08-25T09:45:36Z</time>
      </trkpt>
      <trkpt lat="44.10209" lon="3.41102">
        <ele>953.77</ele>
        <time>2019-08-25T09:45:47Z</time>
      </trkpt>
      <trkpt lat="44.10213" lon="3.41109">
        <ele>954.73</ele>
        <time>2019-08-25T09:45:58Z</time>
      </trkpt>
      <trkpt lat="44.1022" lon="3.41121">
        <ele>957.61</ele>
        <time>2019-08-25T09:46:12Z</time>
      </trkpt>
      <trkpt lat="44.10221" lon="3.41135">
        <ele>958.57</ele>
        <time>2019-08-25T09:46:24Z</time>
      </trkpt>
      <trkpt lat="44.10222" lon="3.41136">
        <ele>958.57</ele>
        <time>2019-08-25T09:46:25Z</time>
      </trkpt>
      <trkpt lat="44.10223" lon="3.41144">
        <ele>959.53</ele>
        <time>2019-08-25T09:46:31Z</time>
      </trkpt>
      <trkpt lat="44.10223" lon="3.41148">
        <ele>960.01</ele>
        <time>2019-08-25T09:46:34Z</time>
      </trkpt>
      <trkpt lat="44.10227" lon="3.41163">
        <ele>962.42</ele>
        <time>2019-08-25T09:46:45Z</time>
      </trkpt>
      <trkpt lat="44.10231" lon="3.41168">
        <ele>960.98</ele>
        <time>2019-08-25T09:46:50Z</time>
      </trkpt>
      <trkpt lat="44.10237" lon="3.41182">
        <ele>961.94</ele>
        <time>2019-08-25T09:47:01Z</time>
      </trkpt>
      <trkpt lat="44.10249" lon="3.41194">
        <ele>961.94</ele>
        <time>2019-08-25T09:47:16Z</time>
      </trkpt>
      <trkpt lat="44.10255" lon="3.41195">
        <ele>961.46</ele>
        <time>2019-08-25T09:47:24Z</time>
      </trkpt>
      <trkpt lat="44.10267" lon="3.412">
        <ele>962.42</ele>
        <time>2019-08-25T09:47:37Z</time>
      </trkpt>
      <trkpt lat="44.10268" lon="3.41202">
        <ele>962.42</ele>
        <time>2019-08-25T09:47:39Z</time>
      </trkpt>
      <trkpt lat="44.10273" lon="3.41211">
        <ele>962.9</ele>
        <time>2019-08-25T09:47:50Z</time>
      </trkpt>
      <trkpt lat="44.10275" lon="3.41223">
        <ele>965.3</ele>
        <time>2019-08-25T09:48:00Z</time>
      </trkpt>
      <trkpt lat="44.10275" lon="3.41236">
        <ele>972.03</ele>
        <time>2019-08-25T09:48:11Z</time>
      </trkpt>
      <trkpt lat="44.10273" lon="3.41251">
        <ele>974.43</ele>
        <time>2019-08-25T09:48:23Z</time>
      </trkpt>
      <trkpt lat="44.10273" lon="3.41261">
        <ele>973.95</ele>
        <time>2019-08-25T09:48:34Z</time>
      </trkpt>
      <trkpt lat="44.10274" lon="3.41262">
        <ele>973.95</ele>
        <time>2019-08-25T09:48:36Z</time>
      </trkpt>
      <trkpt lat="44.1027" lon="3.41275">
        <ele>973.95</ele>
        <time>2019-08-25T09:48:48Z</time>
      </trkpt>
      <trkpt lat="44.10269" lon="3.41282">
        <ele>973.95</ele>
        <time>2019-08-25T09:48:53Z</time>
      </trkpt>
      <trkpt lat="44.10268" lon="3.41286">
        <ele>974.43</ele>
        <time>2019-08-25T09:48:56Z</time>
      </trkpt>
      <trkpt lat="44.10264" lon="3.41304">
        <ele>976.84</ele>
        <time>2019-08-25T09:49:10Z</time>
      </trkpt>
      <trkpt lat="44.1026" lon="3.41319">
        <ele>976.36</ele>
        <time>2019-08-25T09:49:21Z</time>
      </trkpt>
      <trkpt lat="44.10259" lon="3.41325">
        <ele>975.88</ele>
        <time>2019-08-25T09:49:26Z</time>
      </trkpt>
      <trkpt lat="44.10253" lon="3.41341">
        <ele>974.43</ele>
        <time>2019-08-25T09:49:40Z</time>
      </trkpt>
      <trkpt lat="44.10249" lon="3.41354">
        <ele>975.39</ele>
        <time>2019-08-25T09:49:52Z</time>
      </trkpt>
      <trkpt lat="44.10243" lon="3.41369">
        <ele>978.76</ele>
        <time>2019-08-25T09:50:06Z</time>
      </trkpt>
      <trkpt lat="44.1024" lon="3.41386">
        <ele>982.12</ele>
        <time>2019-08-25T09:50:18Z</time>
      </trkpt>
      <trkpt lat="44.10237" lon="3.41394">
        <ele>983.57</ele>
        <time>2019-08-25T09:50:24Z</time>
      </trkpt>
      <trkpt lat="44.10235" lon="3.41404">
        <ele>983.57</ele>
        <time>2019-08-25T09:50:35Z</time>
      </trkpt>
      <trkpt lat="44.10233" lon="3.41417">
        <ele>984.53</ele>
        <time>2019-08-25T09:50:47Z</time>
      </trkpt>
      <trkpt lat="44.10231" lon="3.4143">
        <ele>985.97</ele>
        <time>2019-08-25T09:50:57Z</time>
      </trkpt>
      <trkpt lat="44.10228" lon="3.41444">
        <ele>988.85</ele>
        <time>2019-08-25T09:51:08Z</time>
      </trkpt>
      <trkpt lat="44.10225" lon="3.41457">
        <ele>991.74</ele>
        <time>2019-08-25T09:51:19Z</time>
      </trkpt>
      <trkpt lat="44.10222" lon="3.41471">
        <ele>991.74</ele>
        <time>2019-08-25T09:51:32Z</time>
      </trkpt>
      <trkpt lat="44.10218" lon="3.41484">
        <ele>988.85</ele>
        <time>2019-08-25T09:51:45Z</time>
      </trkpt>
      <trkpt lat="44.10217" lon="3.41493">
        <ele>989.81</ele>
        <time>2019-08-25T09:51:52Z</time>
      </trkpt>
      <trkpt lat="44.10215" lon="3.41509">
        <ele>992.7</ele>
        <time>2019-08-25T09:52:04Z</time>
      </trkpt>
      <trkpt lat="44.10212" lon="3.41527">
        <ele>993.66</ele>
        <time>2019-08-25T09:52:17Z</time>
      </trkpt>
      <trkpt lat="44.10206" lon="3.41546">
        <ele>994.62</ele>
        <time>2019-08-25T09:52:31Z</time>
      </trkpt>
      <trkpt lat="44.10205" lon="3.41555">
        <ele>995.58</ele>
        <time>2019-08-25T09:52:38Z</time>
      </trkpt>
      <trkpt lat="44.10198" lon="3.41567">
        <ele>998.47</ele>
        <time>2019-08-25T09:52:51Z</time>
      </trkpt>
      <trkpt lat="44.10194" lon="3.41581">
        <ele>1000.39</ele>
        <time>2019-08-25T09:53:03Z</time>
      </trkpt>
      <trkpt lat="44.10189" lon="3.41594">
        <ele>1002.79</ele>
        <time>2019-08-25T09:53:15Z</time>
      </trkpt>
      <trkpt lat="44.10187" lon="3.41601">
        <ele>1003.27</ele>
        <time>2019-08-25T09:53:21Z</time>
      </trkpt>
      <trkpt lat="44.10181" lon="3.41618">
        <ele>1006.16</ele>
        <time>2019-08-25T09:53:34Z</time>
      </trkpt>
      <trkpt lat="44.10177" lon="3.41633">
        <ele>1009.04</ele>
        <time>2019-08-25T09:53:47Z</time>
      </trkpt>
      <trkpt lat="44.10176" lon="3.41643">
        <ele>1010.48</ele>
        <time>2019-08-25T09:53:54Z</time>
      </trkpt>
      <trkpt lat="44.10175" lon="3.41647">
        <ele>1011.44</ele>
        <time>2019-08-25T09:53:57Z</time>
      </trkpt>
      <trkpt lat="44.10174" lon="3.41662">
        <ele>1013.37</ele>
        <time>2019-08-25T09:54:08Z</time>
      </trkpt>
      <trkpt lat="44.10176" lon="3.41673">
        <ele>1014.81</ele>
        <time>2019-08-25T09:54:16Z</time>
      </trkpt>
      <trkpt lat="44.1018" lon="3.41681">
        <ele>1014.33</ele>
        <time>2019-08-25T09:54:24Z</time>
      </trkpt>
      <trkpt lat="44.10181" lon="3.41692">
        <ele>1011.44</ele>
        <time>2019-08-25T09:54:32Z</time>
      </trkpt>
      <trkpt lat="44.10182" lon="3.41707">
        <ele>1011.44</ele>
        <time>2019-08-25T09:54:40Z</time>
      </trkpt>
      <trkpt lat="44.10184" lon="3.41723">
        <ele>1012.41</ele>
        <time>2019-08-25T09:54:50Z</time>
      </trkpt>
      <trkpt lat="44.10187" lon="3.4173">
        <ele>1013.37</ele>
        <time>2019-08-25T09:54:56Z</time>
      </trkpt>
      <trkpt lat="44.10187" lon="3.41736">
        <ele>1013.37</ele>
        <time>2019-08-25T09:55:00Z</time>
      </trkpt>
      <trkpt lat="44.10188" lon="3.41756">
        <ele>1014.81</ele>
        <time>2019-08-25T09:55:14Z</time>
      </trkpt>
      <trkpt lat="44.10189" lon="3.41772">
        <ele>1014.81</ele>
        <time>2019-08-25T09:55:25Z</time>
      </trkpt>
      <trkpt lat="44.10188" lon="3.41792">
        <ele>1016.25</ele>
        <time>2019-08-25T09:55:37Z</time>
      </trkpt>
      <trkpt lat="44.10186" lon="3.41797">
        <ele>1017.21</ele>
        <time>2019-08-25T09:55:41Z</time>
      </trkpt>
      <trkpt lat="44.10182" lon="3.41813">
        <ele>1019.62</ele>
        <time>2019-08-25T09:55:54Z</time>
      </trkpt>
      <trkpt lat="44.10179" lon="3.41826">
        <ele>1022.02</ele>
        <time>2019-08-25T09:56:05Z</time>
      </trkpt>
      <trkpt lat="44.10175" lon="3.41843">
        <ele>1023.94</ele>
        <time>2019-08-25T09:56:19Z</time>
      </trkpt>
      <trkpt lat="44.10174" lon="3.41851">
        <ele>1022.98</ele>
        <time>2019-08-25T09:56:32Z</time>
      </trkpt>
      <trkpt lat="44.10173" lon="3.41865">
        <ele>1021.06</ele>
        <time>2019-08-25T09:56:45Z</time>
      </trkpt>
      <trkpt lat="44.10171" lon="3.41877">
        <ele>1025.38</ele>
        <time>2019-08-25T09:56:56Z</time>
      </trkpt>
      <trkpt lat="44.1017" lon="3.41899">
        <ele>1032.11</ele>
        <time>2019-08-25T09:57:09Z</time>
      </trkpt>
      <trkpt lat="44.10173" lon="3.4191">
        <ele>1034.04</ele>
        <time>2019-08-25T09:57:22Z</time>
      </trkpt>
      <trkpt lat="44.10178" lon="3.4192">
        <ele>1034.04</ele>
        <time>2019-08-25T09:57:33Z</time>
      </trkpt>
      <trkpt lat="44.10184" lon="3.4193">
        <ele>1037.4</ele>
        <time>2019-08-25T09:57:43Z</time>
      </trkpt>
      <trkpt lat="44.10194" lon="3.4193">
        <ele>1042.21</ele>
        <time>2019-08-25T09:57:55Z</time>
      </trkpt>
      <trkpt lat="44.10201" lon="3.41929">
        <ele>1044.61</ele>
        <time>2019-08-25T09:58:09Z</time>
      </trkpt>
      <trkpt lat="44.102" lon="3.41931">
        <ele>1046.53</ele>
        <time>2019-08-25T09:58:23Z</time>
      </trkpt>
      <trkpt lat="44.10199" lon="3.41931">
        <ele>1046.05</ele>
        <time>2019-08-25T09:58:24Z</time>
      </trkpt>
      <trkpt lat="44.10191" lon="3.41937">
        <ele>1046.53</ele>
        <time>2019-08-25T09:58:38Z</time>
      </trkpt>
      <trkpt lat="44.10184" lon="3.41943">
        <ele>1047.97</ele>
        <time>2019-08-25T09:58:49Z</time>
      </trkpt>
      <trkpt lat="44.10172" lon="3.41956">
        <ele>1048.94</ele>
        <time>2019-08-25T09:59:06Z</time>
      </trkpt>
      <trkpt lat="44.10168" lon="3.41958">
        <ele>1049.42</ele>
        <time>2019-08-25T09:59:10Z</time>
      </trkpt>
      <trkpt lat="44.10158" lon="3.41973">
        <ele>1050.38</ele>
        <time>2019-08-25T09:59:22Z</time>
      </trkpt>
      <trkpt lat="44.10154" lon="3.41986">
        <ele>1048.45</ele>
        <time>2019-08-25T09:59:35Z</time>
      </trkpt>
      <trkpt lat="44.10151" lon="3.41997">
        <ele>1047.97</ele>
        <time>2019-08-25T09:59:45Z</time>
      </trkpt>
      <trkpt lat="44.10141" lon="3.42014">
        <ele>1051.34</ele>
        <time>2019-08-25T09:59:55Z</time>
      </trkpt>
      <trkpt lat="44.10138" lon="3.42019">
        <ele>1051.34</ele>
        <time>2019-08-25T10:00:05Z</time>
      </trkpt>
      <trkpt lat="44.10132" lon="3.42039">
        <ele>1053.26</ele>
        <time>2019-08-25T10:00:20Z</time>
      </trkpt>
      <trkpt lat="44.10128" lon="3.42052">
        <ele>1059.03</ele>
        <time>2019-08-25T10:00:31Z</time>
      </trkpt>
      <trkpt lat="44.10125" lon="3.42061">
        <ele>1063.84</ele>
        <time>2019-08-25T10:00:41Z</time>
      </trkpt>
      <trkpt lat="44.10123" lon="3.42069">
        <ele>1063.84</ele>
        <time>2019-08-25T10:00:51Z</time>
      </trkpt>
      <trkpt lat="44.10114" lon="3.42081">
        <ele>1062.87</ele>
        <time>2019-08-25T10:01:05Z</time>
      </trkpt>
      <trkpt lat="44.1011" lon="3.4209">
        <ele>1064.32</ele>
        <time>2019-08-25T10:01:15Z</time>
      </trkpt>
      <trkpt lat="44.10102" lon="3.42115">
        <ele>1070.08</ele>
        <time>2019-08-25T10:01:28Z</time>
      </trkpt>
      <trkpt lat="44.10103" lon="3.42126">
        <ele>1068.64</ele>
        <time>2019-08-25T10:01:40Z</time>
      </trkpt>
      <trkpt lat="44.10098" lon="3.42144">
        <ele>1067.2</ele>
        <time>2019-08-25T10:01:54Z</time>
      </trkpt>
      <trkpt lat="44.10093" lon="3.42162">
        <ele>1071.05</ele>
        <time>2019-08-25T10:02:09Z</time>
      </trkpt>
      <trkpt lat="44.10085" lon="3.42176">
        <ele>1075.85</ele>
        <time>2019-08-25T10:02:22Z</time>
      </trkpt>
      <trkpt lat="44.10077" lon="3.4219">
        <ele>1079.22</ele>
        <time>2019-08-25T10:02:35Z</time>
      </trkpt>
      <trkpt lat="44.1007" lon="3.42198">
        <ele>1081.14</ele>
        <time>2019-08-25T10:02:46Z</time>
      </trkpt>
      <trkpt lat="44.10062" lon="3.4221">
        <ele>1084.99</ele>
        <time>2019-08-25T10:02:59Z</time>
      </trkpt>
      <trkpt lat="44.10056" lon="3.42219">
        <ele>1087.87</ele>
        <time>2019-08-25T10:03:09Z</time>
      </trkpt>
      <trkpt lat="44.10049" lon="3.42232">
        <ele>1089.79</ele>
        <time>2019-08-25T10:03:21Z</time>
      </trkpt>
      <trkpt lat="44.10049" lon="3.42243">
        <ele>1089.79</ele>
        <time>2019-08-25T10:03:32Z</time>
      </trkpt>
      <trkpt lat="44.10043" lon="3.42244">
        <ele>1088.35</ele>
        <time>2019-08-25T10:03:43Z</time>
      </trkpt>
      <trkpt lat="44.10033" lon="3.42254">
        <ele>1088.35</ele>
        <time>2019-08-25T10:03:58Z</time>
      </trkpt>
      <trkpt lat="44.10028" lon="3.42262">
        <ele>1089.31</ele>
        <time>2019-08-25T10:04:09Z</time>
      </trkpt>
      <trkpt lat="44.10023" lon="3.42274">
        <ele>1091.71</ele>
        <time>2019-08-25T10:04:20Z</time>
      </trkpt>
      <trkpt lat="44.10012" lon="3.42291">
        <ele>1097.96</ele>
        <time>2019-08-25T10:04:36Z</time>
      </trkpt>
      <trkpt lat="44.09999" lon="3.42306">
        <ele>1101.81</ele>
        <time>2019-08-25T10:04:51Z</time>
      </trkpt>
      <trkpt lat="44.09991" lon="3.42317">
        <ele>1102.29</ele>
        <time>2019-08-25T10:05:05Z</time>
      </trkpt>
      <trkpt lat="44.09983" lon="3.42326">
        <ele>1101.81</ele>
        <time>2019-08-25T10:05:17Z</time>
      </trkpt>
      <trkpt lat="44.09974" lon="3.42336">
        <ele>1102.77</ele>
        <time>2019-08-25T10:05:30Z</time>
      </trkpt>
      <trkpt lat="44.09964" lon="3.42348">
        <ele>1103.73</ele>
        <time>2019-08-25T10:05:41Z</time>
      </trkpt>
      <trkpt lat="44.09954" lon="3.42357">
        <ele>1104.21</ele>
        <time>2019-08-25T10:05:55Z</time>
      </trkpt>
      <trkpt lat="44.09944" lon="3.42371">
        <ele>1103.25</ele>
        <time>2019-08-25T10:06:07Z</time>
      </trkpt>
      <trkpt lat="44.09935" lon="3.42387">
        <ele>1103.73</ele>
        <time>2019-08-25T10:06:24Z</time>
      </trkpt>
      <trkpt lat="44.09937" lon="3.42387">
        <ele>1099.4</ele>
        <time>2019-08-25T10:06:44Z</time>
      </trkpt>
      <trkpt lat="44.09934" lon="3.42381">
        <ele>1103.25</ele>
        <time>2019-08-25T10:07:04Z</time>
      </trkpt>
      <trkpt lat="44.0993" lon="3.42385">
        <ele>1107.1</ele>
        <time>2019-08-25T10:07:19Z</time>
      </trkpt>
      <trkpt lat="44.09927" lon="3.42393">
        <ele>1107.58</ele>
        <time>2019-08-25T10:07:34Z</time>
      </trkpt>
      <trkpt lat="44.0992" lon="3.42406">
        <ele>1107.1</ele>
        <time>2019-08-25T10:07:46Z</time>
      </trkpt>
      <trkpt lat="44.09913" lon="3.42415">
        <ele>1106.13</ele>
        <time>2019-08-25T10:07:57Z</time>
      </trkpt>
      <trkpt lat="44.09904" lon="3.42429">
        <ele>1106.13</ele>
        <time>2019-08-25T10:08:12Z</time>
      </trkpt>
      <trkpt lat="44.09892" lon="3.42443">
        <ele>1109.5</ele>
        <time>2019-08-25T10:08:27Z</time>
      </trkpt>
      <trkpt lat="44.09881" lon="3.4246">
        <ele>1114.79</ele>
        <time>2019-08-25T10:08:40Z</time>
      </trkpt>
      <trkpt lat="44.09869" lon="3.42469">
        <ele>1113.82</ele>
        <time>2019-08-25T10:08:54Z</time>
      </trkpt>
      <trkpt lat="44.09858" lon="3.42478">
        <ele>1110.94</ele>
        <time>2019-08-25T10:09:07Z</time>
      </trkpt>
      <trkpt lat="44.09847" lon="3.42491">
        <ele>1110.94</ele>
        <time>2019-08-25T10:09:19Z</time>
      </trkpt>
      <trkpt lat="44.09836" lon="3.42502">
        <ele>1111.42</ele>
        <time>2019-08-25T10:09:32Z</time>
      </trkpt>
      <trkpt lat="44.09826" lon="3.42511">
        <ele>1111.42</ele>
        <time>2019-08-25T10:09:42Z</time>
      </trkpt>
      <trkpt lat="44.09814" lon="3.42524">
        <ele>1109.98</ele>
        <time>2019-08-25T10:09:54Z</time>
      </trkpt>
      <trkpt lat="44.09801" lon="3.42538">
        <ele>1109.5</ele>
        <time>2019-08-25T10:10:07Z</time>
      </trkpt>
      <trkpt lat="44.09793" lon="3.42548">
        <ele>1109.5</ele>
        <time>2019-08-25T10:10:20Z</time>
      </trkpt>
      <trkpt lat="44.09779" lon="3.42566">
        <ele>1112.38</ele>
        <time>2019-08-25T10:10:34Z</time>
      </trkpt>
      <trkpt lat="44.09777" lon="3.42569">
        <ele>1112.38</ele>
        <time>2019-08-25T10:10:37Z</time>
      </trkpt>
      <trkpt lat="44.09767" lon="3.42582">
        <ele>1111.42</ele>
        <time>2019-08-25T10:10:51Z</time>
      </trkpt>
      <trkpt lat="44.09758" lon="3.42593">
        <ele>1111.9</ele>
        <time>2019-08-25T10:11:02Z</time>
      </trkpt>
      <trkpt lat="44.09743" lon="3.42606">
        <ele>1115.27</ele>
        <time>2019-08-25T10:11:16Z</time>
      </trkpt>
      <trkpt lat="44.0973" lon="3.42614">
        <ele>1115.27</ele>
        <time>2019-08-25T10:11:30Z</time>
      </trkpt>
      <trkpt lat="44.0972" lon="3.42623">
        <ele>1117.67</ele>
        <time>2019-08-25T10:11:41Z</time>
      </trkpt>
      <trkpt lat="44.09703" lon="3.42633">
        <ele>1119.59</ele>
        <time>2019-08-25T10:11:56Z</time>
      </trkpt>
      <trkpt lat="44.09692" lon="3.4264">
        <ele>1119.59</ele>
        <time>2019-08-25T10:12:07Z</time>
      </trkpt>
      <trkpt lat="44.09683" lon="3.42648">
        <ele>1119.59</ele>
        <time>2019-08-25T10:12:16Z</time>
      </trkpt>
      <trkpt lat="44.0967" lon="3.42654">
        <ele>1115.75</ele>
        <time>2019-08-25T10:12:30Z</time>
      </trkpt>
      <trkpt lat="44.09663" lon="3.42661">
        <ele>1113.82</ele>
        <time>2019-08-25T10:12:38Z</time>
      </trkpt>
      <trkpt lat="44.09647" lon="3.42668">
        <ele>1116.23</ele>
        <time>2019-08-25T10:12:53Z</time>
      </trkpt>
      <trkpt lat="44.09633" lon="3.42678">
        <ele>1120.55</ele>
        <time>2019-08-25T10:13:08Z</time>
      </trkpt>
      <trkpt lat="44.0962" lon="3.42684">
        <ele>1124.88</ele>
        <time>2019-08-25T10:13:21Z</time>
      </trkpt>
      <trkpt lat="44.0961" lon="3.42693">
        <ele>1127.28</ele>
        <time>2019-08-25T10:13:34Z</time>
      </trkpt>
      <trkpt lat="44.09597" lon="3.42699">
        <ele>1130.17</ele>
        <time>2019-08-25T10:13:46Z</time>
      </trkpt>
      <trkpt lat="44.09594" lon="3.42701">
        <ele>1131.13</ele>
        <time>2019-08-25T10:13:50Z</time>
      </trkpt>
      <trkpt lat="44.09591" lon="3.42704">
        <ele>1132.09</ele>
        <time>2019-08-25T10:13:55Z</time>
      </trkpt>
      <trkpt lat="44.09587" lon="3.42706">
        <ele>1134.01</ele>
        <time>2019-08-25T10:13:59Z</time>
      </trkpt>
      <trkpt lat="44.09575" lon="3.42712">
        <ele>1137.38</ele>
        <time>2019-08-25T10:14:12Z</time>
      </trkpt>
      <trkpt lat="44.09562" lon="3.42721">
        <ele>1137.38</ele>
        <time>2019-08-25T10:14:26Z</time>
      </trkpt>
      <trkpt lat="44.09557" lon="3.42724">
        <ele>1137.38</ele>
        <time>2019-08-25T10:14:30Z</time>
      </trkpt>
      <trkpt lat="44.09543" lon="3.42731">
        <ele>1139.3</ele>
        <time>2019-08-25T10:14:44Z</time>
      </trkpt>
      <trkpt lat="44.09529" lon="3.4274">
        <ele>1138.82</ele>
        <time>2019-08-25T10:14:58Z</time>
      </trkpt>
      <trkpt lat="44.09519" lon="3.42745">
        <ele>1140.26</ele>
        <time>2019-08-25T10:15:11Z</time>
      </trkpt>
      <trkpt lat="44.09506" lon="3.42751">
        <ele>1140.74</ele>
        <time>2019-08-25T10:15:23Z</time>
      </trkpt>
      <trkpt lat="44.09493" lon="3.42759">
        <ele>1143.63</ele>
        <time>2019-08-25T10:15:36Z</time>
      </trkpt>
      <trkpt lat="44.0949" lon="3.42769">
        <ele>1141.7</ele>
        <time>2019-08-25T10:15:46Z</time>
      </trkpt>
      <trkpt lat="44.09483" lon="3.4279">
        <ele>1142.18</ele>
        <time>2019-08-25T10:16:00Z</time>
      </trkpt>
      <trkpt lat="44.09479" lon="3.42793">
        <ele>1141.7</ele>
        <time>2019-08-25T10:16:05Z</time>
      </trkpt>
      <trkpt lat="44.09472" lon="3.42801">
        <ele>1140.26</ele>
        <time>2019-08-25T10:16:14Z</time>
      </trkpt>
      <trkpt lat="44.09463" lon="3.42814">
        <ele>1141.22</ele>
        <time>2019-08-25T10:16:25Z</time>
      </trkpt>
      <trkpt lat="44.09457" lon="3.42828">
        <ele>1143.14</ele>
        <time>2019-08-25T10:16:36Z</time>
      </trkpt>
      <trkpt lat="44.09447" lon="3.42845">
        <ele>1142.66</ele>
        <time>2019-08-25T10:16:48Z</time>
      </trkpt>
      <trkpt lat="44.09441" lon="3.42856">
        <ele>1141.7</ele>
        <time>2019-08-25T10:16:57Z</time>
      </trkpt>
      <trkpt lat="44.09433" lon="3.42869">
        <ele>1138.82</ele>
        <time>2019-08-25T10:17:10Z</time>
      </trkpt>
      <trkpt lat="44.09429" lon="3.42874">
        <ele>1139.3</ele>
        <time>2019-08-25T10:17:17Z</time>
      </trkpt>
      <trkpt lat="44.09414" lon="3.42892">
        <ele>1144.11</ele>
        <time>2019-08-25T10:17:29Z</time>
      </trkpt>
      <trkpt lat="44.09406" lon="3.42904">
        <ele>1146.03</ele>
        <time>2019-08-25T10:17:40Z</time>
      </trkpt>
      <trkpt lat="44.09397" lon="3.42919">
        <ele>1146.51</ele>
        <time>2019-08-25T10:17:52Z</time>
      </trkpt>
      <trkpt lat="44.09384" lon="3.42939">
        <ele>1146.99</ele>
        <time>2019-08-25T10:18:06Z</time>
      </trkpt>
      <trkpt lat="44.09371" lon="3.42953">
        <ele>1144.59</ele>
        <time>2019-08-25T10:18:20Z</time>
      </trkpt>
      <trkpt lat="44.09357" lon="3.4296">
        <ele>1145.07</ele>
        <time>2019-08-25T10:18:34Z</time>
      </trkpt>
      <trkpt lat="44.09348" lon="3.4297">
        <ele>1144.59</ele>
        <time>2019-08-25T10:18:47Z</time>
      </trkpt>
      <trkpt lat="44.09341" lon="3.42981">
        <ele>1144.59</ele>
        <time>2019-08-25T10:18:58Z</time>
      </trkpt>
      <trkpt lat="44.0933" lon="3.42999">
        <ele>1145.55</ele>
        <time>2019-08-25T10:19:11Z</time>
      </trkpt>
      <trkpt lat="44.09322" lon="3.43011">
        <ele>1144.59</ele>
        <time>2019-08-25T10:19:22Z</time>
      </trkpt>
      <trkpt lat="44.09314" lon="3.43019">
        <ele>1142.66</ele>
        <time>2019-08-25T10:19:34Z</time>
      </trkpt>
      <trkpt lat="44.09306" lon="3.43033">
        <ele>1143.63</ele>
        <time>2019-08-25T10:19:47Z</time>
      </trkpt>
      <trkpt lat="44.09298" lon="3.43049">
        <ele>1144.59</ele>
        <time>2019-08-25T10:19:59Z</time>
      </trkpt>
      <trkpt lat="44.09292" lon="3.43063">
        <ele>1147.47</ele>
        <time>2019-08-25T10:20:12Z</time>
      </trkpt>
      <trkpt lat="44.09289" lon="3.43067">
        <ele>1148.43</ele>
        <time>2019-08-25T10:20:16Z</time>
      </trkpt>
      <trkpt lat="44.09282" lon="3.43076">
        <ele>1153.24</ele>
        <time>2019-08-25T10:20:27Z</time>
      </trkpt>
      <trkpt lat="44.09275" lon="3.43092">
        <ele>1157.08</ele>
        <time>2019-08-25T10:20:40Z</time>
      </trkpt>
      <trkpt lat="44.09275" lon="3.43104">
        <ele>1158.05</ele>
        <time>2019-08-25T10:20:51Z</time>
      </trkpt>
      <trkpt lat="44.09275" lon="3.4311">
        <ele>1160.45</ele>
        <time>2019-08-25T10:21:06Z</time>
      </trkpt>
      <trkpt lat="44.09276" lon="3.43105">
        <ele>1160.45</ele>
        <time>2019-08-25T10:21:21Z</time>
      </trkpt>
      <trkpt lat="44.09276" lon="3.43104">
        <ele>1164.77</ele>
        <time>2019-08-25T10:21:51Z</time>
      </trkpt>
      <trkpt lat="44.09274" lon="3.43107">
        <ele>1162.85</ele>
        <time>2019-08-25T10:22:09Z</time>
      </trkpt>
      <trkpt lat="44.0927" lon="3.4311">
        <ele>1165.74</ele>
        <time>2019-08-25T10:22:37Z</time>
      </trkpt>
      <trkpt lat="44.09274" lon="3.4312">
        <ele>1167.66</ele>
        <time>2019-08-25T10:22:56Z</time>
      </trkpt>
      <trkpt lat="44.09273" lon="3.43136">
        <ele>1167.18</ele>
        <time>2019-08-25T10:23:10Z</time>
      </trkpt>
      <trkpt lat="44.09267" lon="3.43146">
        <ele>1166.22</ele>
        <time>2019-08-25T10:23:21Z</time>
      </trkpt>
      <trkpt lat="44.0926" lon="3.43149">
        <ele>1167.18</ele>
        <time>2019-08-25T10:23:35Z</time>
      </trkpt>
      <trkpt lat="44.09258" lon="3.43136">
        <ele>1167.18</ele>
        <time>2019-08-25T10:23:48Z</time>
      </trkpt>
      <trkpt lat="44.09253" lon="3.43119">
        <ele>1168.62</ele>
        <time>2019-08-25T10:24:00Z</time>
      </trkpt>
      <trkpt lat="44.09248" lon="3.43104">
        <ele>1168.62</ele>
        <time>2019-08-25T10:24:13Z</time>
      </trkpt>
      <trkpt lat="44.09247" lon="3.43102">
        <ele>1169.58</ele>
        <time>2019-08-25T10:24:15Z</time>
      </trkpt>
      <trkpt lat="44.09237" lon="3.43097">
        <ele>1171.98</ele>
        <time>2019-08-25T10:24:29Z</time>
      </trkpt>
      <trkpt lat="44.09234" lon="3.43102">
        <ele>1174.87</ele>
        <time>2019-08-25T10:24:43Z</time>
      </trkpt>
      <trkpt lat="44.09234" lon="3.43111">
        <ele>1177.75</ele>
        <time>2019-08-25T10:24:54Z</time>
      </trkpt>
      <trkpt lat="44.09232" lon="3.43117">
        <ele>1177.75</ele>
        <time>2019-08-25T10:24:58Z</time>
      </trkpt>
      <trkpt lat="44.09233" lon="3.43124">
        <ele>1179.67</ele>
        <time>2019-08-25T10:25:12Z</time>
      </trkpt>
      <trkpt lat="44.09233" lon="3.43131">
        <ele>1181.12</ele>
        <time>2019-08-25T10:25:27Z</time>
      </trkpt>
      <trkpt lat="44.09235" lon="3.43143">
        <ele>1181.12</ele>
        <time>2019-08-25T10:25:42Z</time>
      </trkpt>
      <trkpt lat="44.09232" lon="3.43128">
        <ele>1179.67</ele>
        <time>2019-08-25T10:25:55Z</time>
      </trkpt>
      <trkpt lat="44.09231" lon="3.43125">
        <ele>1176.79</ele>
        <time>2019-08-25T10:26:01Z</time>
      </trkpt>
      <trkpt lat="44.09219" lon="3.43121">
        <ele>1178.71</ele>
        <time>2019-08-25T10:26:15Z</time>
      </trkpt>
      <trkpt lat="44.09211" lon="3.43128">
        <ele>1176.79</ele>
        <time>2019-08-25T10:26:27Z</time>
      </trkpt>
      <trkpt lat="44.09203" lon="3.4314">
        <ele>1181.6</ele>
        <time>2019-08-25T10:26:39Z</time>
      </trkpt>
      <trkpt lat="44.09198" lon="3.43148">
        <ele>1185.44</ele>
        <time>2019-08-25T10:26:50Z</time>
      </trkpt>
      <trkpt lat="44.09196" lon="3.43152">
        <ele>1185.92</ele>
        <time>2019-08-25T10:26:55Z</time>
      </trkpt>
      <trkpt lat="44.09188" lon="3.43165">
        <ele>1184.48</ele>
        <time>2019-08-25T10:27:06Z</time>
      </trkpt>
      <trkpt lat="44.0918" lon="3.43166">
        <ele>1183.52</ele>
        <time>2019-08-25T10:27:16Z</time>
      </trkpt>
      <trkpt lat="44.09175" lon="3.43179">
        <ele>1187.85</ele>
        <time>2019-08-25T10:27:29Z</time>
      </trkpt>
      <trkpt lat="44.09171" lon="3.43194">
        <ele>1190.25</ele>
        <time>2019-08-25T10:27:43Z</time>
      </trkpt>
      <trkpt lat="44.09163" lon="3.43189">
        <ele>1190.73</ele>
        <time>2019-08-25T10:27:53Z</time>
      </trkpt>
      <trkpt lat="44.09148" lon="3.43186">
        <ele>1189.77</ele>
        <time>2019-08-25T10:28:07Z</time>
      </trkpt>
      <trkpt lat="44.09135" lon="3.43186">
        <ele>1188.81</ele>
        <time>2019-08-25T10:28:20Z</time>
      </trkpt>
      <trkpt lat="44.0913" lon="3.4319">
        <ele>1189.29</ele>
        <time>2019-08-25T10:28:30Z</time>
      </trkpt>
      <trkpt lat="44.09128" lon="3.43196">
        <ele>1191.69</ele>
        <time>2019-08-25T10:28:38Z</time>
      </trkpt>
      <trkpt lat="44.09131" lon="3.43208">
        <ele>1192.17</ele>
        <time>2019-08-25T10:28:51Z</time>
      </trkpt>
      <trkpt lat="44.0913" lon="3.43218">
        <ele>1191.69</ele>
        <time>2019-08-25T10:29:03Z</time>
      </trkpt>
      <trkpt lat="44.09123" lon="3.43232">
        <ele>1192.65</ele>
        <time>2019-08-25T10:29:15Z</time>
      </trkpt>
      <trkpt lat="44.09118" lon="3.43239">
        <ele>1195.06</ele>
        <time>2019-08-25T10:29:26Z</time>
      </trkpt>
      <trkpt lat="44.09109" lon="3.43248">
        <ele>1196.98</ele>
        <time>2019-08-25T10:29:40Z</time>
      </trkpt>
      <trkpt lat="44.09102" lon="3.43258">
        <ele>1201.3</ele>
        <time>2019-08-25T10:29:52Z</time>
      </trkpt>
      <trkpt lat="44.09101" lon="3.43264">
        <ele>1202.75</ele>
        <time>2019-08-25T10:29:56Z</time>
      </trkpt>
      <trkpt lat="44.09098" lon="3.43276">
        <ele>1202.75</ele>
        <time>2019-08-25T10:30:07Z</time>
      </trkpt>
      <trkpt lat="44.09092" lon="3.43288">
        <ele>1206.11</ele>
        <time>2019-08-25T10:30:18Z</time>
      </trkpt>
      <trkpt lat="44.09089" lon="3.43305">
        <ele>1205.63</ele>
        <time>2019-08-25T10:30:30Z</time>
      </trkpt>
      <trkpt lat="44.09086" lon="3.4332">
        <ele>1208.03</ele>
        <time>2019-08-25T10:30:44Z</time>
      </trkpt>
      <trkpt lat="44.09082" lon="3.43335">
        <ele>1209.96</ele>
        <time>2019-08-25T10:30:54Z</time>
      </trkpt>
      <trkpt lat="44.0908" lon="3.43339">
        <ele>1210.92</ele>
        <time>2019-08-25T10:30:57Z</time>
      </trkpt>
      <trkpt lat="44.09072" lon="3.43348">
        <ele>1212.36</ele>
        <time>2019-08-25T10:31:08Z</time>
      </trkpt>
      <trkpt lat="44.09059" lon="3.43349">
        <ele>1214.28</ele>
        <time>2019-08-25T10:31:20Z</time>
      </trkpt>
      <trkpt lat="44.09051" lon="3.43355">
        <ele>1215.72</ele>
        <time>2019-08-25T10:31:33Z</time>
      </trkpt>
      <trkpt lat="44.09037" lon="3.43363">
        <ele>1215.72</ele>
        <time>2019-08-25T10:31:49Z</time>
      </trkpt>
      <trkpt lat="44.09028" lon="3.43367">
        <ele>1216.21</ele>
        <time>2019-08-25T10:32:05Z</time>
      </trkpt>
      <trkpt lat="44.09026" lon="3.43366">
        <ele>1218.61</ele>
        <time>2019-08-25T10:32:27Z</time>
      </trkpt>
      <trkpt lat="44.09023" lon="3.43373">
        <ele>1220.53</ele>
        <time>2019-08-25T10:32:44Z</time>
      </trkpt>
      <trkpt lat="44.09013" lon="3.43378">
        <ele>1219.09</ele>
        <time>2019-08-25T10:32:56Z</time>
      </trkpt>
      <trkpt lat="44.08995" lon="3.43384">
        <ele>1224.38</ele>
        <time>2019-08-25T10:33:12Z</time>
      </trkpt>
      <trkpt lat="44.08991" lon="3.43385">
        <ele>1221.01</ele>
        <time>2019-08-25T10:33:22Z</time>
      </trkpt>
      <trkpt lat="44.08981" lon="3.43393">
        <ele>1216.69</ele>
        <time>2019-08-25T10:33:35Z</time>
      </trkpt>
      <trkpt lat="44.08971" lon="3.43416">
        <ele>1219.57</ele>
        <time>2019-08-25T10:33:50Z</time>
      </trkpt>
      <trkpt lat="44.08963" lon="3.4343">
        <ele>1219.09</ele>
        <time>2019-08-25T10:34:03Z</time>
      </trkpt>
      <trkpt lat="44.0896" lon="3.43434">
        <ele>1221.01</ele>
        <time>2019-08-25T10:34:07Z</time>
      </trkpt>
      <trkpt lat="44.08955" lon="3.43444">
        <ele>1221.49</ele>
        <time>2019-08-25T10:34:19Z</time>
      </trkpt>
      <trkpt lat="44.08949" lon="3.43449">
        <ele>1221.97</ele>
        <time>2019-08-25T10:34:31Z</time>
      </trkpt>
      <trkpt lat="44.08943" lon="3.43463">
        <ele>1223.9</ele>
        <time>2019-08-25T10:34:43Z</time>
      </trkpt>
      <trkpt lat="44.08937" lon="3.43487">
        <ele>1228.22</ele>
        <time>2019-08-25T10:34:55Z</time>
      </trkpt>
      <trkpt lat="44.08925" lon="3.43502">
        <ele>1226.78</ele>
        <time>2019-08-25T10:35:11Z</time>
      </trkpt>
      <trkpt lat="44.08919" lon="3.43507">
        <ele>1224.86</ele>
        <time>2019-08-25T10:35:23Z</time>
      </trkpt>
      <trkpt lat="44.08914" lon="3.43511">
        <ele>1224.86</ele>
        <time>2019-08-25T10:35:27Z</time>
      </trkpt>
      <trkpt lat="44.08904" lon="3.43521">
        <ele>1230.14</ele>
        <time>2019-08-25T10:35:40Z</time>
      </trkpt>
      <trkpt lat="44.08898" lon="3.43539">
        <ele>1233.51</ele>
        <time>2019-08-25T10:35:53Z</time>
      </trkpt>
      <trkpt lat="44.08891" lon="3.43553">
        <ele>1234.47</ele>
        <time>2019-08-25T10:36:05Z</time>
      </trkpt>
      <trkpt lat="44.08879" lon="3.43568">
        <ele>1233.99</ele>
        <time>2019-08-25T10:36:17Z</time>
      </trkpt>
      <trkpt lat="44.08866" lon="3.43578">
        <ele>1234.95</ele>
        <time>2019-08-25T10:36:29Z</time>
      </trkpt>
      <trkpt lat="44.08856" lon="3.43581">
        <ele>1234.95</ele>
        <time>2019-08-25T10:36:42Z</time>
      </trkpt>
      <trkpt lat="44.08837" lon="3.43591">
        <ele>1237.35</ele>
        <time>2019-08-25T10:36:57Z</time>
      </trkpt>
      <trkpt lat="44.08827" lon="3.43606">
        <ele>1239.76</ele>
        <time>2019-08-25T10:37:12Z</time>
      </trkpt>
      <trkpt lat="44.08816" lon="3.43622">
        <ele>1241.68</ele>
        <time>2019-08-25T10:37:25Z</time>
      </trkpt>
      <trkpt lat="44.08803" lon="3.43632">
        <ele>1242.64</ele>
        <time>2019-08-25T10:37:36Z</time>
      </trkpt>
      <trkpt lat="44.08792" lon="3.4364">
        <ele>1240.72</ele>
        <time>2019-08-25T10:37:48Z</time>
      </trkpt>
      <trkpt lat="44.08782" lon="3.43649">
        <ele>1238.32</ele>
        <time>2019-08-25T10:38:00Z</time>
      </trkpt>
      <trkpt lat="44.08767" lon="3.4366">
        <ele>1240.24</ele>
        <time>2019-08-25T10:38:14Z</time>
      </trkpt>
      <trkpt lat="44.08756" lon="3.43667">
        <ele>1243.12</ele>
        <time>2019-08-25T10:38:27Z</time>
      </trkpt>
      <trkpt lat="44.08743" lon="3.43676">
        <ele>1242.64</ele>
        <time>2019-08-25T10:38:41Z</time>
      </trkpt>
      <trkpt lat="44.08731" lon="3.43684">
        <ele>1240.72</ele>
        <time>2019-08-25T10:38:55Z</time>
      </trkpt>
      <trkpt lat="44.08721" lon="3.43691">
        <ele>1240.72</ele>
        <time>2019-08-25T10:39:04Z</time>
      </trkpt>
      <trkpt lat="44.08706" lon="3.43707">
        <ele>1240.24</ele>
        <time>2019-08-25T10:39:19Z</time>
      </trkpt>
      <trkpt lat="44.08691" lon="3.43715">
        <ele>1238.32</ele>
        <time>2019-08-25T10:39:31Z</time>
      </trkpt>
      <trkpt lat="44.08687" lon="3.43718">
        <ele>1237.83</ele>
        <time>2019-08-25T10:39:38Z</time>
      </trkpt>
      <trkpt lat="44.08667" lon="3.43731">
        <ele>1243.12</ele>
        <time>2019-08-25T10:39:54Z</time>
      </trkpt>
      <trkpt lat="44.08654" lon="3.43741">
        <ele>1246.97</ele>
        <time>2019-08-25T10:40:06Z</time>
      </trkpt>
      <trkpt lat="44.08635" lon="3.43752">
        <ele>1248.89</ele>
        <time>2019-08-25T10:40:22Z</time>
      </trkpt>
      <trkpt lat="44.08623" lon="3.43757">
        <ele>1250.33</ele>
        <time>2019-08-25T10:40:33Z</time>
      </trkpt>
      <trkpt lat="44.08607" lon="3.43761">
        <ele>1250.33</ele>
        <time>2019-08-25T10:40:47Z</time>
      </trkpt>
      <trkpt lat="44.0859" lon="3.43765">
        <ele>1252.25</ele>
        <time>2019-08-25T10:41:00Z</time>
      </trkpt>
      <trkpt lat="44.0858" lon="3.4377">
        <ele>1253.7</ele>
        <time>2019-08-25T10:41:10Z</time>
      </trkpt>
      <trkpt lat="44.08565" lon="3.43774">
        <ele>1255.14</ele>
        <time>2019-08-25T10:41:23Z</time>
      </trkpt>
      <trkpt lat="44.08551" lon="3.43778">
        <ele>1255.14</ele>
        <time>2019-08-25T10:41:37Z</time>
      </trkpt>
      <trkpt lat="44.08547" lon="3.4378">
        <ele>1255.62</ele>
        <time>2019-08-25T10:41:41Z</time>
      </trkpt>
      <trkpt lat="44.08535" lon="3.43785">
        <ele>1255.14</ele>
        <time>2019-08-25T10:41:54Z</time>
      </trkpt>
      <trkpt lat="44.08525" lon="3.43787">
        <ele>1254.66</ele>
        <time>2019-08-25T10:42:05Z</time>
      </trkpt>
      <trkpt lat="44.08513" lon="3.43795">
        <ele>1256.58</ele>
        <time>2019-08-25T10:42:18Z</time>
      </trkpt>
      <trkpt lat="44.08501" lon="3.43804">
        <ele>1259.94</ele>
        <time>2019-08-25T10:42:30Z</time>
      </trkpt>
      <trkpt lat="44.08487" lon="3.43815">
        <ele>1261.87</ele>
        <time>2019-08-25T10:42:45Z</time>
      </trkpt>
      <trkpt lat="44.08477" lon="3.43833">
        <ele>1262.35</ele>
        <time>2019-08-25T10:42:59Z</time>
      </trkpt>
      <trkpt lat="44.08467" lon="3.4385">
        <ele>1263.31</ele>
        <time>2019-08-25T10:43:11Z</time>
      </trkpt>
      <trkpt lat="44.08458" lon="3.43859">
        <ele>1264.75</ele>
        <time>2019-08-25T10:43:23Z</time>
      </trkpt>
      <trkpt lat="44.08449" lon="3.43874">
        <ele>1264.75</ele>
        <time>2019-08-25T10:43:35Z</time>
      </trkpt>
      <trkpt lat="44.08442" lon="3.43888">
        <ele>1265.23</ele>
        <time>2019-08-25T10:43:48Z</time>
      </trkpt>
      <trkpt lat="44.08432" lon="3.43908">
        <ele>1266.19</ele>
        <time>2019-08-25T10:44:00Z</time>
      </trkpt>
      <trkpt lat="44.08425" lon="3.43929">
        <ele>1268.6</ele>
        <time>2019-08-25T10:44:13Z</time>
      </trkpt>
      <trkpt lat="44.08422" lon="3.43944">
        <ele>1270.04</ele>
        <time>2019-08-25T10:44:24Z</time>
      </trkpt>
      <trkpt lat="44.08419" lon="3.43953">
        <ele>1270.52</ele>
        <time>2019-08-25T10:44:35Z</time>
      </trkpt>
      <trkpt lat="44.08415" lon="3.43962">
        <ele>1267.16</ele>
        <time>2019-08-25T10:44:48Z</time>
      </trkpt>
      <trkpt lat="44.08408" lon="3.43982">
        <ele>1265.23</ele>
        <time>2019-08-25T10:45:01Z</time>
      </trkpt>
      <trkpt lat="44.08402" lon="3.43996">
        <ele>1264.75</ele>
        <time>2019-08-25T10:45:07Z</time>
      </trkpt>
      <trkpt lat="44.08396" lon="3.44009">
        <ele>1265.23</ele>
        <time>2019-08-25T10:45:19Z</time>
      </trkpt>
      <trkpt lat="44.08393" lon="3.44025">
        <ele>1266.19</ele>
        <time>2019-08-25T10:45:32Z</time>
      </trkpt>
      <trkpt lat="44.0839" lon="3.44039">
        <ele>1267.64</ele>
        <time>2019-08-25T10:45:45Z</time>
      </trkpt>
      <trkpt lat="44.0839" lon="3.44043">
        <ele>1268.12</ele>
        <time>2019-08-25T10:45:59Z</time>
      </trkpt>
      <trkpt lat="44.0839" lon="3.44046">
        <ele>1268.12</ele>
        <time>2019-08-25T10:46:21Z</time>
      </trkpt>
      <trkpt lat="44.08388" lon="3.4404">
        <ele>1269.56</ele>
        <time>2019-08-25T10:46:47Z</time>
      </trkpt>
      <trkpt lat="44.08388" lon="3.44041">
        <ele>1271.96</ele>
        <time>2019-08-25T10:47:16Z</time>
      </trkpt>
      <trkpt lat="44.08387" lon="3.44044">
        <ele>1272.44</ele>
        <time>2019-08-25T10:47:35Z</time>
      </trkpt>
      <trkpt lat="44.08388" lon="3.44039">
        <ele>1277.25</ele>
        <time>2019-08-25T10:47:57Z</time>
      </trkpt>
      <trkpt lat="44.08386" lon="3.4404">
        <ele>1284.46</ele>
        <time>2019-08-25T10:48:29Z</time>
      </trkpt>
      <trkpt lat="44.08385" lon="3.4404">
        <ele>1285.42</ele>
        <time>2019-08-25T10:49:04Z</time>
      </trkpt>
      <trkpt lat="44.08385" lon="3.4404">
        <ele>1278.69</ele>
        <time>2019-08-25T10:49:34Z</time>
      </trkpt>
      <trkpt lat="44.08385" lon="3.44047">
        <ele>1277.25</ele>
        <time>2019-08-25T10:50:04Z</time>
      </trkpt>
      <trkpt lat="44.08388" lon="3.44043">
        <ele>1278.21</ele>
        <time>2019-08-25T10:50:28Z</time>
      </trkpt>
      <trkpt lat="44.08387" lon="3.44043">
        <ele>1277.25</ele>
        <time>2019-08-25T10:50:57Z</time>
      </trkpt>
      <trkpt lat="44.08381" lon="3.44041">
        <ele>1279.65</ele>
        <time>2019-08-25T10:51:26Z</time>
      </trkpt>
      <trkpt lat="44.08386" lon="3.44049">
        <ele>1279.65</ele>
        <time>2019-08-25T10:51:45Z</time>
      </trkpt>
      <trkpt lat="44.08387" lon="3.44044">
        <ele>1280.61</ele>
        <time>2019-08-25T10:52:23Z</time>
      </trkpt>
      <trkpt lat="44.08388" lon="3.44047">
        <ele>1278.21</ele>
        <time>2019-08-25T10:52:59Z</time>
      </trkpt>
      <trkpt lat="44.08386" lon="3.44049">
        <ele>1273.88</ele>
        <time>2019-08-25T10:53:33Z</time>
      </trkpt>
      <trkpt lat="44.0839" lon="3.44049">
        <ele>1268.6</ele>
        <time>2019-08-25T10:54:12Z</time>
      </trkpt>
      <trkpt lat="44.08389" lon="3.4405">
        <ele>1271.48</ele>
        <time>2019-08-25T10:54:50Z</time>
      </trkpt>
      <trkpt lat="44.08385" lon="3.44052">
        <ele>1280.13</ele>
        <time>2019-08-25T10:55:32Z</time>
      </trkpt>
      <trkpt lat="44.08382" lon="3.4405">
        <ele>1281.57</ele>
        <time>2019-08-25T10:56:05Z</time>
      </trkpt>
      <trkpt lat="44.08385" lon="3.44051">
        <ele>1282.54</ele>
        <time>2019-08-25T10:56:42Z</time>
      </trkpt>
      <trkpt lat="44.08385" lon="3.44046">
        <ele>1283.5</ele>
        <time>2019-08-25T10:57:29Z</time>
      </trkpt>
      <trkpt lat="44.08388" lon="3.44052">
        <ele>1282.54</ele>
        <time>2019-08-25T10:58:10Z</time>
      </trkpt>
      <trkpt lat="44.08389" lon="3.44049">
        <ele>1284.46</ele>
        <time>2019-08-25T10:58:48Z</time>
      </trkpt>
      <trkpt lat="44.08388" lon="3.4405">
        <ele>1283.98</ele>
        <time>2019-08-25T10:59:13Z</time>
      </trkpt>
      <trkpt lat="44.08382" lon="3.44061">
        <ele>1281.57</ele>
        <time>2019-08-25T10:59:41Z</time>
      </trkpt>
      <trkpt lat="44.08384" lon="3.44052">
        <ele>1280.61</ele>
        <time>2019-08-25T11:00:09Z</time>
      </trkpt>
      <trkpt lat="44.08382" lon="3.4406">
        <ele>1278.21</ele>
        <time>2019-08-25T11:00:45Z</time>
      </trkpt>
      <trkpt lat="44.08383" lon="3.44061">
        <ele>1275.33</ele>
        <time>2019-08-25T11:01:21Z</time>
      </trkpt>
      <trkpt lat="44.08384" lon="3.44054">
        <ele>1275.81</ele>
        <time>2019-08-25T11:01:57Z</time>
      </trkpt>
      <trkpt lat="44.08388" lon="3.44052">
        <ele>1277.25</ele>
        <time>2019-08-25T11:02:33Z</time>
      </trkpt>
      <trkpt lat="44.08389" lon="3.44049">
        <ele>1274.85</ele>
        <time>2019-08-25T11:03:07Z</time>
      </trkpt>
      <trkpt lat="44.08389" lon="3.44047">
        <ele>1274.36</ele>
        <time>2019-08-25T11:03:37Z</time>
      </trkpt>
      <trkpt lat="44.08389" lon="3.44046">
        <ele>1273.88</ele>
        <time>2019-08-25T11:04:11Z</time>
      </trkpt>
      <trkpt lat="44.08388" lon="3.44044">
        <ele>1278.21</ele>
        <time>2019-08-25T11:04:37Z</time>
      </trkpt>
      <trkpt lat="44.08388" lon="3.44046">
        <ele>1276.29</ele>
        <time>2019-08-25T11:04:52Z</time>
      </trkpt>
      <trkpt lat="44.08392" lon="3.44046">
        <ele>1275.81</ele>
        <time>2019-08-25T11:05:13Z</time>
      </trkpt>
      <trkpt lat="44.08393" lon="3.44043">
        <ele>1272.92</ele>
        <time>2019-08-25T11:05:49Z</time>
      </trkpt>
      <trkpt lat="44.08389" lon="3.44043">
        <ele>1271.96</ele>
        <time>2019-08-25T11:06:19Z</time>
      </trkpt>
      <trkpt lat="44.08392" lon="3.44045">
        <ele>1268.12</ele>
        <time>2019-08-25T11:06:53Z</time>
      </trkpt>
      <trkpt lat="44.08388" lon="3.44045">
        <ele>1271.48</ele>
        <time>2019-08-25T11:07:29Z</time>
      </trkpt>
      <trkpt lat="44.08388" lon="3.44039">
        <ele>1280.13</ele>
        <time>2019-08-25T11:08:05Z</time>
      </trkpt>
      <trkpt lat="44.08386" lon="3.44044">
        <ele>1280.61</ele>
        <time>2019-08-25T11:08:28Z</time>
      </trkpt>
      <trkpt lat="44.08389" lon="3.44049">
        <ele>1276.77</ele>
        <time>2019-08-25T11:09:07Z</time>
      </trkpt>
      <trkpt lat="44.08388" lon="3.44052">
        <ele>1272.92</ele>
        <time>2019-08-25T11:09:38Z</time>
      </trkpt>
      <trkpt lat="44.08388" lon="3.44052">
        <ele>1271.96</ele>
        <time>2019-08-25T11:10:07Z</time>
      </trkpt>
      <trkpt lat="44.0839" lon="3.44048">
        <ele>1271</ele>
        <time>2019-08-25T11:10:46Z</time>
      </trkpt>
      <trkpt lat="44.0839" lon="3.44044">
        <ele>1274.85</ele>
        <time>2019-08-25T11:11:19Z</time>
      </trkpt>
      <trkpt lat="44.08393" lon="3.44044">
        <ele>1281.09</ele>
        <time>2019-08-25T11:11:55Z</time>
      </trkpt>
      <trkpt lat="44.08397" lon="3.4404">
        <ele>1275.81</ele>
        <time>2019-08-25T11:12:30Z</time>
      </trkpt>
      <trkpt lat="44.08395" lon="3.44039">
        <ele>1280.13</ele>
        <time>2019-08-25T11:13:13Z</time>
      </trkpt>
      <trkpt lat="44.0839" lon="3.44044">
        <ele>1276.77</ele>
        <time>2019-08-25T11:13:50Z</time>
      </trkpt>
      <trkpt lat="44.08389" lon="3.44045">
        <ele>1277.25</ele>
        <time>2019-08-25T11:14:18Z</time>
      </trkpt>
      <trkpt lat="44.08383" lon="3.44057">
        <ele>1276.29</ele>
        <time>2019-08-25T11:14:58Z</time>
      </trkpt>
      <trkpt lat="44.08389" lon="3.44049">
        <ele>1266.19</ele>
        <time>2019-08-25T11:15:38Z</time>
      </trkpt>
      <trkpt lat="44.08393" lon="3.44047">
        <ele>1264.75</ele>
        <time>2019-08-25T11:16:17Z</time>
      </trkpt>
      <trkpt lat="44.08391" lon="3.44046">
        <ele>1263.31</ele>
        <time>2019-08-25T11:16:53Z</time>
      </trkpt>
      <trkpt lat="44.08393" lon="3.44048">
        <ele>1264.75</ele>
        <time>2019-08-25T11:17:31Z</time>
      </trkpt>
      <trkpt lat="44.08387" lon="3.44045">
        <ele>1272.92</ele>
        <time>2019-08-25T11:18:15Z</time>
      </trkpt>
      <trkpt lat="44.08381" lon="3.44051">
        <ele>1268.12</ele>
        <time>2019-08-25T11:18:57Z</time>
      </trkpt>
      <trkpt lat="44.0839" lon="3.44045">
        <ele>1268.12</ele>
        <time>2019-08-25T11:19:46Z</time>
      </trkpt>
      <trkpt lat="44.08392" lon="3.44046">
        <ele>1270.52</ele>
        <time>2019-08-25T11:20:24Z</time>
      </trkpt>
      <trkpt lat="44.08387" lon="3.44044">
        <ele>1273.88</ele>
        <time>2019-08-25T11:21:00Z</time>
      </trkpt>
      <trkpt lat="44.08392" lon="3.44043">
        <ele>1269.56</ele>
        <time>2019-08-25T11:21:40Z</time>
      </trkpt>
      <trkpt lat="44.08385" lon="3.44043">
        <ele>1272.44</ele>
        <time>2019-08-25T11:22:21Z</time>
      </trkpt>
      <trkpt lat="44.08388" lon="3.44046">
        <ele>1274.36</ele>
        <time>2019-08-25T11:22:59Z</time>
      </trkpt>
      <trkpt lat="44.08392" lon="3.44042">
        <ele>1274.85</ele>
        <time>2019-08-25T11:23:36Z</time>
      </trkpt>
      <trkpt lat="44.0839" lon="3.44045">
        <ele>1276.29</ele>
        <time>2019-08-25T11:23:55Z</time>
      </trkpt>
      <trkpt lat="44.08387" lon="3.44044">
        <ele>1276.29</ele>
        <time>2019-08-25T11:24:16Z</time>
      </trkpt>
      <trkpt lat="44.08385" lon="3.44039">
        <ele>1275.33</ele>
        <time>2019-08-25T11:24:32Z</time>
      </trkpt>
      <trkpt lat="44.08383" lon="3.44039">
        <ele>1276.29</ele>
        <time>2019-08-25T11:24:34Z</time>
      </trkpt>
      <trkpt lat="44.08371" lon="3.44035">
        <ele>1279.65</ele>
        <time>2019-08-25T11:24:45Z</time>
      </trkpt>
      <trkpt lat="44.08368" lon="3.4404">
        <ele>1279.65</ele>
        <time>2019-08-25T11:24:58Z</time>
      </trkpt>
      <trkpt lat="44.0837" lon="3.44043">
        <ele>1277.73</ele>
        <time>2019-08-25T11:25:31Z</time>
      </trkpt>
      <trkpt lat="44.08364" lon="3.4404">
        <ele>1275.81</ele>
        <time>2019-08-25T11:25:50Z</time>
      </trkpt>
      <trkpt lat="44.0836" lon="3.44041">
        <ele>1274.85</ele>
        <time>2019-08-25T11:26:03Z</time>
      </trkpt>
      <trkpt lat="44.08356" lon="3.44042">
        <ele>1273.88</ele>
        <time>2019-08-25T11:26:11Z</time>
      </trkpt>
      <trkpt lat="44.08347" lon="3.44046">
        <ele>1276.77</ele>
        <time>2019-08-25T11:26:24Z</time>
      </trkpt>
      <trkpt lat="44.08337" lon="3.44049">
        <ele>1277.73</ele>
        <time>2019-08-25T11:26:35Z</time>
      </trkpt>
      <trkpt lat="44.08323" lon="3.44056">
        <ele>1279.17</ele>
        <time>2019-08-25T11:26:49Z</time>
      </trkpt>
      <trkpt lat="44.08307" lon="3.44065">
        <ele>1280.13</ele>
        <time>2019-08-25T11:27:05Z</time>
      </trkpt>
      <trkpt lat="44.08304" lon="3.44068">
        <ele>1280.13</ele>
        <time>2019-08-25T11:27:08Z</time>
      </trkpt>
      <trkpt lat="44.08298" lon="3.4407">
        <ele>1280.13</ele>
        <time>2019-08-25T11:27:14Z</time>
      </trkpt>
      <trkpt lat="44.08286" lon="3.4408">
        <ele>1279.65</ele>
        <time>2019-08-25T11:27:27Z</time>
      </trkpt>
      <trkpt lat="44.08282" lon="3.44083">
        <ele>1280.13</ele>
        <time>2019-08-25T11:27:32Z</time>
      </trkpt>
      <trkpt lat="44.08277" lon="3.44089">
        <ele>1280.13</ele>
        <time>2019-08-25T11:27:38Z</time>
      </trkpt>
      <trkpt lat="44.08265" lon="3.44106">
        <ele>1280.61</ele>
        <time>2019-08-25T11:27:54Z</time>
      </trkpt>
      <trkpt lat="44.08265" lon="3.44107">
        <ele>1280.61</ele>
        <time>2019-08-25T11:27:55Z</time>
      </trkpt>
      <trkpt lat="44.08262" lon="3.44112">
        <ele>1281.57</ele>
        <time>2019-08-25T11:28:08Z</time>
      </trkpt>
      <trkpt lat="44.08258" lon="3.44115">
        <ele>1280.13</ele>
        <time>2019-08-25T11:28:25Z</time>
      </trkpt>
      <trkpt lat="44.08256" lon="3.44118">
        <ele>1278.69</ele>
        <time>2019-08-25T11:28:38Z</time>
      </trkpt>
      <trkpt lat="44.08248" lon="3.44127">
        <ele>1278.69</ele>
        <time>2019-08-25T11:28:51Z</time>
      </trkpt>
      <trkpt lat="44.08246" lon="3.4413">
        <ele>1277.73</ele>
        <time>2019-08-25T11:29:05Z</time>
      </trkpt>
      <trkpt lat="44.08237" lon="3.44141">
        <ele>1276.29</ele>
        <time>2019-08-25T11:29:19Z</time>
      </trkpt>
      <trkpt lat="44.08232" lon="3.44142">
        <ele>1275.81</ele>
        <time>2019-08-25T11:29:29Z</time>
      </trkpt>
      <trkpt lat="44.08233" lon="3.44141">
        <ele>1276.77</ele>
        <time>2019-08-25T11:29:46Z</time>
      </trkpt>
      <trkpt lat="44.08233" lon="3.44141">
        <ele>1276.77</ele>
        <time>2019-08-25T11:30:03Z</time>
      </trkpt>
      <trkpt lat="44.08231" lon="3.44143">
        <ele>1278.69</ele>
        <time>2019-08-25T11:30:27Z</time>
      </trkpt>
      <trkpt lat="44.08229" lon="3.44148">
        <ele>1275.81</ele>
        <time>2019-08-25T11:30:45Z</time>
      </trkpt>
      <trkpt lat="44.08231" lon="3.44147">
        <ele>1275.81</ele>
        <time>2019-08-25T11:31:00Z</time>
      </trkpt>
      <trkpt lat="44.08232" lon="3.44149">
        <ele>1275.33</ele>
        <time>2019-08-25T11:31:13Z</time>
      </trkpt>
      <trkpt lat="44.08232" lon="3.44149">
        <ele>1276.77</ele>
        <time>2019-08-25T11:31:31Z</time>
      </trkpt>
      <trkpt lat="44.08231" lon="3.44149">
        <ele>1276.77</ele>
        <time>2019-08-25T11:32:02Z</time>
      </trkpt>
      <trkpt lat="44.08229" lon="3.44157">
        <ele>1274.36</ele>
        <time>2019-08-25T11:32:12Z</time>
      </trkpt>
      <trkpt lat="44.0823" lon="3.44161">
        <ele>1274.36</ele>
        <time>2019-08-25T11:32:15Z</time>
      </trkpt>
      <trkpt lat="44.08229" lon="3.44164">
        <ele>1273.88</ele>
        <time>2019-08-25T11:32:18Z</time>
      </trkpt>
      <trkpt lat="44.0823" lon="3.44172">
        <ele>1272.92</ele>
        <time>2019-08-25T11:32:23Z</time>
      </trkpt>
      <trkpt lat="44.0823" lon="3.44175">
        <ele>1272.92</ele>
        <time>2019-08-25T11:32:26Z</time>
      </trkpt>
      <trkpt lat="44.0823" lon="3.44182">
        <ele>1272.44</ele>
        <time>2019-08-25T11:32:31Z</time>
      </trkpt>
      <trkpt lat="44.08232" lon="3.44193">
        <ele>1272.44</ele>
        <time>2019-08-25T11:32:40Z</time>
      </trkpt>
      <trkpt lat="44.08234" lon="3.44202">
        <ele>1271.96</ele>
        <time>2019-08-25T11:32:47Z</time>
      </trkpt>
      <trkpt lat="44.08235" lon="3.44209">
        <ele>1271.96</ele>
        <time>2019-08-25T11:32:52Z</time>
      </trkpt>
      <trkpt lat="44.08236" lon="3.44214">
        <ele>1271.96</ele>
        <time>2019-08-25T11:32:55Z</time>
      </trkpt>
      <trkpt lat="44.08236" lon="3.44218">
        <ele>1271.48</ele>
        <time>2019-08-25T11:32:58Z</time>
      </trkpt>
      <trkpt lat="44.0824" lon="3.44232">
        <ele>1270.04</ele>
        <time>2019-08-25T11:33:12Z</time>
      </trkpt>
      <trkpt lat="44.08239" lon="3.4424">
        <ele>1269.08</ele>
        <time>2019-08-25T11:33:21Z</time>
      </trkpt>
      <trkpt lat="44.08234" lon="3.44243">
        <ele>1267.16</ele>
        <time>2019-08-25T11:33:30Z</time>
      </trkpt>
      <trkpt lat="44.08229" lon="3.44237">
        <ele>1266.67</ele>
        <time>2019-08-25T11:33:37Z</time>
      </trkpt>
      <trkpt lat="44.08226" lon="3.44236">
        <ele>1266.67</ele>
        <time>2019-08-25T11:33:40Z</time>
      </trkpt>
      <trkpt lat="44.08218" lon="3.44227">
        <ele>1265.71</ele>
        <time>2019-08-25T11:33:53Z</time>
      </trkpt>
      <trkpt lat="44.08215" lon="3.44225">
        <ele>1265.23</ele>
        <time>2019-08-25T11:33:56Z</time>
      </trkpt>
      <trkpt lat="44.08212" lon="3.44221">
        <ele>1262.83</ele>
        <time>2019-08-25T11:34:08Z</time>
      </trkpt>
      <trkpt lat="44.08208" lon="3.44214">
        <ele>1259.94</ele>
        <time>2019-08-25T11:34:18Z</time>
      </trkpt>
      <trkpt lat="44.08199" lon="3.44208">
        <ele>1258.98</ele>
        <time>2019-08-25T11:34:30Z</time>
      </trkpt>
      <trkpt lat="44.08197" lon="3.4421">
        <ele>1258.5</ele>
        <time>2019-08-25T11:34:33Z</time>
      </trkpt>
      <trkpt lat="44.08198" lon="3.44218">
        <ele>1256.1</ele>
        <time>2019-08-25T11:34:39Z</time>
      </trkpt>
      <trkpt lat="44.08201" lon="3.44227">
        <ele>1252.74</ele>
        <time>2019-08-25T11:34:50Z</time>
      </trkpt>
      <trkpt lat="44.08201" lon="3.44232">
        <ele>1252.74</ele>
        <time>2019-08-25T11:34:57Z</time>
      </trkpt>
      <trkpt lat="44.08203" lon="3.44236">
        <ele>1251.77</ele>
        <time>2019-08-25T11:35:01Z</time>
      </trkpt>
      <trkpt lat="44.08204" lon="3.44243">
        <ele>1251.29</ele>
        <time>2019-08-25T11:35:06Z</time>
      </trkpt>
      <trkpt lat="44.08203" lon="3.44248">
        <ele>1250.33</ele>
        <time>2019-08-25T11:35:10Z</time>
      </trkpt>
      <trkpt lat="44.08205" lon="3.44254">
        <ele>1249.85</ele>
        <time>2019-08-25T11:35:14Z</time>
      </trkpt>
      <trkpt lat="44.08206" lon="3.44264">
        <ele>1248.41</ele>
        <time>2019-08-25T11:35:21Z</time>
      </trkpt>
      <trkpt lat="44.08208" lon="3.44271">
        <ele>1246.97</ele>
        <time>2019-08-25T11:35:27Z</time>
      </trkpt>
      <trkpt lat="44.08209" lon="3.44277">
        <ele>1246.01</ele>
        <time>2019-08-25T11:35:32Z</time>
      </trkpt>
      <trkpt lat="44.08211" lon="3.44293">
        <ele>1245.04</ele>
        <time>2019-08-25T11:35:44Z</time>
      </trkpt>
      <trkpt lat="44.08211" lon="3.44298">
        <ele>1244.08</ele>
        <time>2019-08-25T11:35:48Z</time>
      </trkpt>
      <trkpt lat="44.08212" lon="3.4431">
        <ele>1241.2</ele>
        <time>2019-08-25T11:35:58Z</time>
      </trkpt>
      <trkpt lat="44.08212" lon="3.44324">
        <ele>1238.8</ele>
        <time>2019-08-25T11:36:10Z</time>
      </trkpt>
      <trkpt lat="44.0821" lon="3.44331">
        <ele>1237.35</ele>
        <time>2019-08-25T11:36:16Z</time>
      </trkpt>
      <trkpt lat="44.08208" lon="3.44344">
        <ele>1235.91</ele>
        <time>2019-08-25T11:36:25Z</time>
      </trkpt>
      <trkpt lat="44.08208" lon="3.44347">
        <ele>1235.91</ele>
        <time>2019-08-25T11:36:28Z</time>
      </trkpt>
      <trkpt lat="44.08205" lon="3.44359">
        <ele>1234.47</ele>
        <time>2019-08-25T11:36:37Z</time>
      </trkpt>
      <trkpt lat="44.08203" lon="3.44371">
        <ele>1232.07</ele>
        <time>2019-08-25T11:36:47Z</time>
      </trkpt>
      <trkpt lat="44.08203" lon="3.44379">
        <ele>1231.59</ele>
        <time>2019-08-25T11:36:53Z</time>
      </trkpt>
      <trkpt lat="44.08202" lon="3.44383">
        <ele>1230.62</ele>
        <time>2019-08-25T11:36:56Z</time>
      </trkpt>
      <trkpt lat="44.08202" lon="3.44389">
        <ele>1229.66</ele>
        <time>2019-08-25T11:37:01Z</time>
      </trkpt>
      <trkpt lat="44.082" lon="3.44405">
        <ele>1226.78</ele>
        <time>2019-08-25T11:37:13Z</time>
      </trkpt>
      <trkpt lat="44.08196" lon="3.44415">
        <ele>1225.82</ele>
        <time>2019-08-25T11:37:22Z</time>
      </trkpt>
      <trkpt lat="44.08193" lon="3.44418">
        <ele>1225.82</ele>
        <time>2019-08-25T11:37:26Z</time>
      </trkpt>
      <trkpt lat="44.0819" lon="3.44416">
        <ele>1225.34</ele>
        <time>2019-08-25T11:37:29Z</time>
      </trkpt>
      <trkpt lat="44.08189" lon="3.44411">
        <ele>1223.9</ele>
        <time>2019-08-25T11:37:33Z</time>
      </trkpt>
      <trkpt lat="44.08189" lon="3.44405">
        <ele>1221.49</ele>
        <time>2019-08-25T11:37:38Z</time>
      </trkpt>
      <trkpt lat="44.08187" lon="3.44401">
        <ele>1220.53</ele>
        <time>2019-08-25T11:37:41Z</time>
      </trkpt>
      <trkpt lat="44.08183" lon="3.44387">
        <ele>1218.13</ele>
        <time>2019-08-25T11:37:53Z</time>
      </trkpt>
      <trkpt lat="44.08176" lon="3.4437">
        <ele>1214.76</ele>
        <time>2019-08-25T11:38:06Z</time>
      </trkpt>
      <trkpt lat="44.08171" lon="3.44355">
        <ele>1212.84</ele>
        <time>2019-08-25T11:38:20Z</time>
      </trkpt>
      <trkpt lat="44.0817" lon="3.44357">
        <ele>1211.88</ele>
        <time>2019-08-25T11:38:22Z</time>
      </trkpt>
      <trkpt lat="44.08167" lon="3.44365">
        <ele>1210.92</ele>
        <time>2019-08-25T11:38:29Z</time>
      </trkpt>
      <trkpt lat="44.08164" lon="3.44381">
        <ele>1210.44</ele>
        <time>2019-08-25T11:38:42Z</time>
      </trkpt>
      <trkpt lat="44.08162" lon="3.44396">
        <ele>1207.55</ele>
        <time>2019-08-25T11:38:54Z</time>
      </trkpt>
      <trkpt lat="44.08159" lon="3.44397">
        <ele>1207.55</ele>
        <time>2019-08-25T11:38:57Z</time>
      </trkpt>
      <trkpt lat="44.08152" lon="3.44385">
        <ele>1205.15</ele>
        <time>2019-08-25T11:39:10Z</time>
      </trkpt>
      <trkpt lat="44.0815" lon="3.4438">
        <ele>1204.19</ele>
        <time>2019-08-25T11:39:14Z</time>
      </trkpt>
      <trkpt lat="44.08146" lon="3.44373">
        <ele>1203.23</ele>
        <time>2019-08-25T11:39:21Z</time>
      </trkpt>
      <trkpt lat="44.0814" lon="3.44358">
        <ele>1199.38</ele>
        <time>2019-08-25T11:39:34Z</time>
      </trkpt>
      <trkpt lat="44.08134" lon="3.44346">
        <ele>1194.09</ele>
        <time>2019-08-25T11:39:46Z</time>
      </trkpt>
      <trkpt lat="44.08129" lon="3.44336">
        <ele>1193.61</ele>
        <time>2019-08-25T11:39:53Z</time>
      </trkpt>
      <trkpt lat="44.08115" lon="3.4433">
        <ele>1194.09</ele>
        <time>2019-08-25T11:40:06Z</time>
      </trkpt>
      <trkpt lat="44.08112" lon="3.44327">
        <ele>1194.09</ele>
        <time>2019-08-25T11:40:09Z</time>
      </trkpt>
      <trkpt lat="44.08107" lon="3.44326">
        <ele>1193.61</ele>
        <time>2019-08-25T11:40:22Z</time>
      </trkpt>
      <trkpt lat="44.08108" lon="3.4433">
        <ele>1192.65</ele>
        <time>2019-08-25T11:40:25Z</time>
      </trkpt>
      <trkpt lat="44.08109" lon="3.44333">
        <ele>1192.17</ele>
        <time>2019-08-25T11:40:27Z</time>
      </trkpt>
      <trkpt lat="44.08108" lon="3.44337">
        <ele>1190.25</ele>
        <time>2019-08-25T11:40:31Z</time>
      </trkpt>
      <trkpt lat="44.08101" lon="3.44339">
        <ele>1189.77</ele>
        <time>2019-08-25T11:40:37Z</time>
      </trkpt>
      <trkpt lat="44.08086" lon="3.44337">
        <ele>1188.81</ele>
        <time>2019-08-25T11:40:52Z</time>
      </trkpt>
      <trkpt lat="44.08081" lon="3.44335">
        <ele>1187.85</ele>
        <time>2019-08-25T11:40:58Z</time>
      </trkpt>
      <trkpt lat="44.08075" lon="3.44337">
        <ele>1186.88</ele>
        <time>2019-08-25T11:41:05Z</time>
      </trkpt>
      <trkpt lat="44.08058" lon="3.4434">
        <ele>1184.48</ele>
        <time>2019-08-25T11:41:20Z</time>
      </trkpt>
      <trkpt lat="44.08056" lon="3.4434">
        <ele>1184.96</ele>
        <time>2019-08-25T11:41:22Z</time>
      </trkpt>
      <trkpt lat="44.08053" lon="3.44339">
        <ele>1184</ele>
        <time>2019-08-25T11:41:26Z</time>
      </trkpt>
      <trkpt lat="44.08041" lon="3.44336">
        <ele>1182.08</ele>
        <time>2019-08-25T11:41:40Z</time>
      </trkpt>
      <trkpt lat="44.08038" lon="3.44337">
        <ele>1182.08</ele>
        <time>2019-08-25T11:41:43Z</time>
      </trkpt>
      <trkpt lat="44.08041" lon="3.44345">
        <ele>1179.67</ele>
        <time>2019-08-25T11:41:49Z</time>
      </trkpt>
      <trkpt lat="44.08051" lon="3.44352">
        <ele>1176.31</ele>
        <time>2019-08-25T11:42:02Z</time>
      </trkpt>
      <trkpt lat="44.08053" lon="3.44354">
        <ele>1176.31</ele>
        <time>2019-08-25T11:42:04Z</time>
      </trkpt>
      <trkpt lat="44.08055" lon="3.44358">
        <ele>1175.35</ele>
        <time>2019-08-25T11:42:08Z</time>
      </trkpt>
      <trkpt lat="44.08058" lon="3.44361">
        <ele>1174.87</ele>
        <time>2019-08-25T11:42:12Z</time>
      </trkpt>
      <trkpt lat="44.08053" lon="3.44367">
        <ele>1173.43</ele>
        <time>2019-08-25T11:42:21Z</time>
      </trkpt>
      <trkpt lat="44.08051" lon="3.44366">
        <ele>1173.43</ele>
        <time>2019-08-25T11:42:24Z</time>
      </trkpt>
      <trkpt lat="44.08039" lon="3.44366">
        <ele>1171.02</ele>
        <time>2019-08-25T11:42:38Z</time>
      </trkpt>
      <trkpt lat="44.08038" lon="3.44368">
        <ele>1170.54</ele>
        <time>2019-08-25T11:42:41Z</time>
      </trkpt>
      <trkpt lat="44.08035" lon="3.44372">
        <ele>1170.54</ele>
        <time>2019-08-25T11:42:45Z</time>
      </trkpt>
      <trkpt lat="44.08036" lon="3.44374">
        <ele>1170.06</ele>
        <time>2019-08-25T11:42:47Z</time>
      </trkpt>
      <trkpt lat="44.0804" lon="3.44377">
        <ele>1168.62</ele>
        <time>2019-08-25T11:42:52Z</time>
      </trkpt>
      <trkpt lat="44.08043" lon="3.44381">
        <ele>1167.18</ele>
        <time>2019-08-25T11:42:56Z</time>
      </trkpt>
      <trkpt lat="44.08048" lon="3.44393">
        <ele>1162.85</ele>
        <time>2019-08-25T11:43:08Z</time>
      </trkpt>
      <trkpt lat="44.0805" lon="3.44402">
        <ele>1160.45</ele>
        <time>2019-08-25T11:43:18Z</time>
      </trkpt>
      <trkpt lat="44.0805" lon="3.44402">
        <ele>1160.45</ele>
        <time>2019-08-25T11:43:20Z</time>
      </trkpt>
      <trkpt lat="44.08048" lon="3.44406">
        <ele>1159.49</ele>
        <time>2019-08-25T11:43:26Z</time>
      </trkpt>
      <trkpt lat="44.08041" lon="3.44401">
        <ele>1157.56</ele>
        <time>2019-08-25T11:43:38Z</time>
      </trkpt>
      <trkpt lat="44.08034" lon="3.44397">
        <ele>1154.68</ele>
        <time>2019-08-25T11:43:49Z</time>
      </trkpt>
      <trkpt lat="44.0803" lon="3.44396">
        <ele>1153.72</ele>
        <time>2019-08-25T11:43:54Z</time>
      </trkpt>
      <trkpt lat="44.08028" lon="3.44395">
        <ele>1152.76</ele>
        <time>2019-08-25T11:43:56Z</time>
      </trkpt>
      <trkpt lat="44.08023" lon="3.44395">
        <ele>1152.76</ele>
        <time>2019-08-25T11:44:01Z</time>
      </trkpt>
      <trkpt lat="44.08021" lon="3.44397">
        <ele>1152.76</ele>
        <time>2019-08-25T11:44:04Z</time>
      </trkpt>
      <trkpt lat="44.08009" lon="3.44392">
        <ele>1154.2</ele>
        <time>2019-08-25T11:44:18Z</time>
      </trkpt>
      <trkpt lat="44.08" lon="3.44393">
        <ele>1152.76</ele>
        <time>2019-08-25T11:44:29Z</time>
      </trkpt>
      <trkpt lat="44.0799" lon="3.44399">
        <ele>1149.87</ele>
        <time>2019-08-25T11:44:41Z</time>
      </trkpt>
      <trkpt lat="44.07984" lon="3.44404">
        <ele>1146.99</ele>
        <time>2019-08-25T11:44:51Z</time>
      </trkpt>
      <trkpt lat="44.07979" lon="3.44407">
        <ele>1146.03</ele>
        <time>2019-08-25T11:44:57Z</time>
      </trkpt>
      <trkpt lat="44.07972" lon="3.44412">
        <ele>1144.59</ele>
        <time>2019-08-25T11:45:04Z</time>
      </trkpt>
      <trkpt lat="44.07966" lon="3.44421">
        <ele>1143.63</ele>
        <time>2019-08-25T11:45:14Z</time>
      </trkpt>
      <trkpt lat="44.07959" lon="3.44423">
        <ele>1142.66</ele>
        <time>2019-08-25T11:45:20Z</time>
      </trkpt>
      <trkpt lat="44.07953" lon="3.44415">
        <ele>1141.7</ele>
        <time>2019-08-25T11:45:25Z</time>
      </trkpt>
      <trkpt lat="44.07953" lon="3.44414">
        <ele>1141.22</ele>
        <time>2019-08-25T11:45:26Z</time>
      </trkpt>
      <trkpt lat="44.07952" lon="3.44412">
        <ele>1141.22</ele>
        <time>2019-08-25T11:45:27Z</time>
      </trkpt>
      <trkpt lat="44.07951" lon="3.44411">
        <ele>1141.22</ele>
        <time>2019-08-25T11:45:28Z</time>
      </trkpt>
      <trkpt lat="44.07949" lon="3.44405">
        <ele>1140.74</ele>
        <time>2019-08-25T11:45:33Z</time>
      </trkpt>
      <trkpt lat="44.07948" lon="3.44401">
        <ele>1139.78</ele>
        <time>2019-08-25T11:45:37Z</time>
      </trkpt>
      <trkpt lat="44.07946" lon="3.44401">
        <ele>1139.78</ele>
        <time>2019-08-25T11:45:38Z</time>
      </trkpt>
      <trkpt lat="44.07939" lon="3.44396">
        <ele>1138.82</ele>
        <time>2019-08-25T11:45:49Z</time>
      </trkpt>
      <trkpt lat="44.07923" lon="3.44393">
        <ele>1136.9</ele>
        <time>2019-08-25T11:46:05Z</time>
      </trkpt>
      <trkpt lat="44.07908" lon="3.44392">
        <ele>1135.94</ele>
        <time>2019-08-25T11:46:18Z</time>
      </trkpt>
      <trkpt lat="44.07907" lon="3.44392">
        <ele>1135.94</ele>
        <time>2019-08-25T11:46:19Z</time>
      </trkpt>
      <trkpt lat="44.07906" lon="3.44392">
        <ele>1135.94</ele>
        <time>2019-08-25T11:46:20Z</time>
      </trkpt>
      <trkpt lat="44.07902" lon="3.44394">
        <ele>1135.94</ele>
        <time>2019-08-25T11:46:23Z</time>
      </trkpt>
      <trkpt lat="44.07901" lon="3.44394">
        <ele>1135.94</ele>
        <time>2019-08-25T11:46:24Z</time>
      </trkpt>
      <trkpt lat="44.07899" lon="3.44395">
        <ele>1135.94</ele>
        <time>2019-08-25T11:46:26Z</time>
      </trkpt>
      <trkpt lat="44.07882" lon="3.44392">
        <ele>1135.45</ele>
        <time>2019-08-25T11:46:39Z</time>
      </trkpt>
      <trkpt lat="44.07868" lon="3.44389">
        <ele>1134.97</ele>
        <time>2019-08-25T11:46:52Z</time>
      </trkpt>
      <trkpt lat="44.07866" lon="3.44388">
        <ele>1134.01</ele>
        <time>2019-08-25T11:46:55Z</time>
      </trkpt>
      <trkpt lat="44.07863" lon="3.44388">
        <ele>1133.05</ele>
        <time>2019-08-25T11:46:58Z</time>
      </trkpt>
      <trkpt lat="44.07862" lon="3.44387">
        <ele>1133.05</ele>
        <time>2019-08-25T11:46:59Z</time>
      </trkpt>
      <trkpt lat="44.07859" lon="3.44387">
        <ele>1133.05</ele>
        <time>2019-08-25T11:47:02Z</time>
      </trkpt>
      <trkpt lat="44.07857" lon="3.44387">
        <ele>1133.05</ele>
        <time>2019-08-25T11:47:03Z</time>
      </trkpt>
      <trkpt lat="44.07856" lon="3.44388">
        <ele>1133.05</ele>
        <time>2019-08-25T11:47:04Z</time>
      </trkpt>
      <trkpt lat="44.07851" lon="3.44386">
        <ele>1132.57</ele>
        <time>2019-08-25T11:47:10Z</time>
      </trkpt>
      <trkpt lat="44.07848" lon="3.44385">
        <ele>1132.57</ele>
        <time>2019-08-25T11:47:13Z</time>
      </trkpt>
      <trkpt lat="44.07845" lon="3.44387">
        <ele>1131.61</ele>
        <time>2019-08-25T11:47:16Z</time>
      </trkpt>
      <trkpt lat="44.07844" lon="3.44386">
        <ele>1131.13</ele>
        <time>2019-08-25T11:47:17Z</time>
      </trkpt>
      <trkpt lat="44.07843" lon="3.44386">
        <ele>1131.13</ele>
        <time>2019-08-25T11:47:18Z</time>
      </trkpt>
      <trkpt lat="44.0783" lon="3.44384">
        <ele>1128.24</ele>
        <time>2019-08-25T11:47:30Z</time>
      </trkpt>
      <trkpt lat="44.07829" lon="3.44384">
        <ele>1128.24</ele>
        <time>2019-08-25T11:47:31Z</time>
      </trkpt>
      <trkpt lat="44.07827" lon="3.44384">
        <ele>1128.24</ele>
        <time>2019-08-25T11:47:32Z</time>
      </trkpt>
      <trkpt lat="44.07815" lon="3.44386">
        <ele>1127.76</ele>
        <time>2019-08-25T11:47:45Z</time>
      </trkpt>
      <trkpt lat="44.07814" lon="3.44386">
        <ele>1127.76</ele>
        <time>2019-08-25T11:47:46Z</time>
      </trkpt>
      <trkpt lat="44.07813" lon="3.44386">
        <ele>1127.76</ele>
        <time>2019-08-25T11:47:48Z</time>
      </trkpt>
      <trkpt lat="44.07809" lon="3.44387">
        <ele>1126.8</ele>
        <time>2019-08-25T11:47:52Z</time>
      </trkpt>
      <trkpt lat="44.07798" lon="3.44387">
        <ele>1123.92</ele>
        <time>2019-08-25T11:48:03Z</time>
      </trkpt>
      <trkpt lat="44.07797" lon="3.44387">
        <ele>1123.92</ele>
        <time>2019-08-25T11:48:04Z</time>
      </trkpt>
      <trkpt lat="44.07796" lon="3.44388">
        <ele>1123.92</ele>
        <time>2019-08-25T11:48:05Z</time>
      </trkpt>
      <trkpt lat="44.07795" lon="3.44388">
        <ele>1124.4</ele>
        <time>2019-08-25T11:48:06Z</time>
      </trkpt>
      <trkpt lat="44.07794" lon="3.44388">
        <ele>1124.4</ele>
        <time>2019-08-25T11:48:07Z</time>
      </trkpt>
      <trkpt lat="44.07793" lon="3.44388">
        <ele>1124.4</ele>
        <time>2019-08-25T11:48:08Z</time>
      </trkpt>
      <trkpt lat="44.07791" lon="3.44387">
        <ele>1123.92</ele>
        <time>2019-08-25T11:48:10Z</time>
      </trkpt>
      <trkpt lat="44.07778" lon="3.44375">
        <ele>1122</ele>
        <time>2019-08-25T11:48:23Z</time>
      </trkpt>
      <trkpt lat="44.07766" lon="3.44375">
        <ele>1122.48</ele>
        <time>2019-08-25T11:48:36Z</time>
      </trkpt>
      <trkpt lat="44.07765" lon="3.44374">
        <ele>1123.44</ele>
        <time>2019-08-25T11:48:59Z</time>
      </trkpt>
      <trkpt lat="44.07765" lon="3.44373">
        <ele>1123.44</ele>
        <time>2019-08-25T11:49:18Z</time>
      </trkpt>
      <trkpt lat="44.07763" lon="3.44375">
        <ele>1123.44</ele>
        <time>2019-08-25T11:49:30Z</time>
      </trkpt>
      <trkpt lat="44.07759" lon="3.44376">
        <ele>1123.44</ele>
        <time>2019-08-25T11:49:46Z</time>
      </trkpt>
      <trkpt lat="44.0776" lon="3.44375">
        <ele>1120.07</ele>
        <time>2019-08-25T11:50:01Z</time>
      </trkpt>
      <trkpt lat="44.07759" lon="3.44375">
        <ele>1119.11</ele>
        <time>2019-08-25T11:50:25Z</time>
      </trkpt>
      <trkpt lat="44.07755" lon="3.44376">
        <ele>1120.07</ele>
        <time>2019-08-25T11:50:33Z</time>
      </trkpt>
      <trkpt lat="44.07749" lon="3.44377">
        <ele>1120.07</ele>
        <time>2019-08-25T11:50:39Z</time>
      </trkpt>
      <trkpt lat="44.07748" lon="3.44377">
        <ele>1120.07</ele>
        <time>2019-08-25T11:50:40Z</time>
      </trkpt>
      <trkpt lat="44.07747" lon="3.44376">
        <ele>1119.59</ele>
        <time>2019-08-25T11:50:41Z</time>
      </trkpt>
      <trkpt lat="44.07745" lon="3.44377">
        <ele>1119.59</ele>
        <time>2019-08-25T11:50:42Z</time>
      </trkpt>
      <trkpt lat="44.07744" lon="3.44378">
        <ele>1119.59</ele>
        <time>2019-08-25T11:50:43Z</time>
      </trkpt>
      <trkpt lat="44.07731" lon="3.44378">
        <ele>1115.75</ele>
        <time>2019-08-25T11:50:57Z</time>
      </trkpt>
      <trkpt lat="44.0772" lon="3.44378">
        <ele>1113.82</ele>
        <time>2019-08-25T11:51:09Z</time>
      </trkpt>
      <trkpt lat="44.07716" lon="3.44375">
        <ele>1112.86</ele>
        <time>2019-08-25T11:51:16Z</time>
      </trkpt>
      <trkpt lat="44.07712" lon="3.44372">
        <ele>1112.86</ele>
        <time>2019-08-25T11:51:21Z</time>
      </trkpt>
      <trkpt lat="44.07711" lon="3.44372">
        <ele>1112.86</ele>
        <time>2019-08-25T11:51:22Z</time>
      </trkpt>
      <trkpt lat="44.0771" lon="3.44372">
        <ele>1112.86</ele>
        <time>2019-08-25T11:51:23Z</time>
      </trkpt>
      <trkpt lat="44.07698" lon="3.44369">
        <ele>1112.38</ele>
        <time>2019-08-25T11:51:37Z</time>
      </trkpt>
      <trkpt lat="44.07694" lon="3.44363">
        <ele>1109.98</ele>
        <time>2019-08-25T11:51:46Z</time>
      </trkpt>
      <trkpt lat="44.07692" lon="3.44353">
        <ele>1106.61</ele>
        <time>2019-08-25T11:51:55Z</time>
      </trkpt>
      <trkpt lat="44.0769" lon="3.44351">
        <ele>1106.13</ele>
        <time>2019-08-25T11:51:57Z</time>
      </trkpt>
      <trkpt lat="44.07683" lon="3.44344">
        <ele>1104.69</ele>
        <time>2019-08-25T11:52:08Z</time>
      </trkpt>
      <trkpt lat="44.07679" lon="3.44341">
        <ele>1104.69</ele>
        <time>2019-08-25T11:52:14Z</time>
      </trkpt>
      <trkpt lat="44.07674" lon="3.44337">
        <ele>1103.73</ele>
        <time>2019-08-25T11:52:20Z</time>
      </trkpt>
      <trkpt lat="44.07661" lon="3.44336">
        <ele>1103.25</ele>
        <time>2019-08-25T11:52:33Z</time>
      </trkpt>
      <trkpt lat="44.07653" lon="3.44337">
        <ele>1102.77</ele>
        <time>2019-08-25T11:52:41Z</time>
      </trkpt>
      <trkpt lat="44.07651" lon="3.44338">
        <ele>1102.77</ele>
        <time>2019-08-25T11:52:42Z</time>
      </trkpt>
      <trkpt lat="44.07641" lon="3.44345">
        <ele>1101.33</ele>
        <time>2019-08-25T11:52:51Z</time>
      </trkpt>
      <trkpt lat="44.0764" lon="3.44345">
        <ele>1100.85</ele>
        <time>2019-08-25T11:52:52Z</time>
      </trkpt>
      <trkpt lat="44.07628" lon="3.44355">
        <ele>1100.85</ele>
        <time>2019-08-25T11:53:04Z</time>
      </trkpt>
      <trkpt lat="44.07626" lon="3.44355">
        <ele>1100.85</ele>
        <time>2019-08-25T11:53:05Z</time>
      </trkpt>
      <trkpt lat="44.07624" lon="3.44356">
        <ele>1100.85</ele>
        <time>2019-08-25T11:53:07Z</time>
      </trkpt>
      <trkpt lat="44.07623" lon="3.44356">
        <ele>1100.85</ele>
        <time>2019-08-25T11:53:08Z</time>
      </trkpt>
      <trkpt lat="44.07622" lon="3.44355">
        <ele>1100.37</ele>
        <time>2019-08-25T11:53:09Z</time>
      </trkpt>
      <trkpt lat="44.07615" lon="3.44356">
        <ele>1100.37</ele>
        <time>2019-08-25T11:53:15Z</time>
      </trkpt>
      <trkpt lat="44.07614" lon="3.44358">
        <ele>1100.37</ele>
        <time>2019-08-25T11:53:16Z</time>
      </trkpt>
      <trkpt lat="44.07607" lon="3.44363">
        <ele>1099.89</ele>
        <time>2019-08-25T11:53:24Z</time>
      </trkpt>
      <trkpt lat="44.07606" lon="3.44363">
        <ele>1099.89</ele>
        <time>2019-08-25T11:53:25Z</time>
      </trkpt>
      <trkpt lat="44.07604" lon="3.44364">
        <ele>1099.89</ele>
        <time>2019-08-25T11:53:26Z</time>
      </trkpt>
      <trkpt lat="44.07598" lon="3.44367">
        <ele>1099.4</ele>
        <time>2019-08-25T11:53:33Z</time>
      </trkpt>
      <trkpt lat="44.07584" lon="3.44369">
        <ele>1098.92</ele>
        <time>2019-08-25T11:53:44Z</time>
      </trkpt>
      <trkpt lat="44.07583" lon="3.44368">
        <ele>1098.44</ele>
        <time>2019-08-25T11:53:45Z</time>
      </trkpt>
      <trkpt lat="44.07582" lon="3.44368">
        <ele>1098.44</ele>
        <time>2019-08-25T11:53:46Z</time>
      </trkpt>
      <trkpt lat="44.07568" lon="3.44368">
        <ele>1096.04</ele>
        <time>2019-08-25T11:54:00Z</time>
      </trkpt>
      <trkpt lat="44.07567" lon="3.44369">
        <ele>1096.04</ele>
        <time>2019-08-25T11:54:01Z</time>
      </trkpt>
      <trkpt lat="44.07566" lon="3.4437">
        <ele>1096.04</ele>
        <time>2019-08-25T11:54:02Z</time>
      </trkpt>
      <trkpt lat="44.07564" lon="3.44371">
        <ele>1096.52</ele>
        <time>2019-08-25T11:54:03Z</time>
      </trkpt>
      <trkpt lat="44.07563" lon="3.44371">
        <ele>1096.52</ele>
        <time>2019-08-25T11:54:04Z</time>
      </trkpt>
      <trkpt lat="44.07562" lon="3.44371">
        <ele>1096.52</ele>
        <time>2019-08-25T11:54:05Z</time>
      </trkpt>
      <trkpt lat="44.07561" lon="3.44371">
        <ele>1096.52</ele>
        <time>2019-08-25T11:54:06Z</time>
      </trkpt>
      <trkpt lat="44.0756" lon="3.4437">
        <ele>1096.04</ele>
        <time>2019-08-25T11:54:07Z</time>
      </trkpt>
      <trkpt lat="44.07559" lon="3.4437">
        <ele>1096.04</ele>
        <time>2019-08-25T11:54:08Z</time>
      </trkpt>
      <trkpt lat="44.07555" lon="3.4437">
        <ele>1095.56</ele>
        <time>2019-08-25T11:54:11Z</time>
      </trkpt>
      <trkpt lat="44.07554" lon="3.4437">
        <ele>1095.56</ele>
        <time>2019-08-25T11:54:12Z</time>
      </trkpt>
      <trkpt lat="44.07553" lon="3.44371">
        <ele>1095.56</ele>
        <time>2019-08-25T11:54:13Z</time>
      </trkpt>
      <trkpt lat="44.07544" lon="3.44372">
        <ele>1094.6</ele>
        <time>2019-08-25T11:54:22Z</time>
      </trkpt>
      <trkpt lat="44.07543" lon="3.44371">
        <ele>1094.12</ele>
        <time>2019-08-25T11:54:23Z</time>
      </trkpt>
      <trkpt lat="44.07542" lon="3.44371">
        <ele>1094.12</ele>
        <time>2019-08-25T11:54:24Z</time>
      </trkpt>
      <trkpt lat="44.07541" lon="3.44371">
        <ele>1094.12</ele>
        <time>2019-08-25T11:54:25Z</time>
      </trkpt>
      <trkpt lat="44.07536" lon="3.4437">
        <ele>1092.68</ele>
        <time>2019-08-25T11:54:30Z</time>
      </trkpt>
      <trkpt lat="44.07526" lon="3.44371">
        <ele>1090.27</ele>
        <time>2019-08-25T11:54:40Z</time>
      </trkpt>
      <trkpt lat="44.07516" lon="3.4438">
        <ele>1089.79</ele>
        <time>2019-08-25T11:54:52Z</time>
      </trkpt>
      <trkpt lat="44.07514" lon="3.44384">
        <ele>1089.31</ele>
        <time>2019-08-25T11:54:56Z</time>
      </trkpt>
      <trkpt lat="44.07511" lon="3.44385">
        <ele>1088.35</ele>
        <time>2019-08-25T11:54:59Z</time>
      </trkpt>
      <trkpt lat="44.07506" lon="3.44388">
        <ele>1086.43</ele>
        <time>2019-08-25T11:55:05Z</time>
      </trkpt>
      <trkpt lat="44.07499" lon="3.44391">
        <ele>1085.95</ele>
        <time>2019-08-25T11:55:13Z</time>
      </trkpt>
      <trkpt lat="44.07489" lon="3.44392">
        <ele>1084.02</ele>
        <time>2019-08-25T11:55:25Z</time>
      </trkpt>
      <trkpt lat="44.07482" lon="3.44396">
        <ele>1082.58</ele>
        <time>2019-08-25T11:55:32Z</time>
      </trkpt>
      <trkpt lat="44.0748" lon="3.44397">
        <ele>1082.58</ele>
        <time>2019-08-25T11:55:33Z</time>
      </trkpt>
      <trkpt lat="44.07479" lon="3.44398">
        <ele>1082.58</ele>
        <time>2019-08-25T11:55:34Z</time>
      </trkpt>
      <trkpt lat="44.07478" lon="3.44398">
        <ele>1082.58</ele>
        <time>2019-08-25T11:55:35Z</time>
      </trkpt>
      <trkpt lat="44.07464" lon="3.44402">
        <ele>1081.14</ele>
        <time>2019-08-25T11:55:48Z</time>
      </trkpt>
      <trkpt lat="44.07451" lon="3.44406">
        <ele>1077.78</ele>
        <time>2019-08-25T11:56:02Z</time>
      </trkpt>
      <trkpt lat="44.07446" lon="3.44408">
        <ele>1076.81</ele>
        <time>2019-08-25T11:56:07Z</time>
      </trkpt>
      <trkpt lat="44.07441" lon="3.44409">
        <ele>1075.37</ele>
        <time>2019-08-25T11:56:14Z</time>
      </trkpt>
      <trkpt lat="44.0744" lon="3.4441">
        <ele>1075.37</ele>
        <time>2019-08-25T11:56:15Z</time>
      </trkpt>
      <trkpt lat="44.07439" lon="3.44412">
        <ele>1074.89</ele>
        <time>2019-08-25T11:56:16Z</time>
      </trkpt>
      <trkpt lat="44.07438" lon="3.44413">
        <ele>1074.89</ele>
        <time>2019-08-25T11:56:17Z</time>
      </trkpt>
      <trkpt lat="44.07438" lon="3.44416">
        <ele>1075.37</ele>
        <time>2019-08-25T11:56:19Z</time>
      </trkpt>
      <trkpt lat="44.07438" lon="3.4442">
        <ele>1075.37</ele>
        <time>2019-08-25T11:56:22Z</time>
      </trkpt>
      <trkpt lat="44.07439" lon="3.44423">
        <ele>1075.37</ele>
        <time>2019-08-25T11:56:24Z</time>
      </trkpt>
      <trkpt lat="44.07439" lon="3.44425">
        <ele>1075.37</ele>
        <time>2019-08-25T11:56:25Z</time>
      </trkpt>
      <trkpt lat="44.07439" lon="3.44431">
        <ele>1075.37</ele>
        <time>2019-08-25T11:56:30Z</time>
      </trkpt>
      <trkpt lat="44.07435" lon="3.44433">
        <ele>1073.93</ele>
        <time>2019-08-25T11:56:34Z</time>
      </trkpt>
      <trkpt lat="44.07431" lon="3.4444">
        <ele>1072.01</ele>
        <time>2019-08-25T11:56:40Z</time>
      </trkpt>
      <trkpt lat="44.07425" lon="3.4444">
        <ele>1071.53</ele>
        <time>2019-08-25T11:56:45Z</time>
      </trkpt>
      <trkpt lat="44.07417" lon="3.44436">
        <ele>1070.08</ele>
        <time>2019-08-25T11:56:53Z</time>
      </trkpt>
      <trkpt lat="44.0741" lon="3.44428">
        <ele>1065.76</ele>
        <time>2019-08-25T11:57:04Z</time>
      </trkpt>
      <trkpt lat="44.07406" lon="3.44428">
        <ele>1065.28</ele>
        <time>2019-08-25T11:57:07Z</time>
      </trkpt>
      <trkpt lat="44.07404" lon="3.44426">
        <ele>1065.28</ele>
        <time>2019-08-25T11:57:10Z</time>
      </trkpt>
      <trkpt lat="44.07397" lon="3.44422">
        <ele>1063.84</ele>
        <time>2019-08-25T11:57:18Z</time>
      </trkpt>
      <trkpt lat="44.07387" lon="3.44413">
        <ele>1063.36</ele>
        <time>2019-08-25T11:57:30Z</time>
      </trkpt>
      <trkpt lat="44.07383" lon="3.44409">
        <ele>1062.39</ele>
        <time>2019-08-25T11:57:43Z</time>
      </trkpt>
      <trkpt lat="44.07382" lon="3.44408">
        <ele>1063.36</ele>
        <time>2019-08-25T11:57:59Z</time>
      </trkpt>
      <trkpt lat="44.07382" lon="3.44409">
        <ele>1064.32</ele>
        <time>2019-08-25T11:58:19Z</time>
      </trkpt>
      <trkpt lat="44.07376" lon="3.44402">
        <ele>1061.43</ele>
        <time>2019-08-25T11:58:33Z</time>
      </trkpt>
      <trkpt lat="44.07369" lon="3.44394">
        <ele>1059.99</ele>
        <time>2019-08-25T11:58:43Z</time>
      </trkpt>
      <trkpt lat="44.07364" lon="3.44393">
        <ele>1056.63</ele>
        <time>2019-08-25T11:58:51Z</time>
      </trkpt>
      <trkpt lat="44.07362" lon="3.44393">
        <ele>1056.15</ele>
        <time>2019-08-25T11:58:53Z</time>
      </trkpt>
      <trkpt lat="44.07352" lon="3.44386">
        <ele>1054.7</ele>
        <time>2019-08-25T11:59:02Z</time>
      </trkpt>
      <trkpt lat="44.07336" lon="3.44379">
        <ele>1054.22</ele>
        <time>2019-08-25T11:59:16Z</time>
      </trkpt>
      <trkpt lat="44.07335" lon="3.44378">
        <ele>1054.22</ele>
        <time>2019-08-25T11:59:17Z</time>
      </trkpt>
      <trkpt lat="44.07329" lon="3.44377">
        <ele>1054.22</ele>
        <time>2019-08-25T11:59:22Z</time>
      </trkpt>
      <trkpt lat="44.07315" lon="3.44373">
        <ele>1051.82</ele>
        <time>2019-08-25T11:59:36Z</time>
      </trkpt>
      <trkpt lat="44.0731" lon="3.44374">
        <ele>1051.34</ele>
        <time>2019-08-25T11:59:50Z</time>
      </trkpt>
      <trkpt lat="44.07306" lon="3.44377">
        <ele>1051.34</ele>
        <time>2019-08-25T12:00:00Z</time>
      </trkpt>
      <trkpt lat="44.07303" lon="3.44381">
        <ele>1051.34</ele>
        <time>2019-08-25T12:00:06Z</time>
      </trkpt>
      <trkpt lat="44.073" lon="3.44381">
        <ele>1050.86</ele>
        <time>2019-08-25T12:00:10Z</time>
      </trkpt>
      <trkpt lat="44.07293" lon="3.44379">
        <ele>1049.9</ele>
        <time>2019-08-25T12:00:17Z</time>
      </trkpt>
      <trkpt lat="44.07289" lon="3.44381">
        <ele>1049.42</ele>
        <time>2019-08-25T12:00:21Z</time>
      </trkpt>
      <trkpt lat="44.07285" lon="3.44382">
        <ele>1049.42</ele>
        <time>2019-08-25T12:00:25Z</time>
      </trkpt>
      <trkpt lat="44.07275" lon="3.44387">
        <ele>1046.53</ele>
        <time>2019-08-25T12:00:36Z</time>
      </trkpt>
      <trkpt lat="44.07263" lon="3.44392">
        <ele>1045.57</ele>
        <time>2019-08-25T12:00:49Z</time>
      </trkpt>
      <trkpt lat="44.07253" lon="3.44395">
        <ele>1042.69</ele>
        <time>2019-08-25T12:01:02Z</time>
      </trkpt>
      <trkpt lat="44.07246" lon="3.44393">
        <ele>1041.73</ele>
        <time>2019-08-25T12:01:10Z</time>
      </trkpt>
      <trkpt lat="44.07242" lon="3.44395">
        <ele>1040.28</ele>
        <time>2019-08-25T12:01:15Z</time>
      </trkpt>
      <trkpt lat="44.07231" lon="3.44391">
        <ele>1036.44</ele>
        <time>2019-08-25T12:01:27Z</time>
      </trkpt>
      <trkpt lat="44.07225" lon="3.44388">
        <ele>1035.48</ele>
        <time>2019-08-25T12:01:34Z</time>
      </trkpt>
      <trkpt lat="44.0722" lon="3.44388">
        <ele>1035.48</ele>
        <time>2019-08-25T12:01:40Z</time>
      </trkpt>
      <trkpt lat="44.07217" lon="3.44387">
        <ele>1034.52</ele>
        <time>2019-08-25T12:01:43Z</time>
      </trkpt>
      <trkpt lat="44.07211" lon="3.44393">
        <ele>1033.55</ele>
        <time>2019-08-25T12:01:52Z</time>
      </trkpt>
      <trkpt lat="44.07215" lon="3.44408">
        <ele>1033.07</ele>
        <time>2019-08-25T12:02:05Z</time>
      </trkpt>
      <trkpt lat="44.07217" lon="3.44414">
        <ele>1033.07</ele>
        <time>2019-08-25T12:02:11Z</time>
      </trkpt>
      <trkpt lat="44.07217" lon="3.44418">
        <ele>1032.59</ele>
        <time>2019-08-25T12:02:15Z</time>
      </trkpt>
      <trkpt lat="44.07218" lon="3.4442">
        <ele>1033.07</ele>
        <time>2019-08-25T12:02:17Z</time>
      </trkpt>
      <trkpt lat="44.07214" lon="3.44423">
        <ele>1030.67</ele>
        <time>2019-08-25T12:02:25Z</time>
      </trkpt>
      <trkpt lat="44.07211" lon="3.44418">
        <ele>1029.23</ele>
        <time>2019-08-25T12:02:31Z</time>
      </trkpt>
      <trkpt lat="44.07204" lon="3.44414">
        <ele>1024.9</ele>
        <time>2019-08-25T12:02:42Z</time>
      </trkpt>
      <trkpt lat="44.072" lon="3.44416">
        <ele>1023.46</ele>
        <time>2019-08-25T12:02:48Z</time>
      </trkpt>
      <trkpt lat="44.07199" lon="3.44429">
        <ele>1022.98</ele>
        <time>2019-08-25T12:03:00Z</time>
      </trkpt>
      <trkpt lat="44.07196" lon="3.44427">
        <ele>1022.02</ele>
        <time>2019-08-25T12:03:04Z</time>
      </trkpt>
      <trkpt lat="44.07194" lon="3.44425">
        <ele>1021.06</ele>
        <time>2019-08-25T12:03:07Z</time>
      </trkpt>
      <trkpt lat="44.07192" lon="3.44422">
        <ele>1020.58</ele>
        <time>2019-08-25T12:03:10Z</time>
      </trkpt>
      <trkpt lat="44.0719" lon="3.44422">
        <ele>1020.58</ele>
        <time>2019-08-25T12:03:12Z</time>
      </trkpt>
      <trkpt lat="44.07185" lon="3.44417">
        <ele>1020.1</ele>
        <time>2019-08-25T12:03:18Z</time>
      </trkpt>
      <trkpt lat="44.07173" lon="3.44415">
        <ele>1019.62</ele>
        <time>2019-08-25T12:03:30Z</time>
      </trkpt>
      <trkpt lat="44.07165" lon="3.44412">
        <ele>1018.17</ele>
        <time>2019-08-25T12:03:40Z</time>
      </trkpt>
      <trkpt lat="44.07157" lon="3.4441">
        <ele>1015.29</ele>
        <time>2019-08-25T12:03:52Z</time>
      </trkpt>
      <trkpt lat="44.07152" lon="3.44411">
        <ele>1013.85</ele>
        <time>2019-08-25T12:03:59Z</time>
      </trkpt>
      <trkpt lat="44.07148" lon="3.4441">
        <ele>1012.89</ele>
        <time>2019-08-25T12:04:04Z</time>
      </trkpt>
      <trkpt lat="44.07145" lon="3.4441">
        <ele>1011.44</ele>
        <time>2019-08-25T12:04:08Z</time>
      </trkpt>
      <trkpt lat="44.07141" lon="3.4441">
        <ele>1011.44</ele>
        <time>2019-08-25T12:04:12Z</time>
      </trkpt>
      <trkpt lat="44.0713" lon="3.44409">
        <ele>1009.52</ele>
        <time>2019-08-25T12:04:24Z</time>
      </trkpt>
      <trkpt lat="44.07127" lon="3.44406">
        <ele>1009.52</ele>
        <time>2019-08-25T12:04:28Z</time>
      </trkpt>
      <trkpt lat="44.07119" lon="3.44407">
        <ele>1008.56</ele>
        <time>2019-08-25T12:04:36Z</time>
      </trkpt>
      <trkpt lat="44.07114" lon="3.44404">
        <ele>1007.6</ele>
        <time>2019-08-25T12:04:42Z</time>
      </trkpt>
      <trkpt lat="44.07112" lon="3.44401">
        <ele>1007.12</ele>
        <time>2019-08-25T12:04:44Z</time>
      </trkpt>
      <trkpt lat="44.07103" lon="3.44393">
        <ele>1004.72</ele>
        <time>2019-08-25T12:04:57Z</time>
      </trkpt>
      <trkpt lat="44.07097" lon="3.44394">
        <ele>1002.79</ele>
        <time>2019-08-25T12:05:08Z</time>
      </trkpt>
      <trkpt lat="44.07095" lon="3.44394">
        <ele>1002.79</ele>
        <time>2019-08-25T12:05:10Z</time>
      </trkpt>
      <trkpt lat="44.07089" lon="3.44396">
        <ele>1001.35</ele>
        <time>2019-08-25T12:05:20Z</time>
      </trkpt>
      <trkpt lat="44.0708" lon="3.44395">
        <ele>1000.39</ele>
        <time>2019-08-25T12:05:30Z</time>
      </trkpt>
      <trkpt lat="44.07078" lon="3.44393">
        <ele>999.91</ele>
        <time>2019-08-25T12:05:32Z</time>
      </trkpt>
      <trkpt lat="44.07074" lon="3.44392">
        <ele>998.95</ele>
        <time>2019-08-25T12:05:36Z</time>
      </trkpt>
      <trkpt lat="44.07073" lon="3.44391">
        <ele>998.47</ele>
        <time>2019-08-25T12:05:38Z</time>
      </trkpt>
      <trkpt lat="44.07069" lon="3.44391">
        <ele>997.99</ele>
        <time>2019-08-25T12:05:42Z</time>
      </trkpt>
      <trkpt lat="44.07063" lon="3.44392">
        <ele>996.06</ele>
        <time>2019-08-25T12:05:48Z</time>
      </trkpt>
      <trkpt lat="44.07058" lon="3.44392">
        <ele>996.06</ele>
        <time>2019-08-25T12:05:53Z</time>
      </trkpt>
      <trkpt lat="44.0705" lon="3.44396">
        <ele>994.14</ele>
        <time>2019-08-25T12:06:03Z</time>
      </trkpt>
      <trkpt lat="44.07046" lon="3.44399">
        <ele>993.18</ele>
        <time>2019-08-25T12:06:08Z</time>
      </trkpt>
      <trkpt lat="44.07044" lon="3.44399">
        <ele>993.18</ele>
        <time>2019-08-25T12:06:10Z</time>
      </trkpt>
      <trkpt lat="44.07039" lon="3.44402">
        <ele>991.74</ele>
        <time>2019-08-25T12:06:16Z</time>
      </trkpt>
      <trkpt lat="44.07035" lon="3.44404">
        <ele>990.78</ele>
        <time>2019-08-25T12:06:21Z</time>
      </trkpt>
      <trkpt lat="44.07033" lon="3.44406">
        <ele>990.78</ele>
        <time>2019-08-25T12:06:23Z</time>
      </trkpt>
      <trkpt lat="44.0703" lon="3.44405">
        <ele>989.81</ele>
        <time>2019-08-25T12:06:27Z</time>
      </trkpt>
      <trkpt lat="44.07028" lon="3.44405">
        <ele>989.81</ele>
        <time>2019-08-25T12:06:29Z</time>
      </trkpt>
      <trkpt lat="44.07022" lon="3.44405">
        <ele>989.81</ele>
        <time>2019-08-25T12:06:36Z</time>
      </trkpt>
      <trkpt lat="44.07019" lon="3.44403">
        <ele>989.33</ele>
        <time>2019-08-25T12:06:40Z</time>
      </trkpt>
      <trkpt lat="44.0701" lon="3.44402">
        <ele>987.41</ele>
        <time>2019-08-25T12:06:51Z</time>
      </trkpt>
      <trkpt lat="44.07004" lon="3.44402">
        <ele>986.45</ele>
        <time>2019-08-25T12:06:57Z</time>
      </trkpt>
      <trkpt lat="44.06998" lon="3.44399">
        <ele>983.57</ele>
        <time>2019-08-25T12:07:05Z</time>
      </trkpt>
      <trkpt lat="44.06989" lon="3.44398">
        <ele>983.57</ele>
        <time>2019-08-25T12:07:16Z</time>
      </trkpt>
      <trkpt lat="44.06986" lon="3.44399">
        <ele>983.09</ele>
        <time>2019-08-25T12:07:20Z</time>
      </trkpt>
      <trkpt lat="44.06979" lon="3.44401">
        <ele>981.64</ele>
        <time>2019-08-25T12:07:29Z</time>
      </trkpt>
      <trkpt lat="44.06971" lon="3.44398">
        <ele>975.88</ele>
        <time>2019-08-25T12:07:42Z</time>
      </trkpt>
      <trkpt lat="44.06964" lon="3.44398">
        <ele>973.47</ele>
        <time>2019-08-25T12:07:52Z</time>
      </trkpt>
      <trkpt lat="44.06961" lon="3.44398">
        <ele>972.51</ele>
        <time>2019-08-25T12:07:56Z</time>
      </trkpt>
      <trkpt lat="44.06948" lon="3.44396">
        <ele>970.59</ele>
        <time>2019-08-25T12:08:09Z</time>
      </trkpt>
      <trkpt lat="44.06941" lon="3.44388">
        <ele>970.11</ele>
        <time>2019-08-25T12:08:20Z</time>
      </trkpt>
      <trkpt lat="44.06937" lon="3.4438">
        <ele>969.15</ele>
        <time>2019-08-25T12:08:29Z</time>
      </trkpt>
      <trkpt lat="44.06932" lon="3.44382">
        <ele>968.18</ele>
        <time>2019-08-25T12:08:41Z</time>
      </trkpt>
      <trkpt lat="44.0693" lon="3.44384">
        <ele>968.18</ele>
        <time>2019-08-25T12:08:46Z</time>
      </trkpt>
      <trkpt lat="44.06928" lon="3.44392">
        <ele>966.26</ele>
        <time>2019-08-25T12:08:57Z</time>
      </trkpt>
      <trkpt lat="44.06927" lon="3.44392">
        <ele>966.26</ele>
        <time>2019-08-25T12:08:58Z</time>
      </trkpt>
      <trkpt lat="44.06913" lon="3.44391">
        <ele>962.9</ele>
        <time>2019-08-25T12:09:12Z</time>
      </trkpt>
      <trkpt lat="44.06911" lon="3.44392">
        <ele>961.46</ele>
        <time>2019-08-25T12:09:15Z</time>
      </trkpt>
      <trkpt lat="44.06903" lon="3.44395">
        <ele>960.01</ele>
        <time>2019-08-25T12:09:22Z</time>
      </trkpt>
      <trkpt lat="44.0689" lon="3.44379">
        <ele>958.57</ele>
        <time>2019-08-25T12:09:36Z</time>
      </trkpt>
      <trkpt lat="44.06888" lon="3.44378">
        <ele>958.57</ele>
        <time>2019-08-25T12:09:38Z</time>
      </trkpt>
      <trkpt lat="44.06884" lon="3.44376">
        <ele>956.65</ele>
        <time>2019-08-25T12:09:43Z</time>
      </trkpt>
      <trkpt lat="44.06873" lon="3.44395">
        <ele>952.8</ele>
        <time>2019-08-25T12:09:59Z</time>
      </trkpt>
      <trkpt lat="44.06873" lon="3.44397">
        <ele>952.8</ele>
        <time>2019-08-25T12:10:00Z</time>
      </trkpt>
      <trkpt lat="44.06863" lon="3.44416">
        <ele>952.32</ele>
        <time>2019-08-25T12:10:15Z</time>
      </trkpt>
      <trkpt lat="44.06858" lon="3.44419">
        <ele>950.88</ele>
        <time>2019-08-25T12:10:21Z</time>
      </trkpt>
      <trkpt lat="44.06853" lon="3.44419">
        <ele>949.44</ele>
        <time>2019-08-25T12:10:31Z</time>
      </trkpt>
      <trkpt lat="44.06846" lon="3.44421">
        <ele>948</ele>
        <time>2019-08-25T12:10:41Z</time>
      </trkpt>
      <trkpt lat="44.06841" lon="3.44423">
        <ele>947.04</ele>
        <time>2019-08-25T12:10:46Z</time>
      </trkpt>
      <trkpt lat="44.06832" lon="3.44428">
        <ele>947.52</ele>
        <time>2019-08-25T12:10:56Z</time>
      </trkpt>
      <trkpt lat="44.06829" lon="3.44427">
        <ele>948</ele>
        <time>2019-08-25T12:10:59Z</time>
      </trkpt>
      <trkpt lat="44.06825" lon="3.44428">
        <ele>948</ele>
        <time>2019-08-25T12:11:04Z</time>
      </trkpt>
      <trkpt lat="44.06823" lon="3.44432">
        <ele>947.52</ele>
        <time>2019-08-25T12:11:07Z</time>
      </trkpt>
      <trkpt lat="44.06818" lon="3.44433">
        <ele>945.11</ele>
        <time>2019-08-25T12:11:20Z</time>
      </trkpt>
      <trkpt lat="44.06816" lon="3.44434">
        <ele>943.19</ele>
        <time>2019-08-25T12:11:30Z</time>
      </trkpt>
      <trkpt lat="44.06817" lon="3.44437">
        <ele>944.15</ele>
        <time>2019-08-25T12:11:42Z</time>
      </trkpt>
      <trkpt lat="44.06813" lon="3.4444">
        <ele>944.63</ele>
        <time>2019-08-25T12:12:01Z</time>
      </trkpt>
      <trkpt lat="44.06813" lon="3.44443">
        <ele>944.63</ele>
        <time>2019-08-25T12:12:04Z</time>
      </trkpt>
      <trkpt lat="44.06812" lon="3.44449">
        <ele>944.15</ele>
        <time>2019-08-25T12:12:09Z</time>
      </trkpt>
      <trkpt lat="44.06813" lon="3.44461">
        <ele>944.15</ele>
        <time>2019-08-25T12:12:18Z</time>
      </trkpt>
      <trkpt lat="44.06814" lon="3.44475">
        <ele>942.23</ele>
        <time>2019-08-25T12:12:30Z</time>
      </trkpt>
      <trkpt lat="44.06815" lon="3.44477">
        <ele>941.27</ele>
        <time>2019-08-25T12:12:33Z</time>
      </trkpt>
      <trkpt lat="44.06821" lon="3.44492">
        <ele>939.35</ele>
        <time>2019-08-25T12:12:46Z</time>
      </trkpt>
      <trkpt lat="44.06821" lon="3.44497">
        <ele>938.86</ele>
        <time>2019-08-25T12:12:50Z</time>
      </trkpt>
      <trkpt lat="44.06821" lon="3.44501">
        <ele>938.38</ele>
        <time>2019-08-25T12:12:53Z</time>
      </trkpt>
      <trkpt lat="44.06822" lon="3.44509">
        <ele>936.94</ele>
        <time>2019-08-25T12:13:03Z</time>
      </trkpt>
      <trkpt lat="44.06818" lon="3.44516">
        <ele>935.02</ele>
        <time>2019-08-25T12:13:13Z</time>
      </trkpt>
      <trkpt lat="44.06811" lon="3.44519">
        <ele>931.65</ele>
        <time>2019-08-25T12:13:25Z</time>
      </trkpt>
      <trkpt lat="44.06805" lon="3.4452">
        <ele>930.21</ele>
        <time>2019-08-25T12:13:34Z</time>
      </trkpt>
      <trkpt lat="44.06798" lon="3.44525">
        <ele>927.33</ele>
        <time>2019-08-25T12:13:41Z</time>
      </trkpt>
      <trkpt lat="44.06793" lon="3.44525">
        <ele>925.41</ele>
        <time>2019-08-25T12:13:47Z</time>
      </trkpt>
      <trkpt lat="44.0679" lon="3.44528">
        <ele>924.93</ele>
        <time>2019-08-25T12:13:51Z</time>
      </trkpt>
      <trkpt lat="44.06788" lon="3.44531">
        <ele>924.93</ele>
        <time>2019-08-25T12:13:54Z</time>
      </trkpt>
      <trkpt lat="44.06786" lon="3.44531">
        <ele>924.45</ele>
        <time>2019-08-25T12:13:56Z</time>
      </trkpt>
      <trkpt lat="44.06784" lon="3.44532">
        <ele>923.96</ele>
        <time>2019-08-25T12:13:59Z</time>
      </trkpt>
      <trkpt lat="44.06777" lon="3.44537">
        <ele>923.48</ele>
        <time>2019-08-25T12:14:06Z</time>
      </trkpt>
      <trkpt lat="44.06765" lon="3.4454">
        <ele>921.56</ele>
        <time>2019-08-25T12:14:20Z</time>
      </trkpt>
      <trkpt lat="44.06764" lon="3.4454">
        <ele>921.56</ele>
        <time>2019-08-25T12:14:21Z</time>
      </trkpt>
      <trkpt lat="44.06762" lon="3.44543">
        <ele>920.6</ele>
        <time>2019-08-25T12:14:24Z</time>
      </trkpt>
      <trkpt lat="44.06756" lon="3.44546">
        <ele>918.68</ele>
        <time>2019-08-25T12:14:32Z</time>
      </trkpt>
      <trkpt lat="44.06751" lon="3.44546">
        <ele>919.64</ele>
        <time>2019-08-25T12:14:43Z</time>
      </trkpt>
      <trkpt lat="44.0675" lon="3.44545">
        <ele>918.68</ele>
        <time>2019-08-25T12:14:56Z</time>
      </trkpt>
      <trkpt lat="44.06743" lon="3.44541">
        <ele>919.16</ele>
        <time>2019-08-25T12:15:25Z</time>
      </trkpt>
      <trkpt lat="44.06741" lon="3.4454">
        <ele>918.68</ele>
        <time>2019-08-25T12:15:27Z</time>
      </trkpt>
      <trkpt lat="44.06737" lon="3.44538">
        <ele>914.83</ele>
        <time>2019-08-25T12:15:39Z</time>
      </trkpt>
      <trkpt lat="44.06737" lon="3.44538">
        <ele>914.83</ele>
        <time>2019-08-25T12:16:06Z</time>
      </trkpt>
      <trkpt lat="44.06738" lon="3.44539">
        <ele>918.2</ele>
        <time>2019-08-25T12:16:29Z</time>
      </trkpt>
      <trkpt lat="44.06737" lon="3.44538">
        <ele>920.6</ele>
        <time>2019-08-25T12:17:04Z</time>
      </trkpt>
      <trkpt lat="44.06737" lon="3.44536">
        <ele>915.79</ele>
        <time>2019-08-25T12:17:40Z</time>
      </trkpt>
      <trkpt lat="44.06734" lon="3.44542">
        <ele>915.79</ele>
        <time>2019-08-25T12:17:56Z</time>
      </trkpt>
      <trkpt lat="44.06721" lon="3.44542">
        <ele>912.91</ele>
        <time>2019-08-25T12:18:09Z</time>
      </trkpt>
      <trkpt lat="44.06714" lon="3.4454">
        <ele>911.47</ele>
        <time>2019-08-25T12:18:15Z</time>
      </trkpt>
      <trkpt lat="44.06709" lon="3.44538">
        <ele>910.99</ele>
        <time>2019-08-25T12:18:19Z</time>
      </trkpt>
      <trkpt lat="44.06697" lon="3.4454">
        <ele>910.99</ele>
        <time>2019-08-25T12:18:29Z</time>
      </trkpt>
      <trkpt lat="44.06685" lon="3.44534">
        <ele>909.06</ele>
        <time>2019-08-25T12:18:42Z</time>
      </trkpt>
      <trkpt lat="44.0667" lon="3.44535">
        <ele>907.62</ele>
        <time>2019-08-25T12:18:53Z</time>
      </trkpt>
      <trkpt lat="44.06656" lon="3.44541">
        <ele>907.14</ele>
        <time>2019-08-25T12:19:05Z</time>
      </trkpt>
      <trkpt lat="44.0665" lon="3.44542">
        <ele>906.18</ele>
        <time>2019-08-25T12:19:10Z</time>
      </trkpt>
      <trkpt lat="44.06635" lon="3.44551">
        <ele>903.3</ele>
        <time>2019-08-25T12:19:25Z</time>
      </trkpt>
      <trkpt lat="44.06622" lon="3.44559">
        <ele>902.33</ele>
        <time>2019-08-25T12:19:37Z</time>
      </trkpt>
      <trkpt lat="44.06608" lon="3.44572">
        <ele>900.41</ele>
        <time>2019-08-25T12:19:52Z</time>
      </trkpt>
      <trkpt lat="44.06599" lon="3.44574">
        <ele>898.49</ele>
        <time>2019-08-25T12:20:00Z</time>
      </trkpt>
      <trkpt lat="44.06597" lon="3.44574">
        <ele>897.53</ele>
        <time>2019-08-25T12:20:02Z</time>
      </trkpt>
      <trkpt lat="44.06587" lon="3.44587">
        <ele>897.05</ele>
        <time>2019-08-25T12:20:15Z</time>
      </trkpt>
      <trkpt lat="44.06583" lon="3.44587">
        <ele>897.53</ele>
        <time>2019-08-25T12:20:28Z</time>
      </trkpt>
      <trkpt lat="44.06582" lon="3.44588">
        <ele>897.05</ele>
        <time>2019-08-25T12:20:48Z</time>
      </trkpt>
      <trkpt lat="44.06583" lon="3.44585">
        <ele>899.93</ele>
        <time>2019-08-25T12:21:09Z</time>
      </trkpt>
      <trkpt lat="44.06583" lon="3.44589">
        <ele>898.01</ele>
        <time>2019-08-25T12:21:21Z</time>
      </trkpt>
      <trkpt lat="44.06582" lon="3.4459">
        <ele>897.53</ele>
        <time>2019-08-25T12:21:38Z</time>
      </trkpt>
      <trkpt lat="44.06584" lon="3.44585">
        <ele>898.49</ele>
        <time>2019-08-25T12:22:00Z</time>
      </trkpt>
      <trkpt lat="44.06582" lon="3.44589">
        <ele>900.41</ele>
        <time>2019-08-25T12:22:12Z</time>
      </trkpt>
      <trkpt lat="44.06582" lon="3.44589">
        <ele>900.41</ele>
        <time>2019-08-25T12:22:32Z</time>
      </trkpt>
      <trkpt lat="44.06585" lon="3.4459">
        <ele>898.97</ele>
        <time>2019-08-25T12:22:51Z</time>
      </trkpt>
      <trkpt lat="44.06584" lon="3.44591">
        <ele>900.41</ele>
        <time>2019-08-25T12:23:06Z</time>
      </trkpt>
      <trkpt lat="44.06578" lon="3.44606">
        <ele>900.41</ele>
        <time>2019-08-25T12:23:16Z</time>
      </trkpt>
      <trkpt lat="44.06575" lon="3.4461">
        <ele>899.93</ele>
        <time>2019-08-25T12:23:20Z</time>
      </trkpt>
      <trkpt lat="44.06571" lon="3.44616">
        <ele>898.49</ele>
        <time>2019-08-25T12:23:25Z</time>
      </trkpt>
      <trkpt lat="44.06567" lon="3.4462">
        <ele>897.53</ele>
        <time>2019-08-25T12:23:30Z</time>
      </trkpt>
      <trkpt lat="44.06561" lon="3.44623">
        <ele>895.12</ele>
        <time>2019-08-25T12:23:37Z</time>
      </trkpt>
      <trkpt lat="44.06555" lon="3.44626">
        <ele>894.64</ele>
        <time>2019-08-25T12:23:42Z</time>
      </trkpt>
      <trkpt lat="44.06551" lon="3.44627">
        <ele>894.16</ele>
        <time>2019-08-25T12:23:45Z</time>
      </trkpt>
      <trkpt lat="44.06544" lon="3.4463">
        <ele>894.64</ele>
        <time>2019-08-25T12:23:51Z</time>
      </trkpt>
      <trkpt lat="44.06537" lon="3.44632">
        <ele>894.64</ele>
        <time>2019-08-25T12:23:57Z</time>
      </trkpt>
      <trkpt lat="44.06532" lon="3.44632">
        <ele>895.61</ele>
        <time>2019-08-25T12:24:02Z</time>
      </trkpt>
      <trkpt lat="44.06523" lon="3.44633">
        <ele>896.09</ele>
        <time>2019-08-25T12:24:10Z</time>
      </trkpt>
      <trkpt lat="44.06518" lon="3.44632">
        <ele>896.09</ele>
        <time>2019-08-25T12:24:15Z</time>
      </trkpt>
      <trkpt lat="44.06512" lon="3.44632">
        <ele>898.01</ele>
        <time>2019-08-25T12:24:20Z</time>
      </trkpt>
      <trkpt lat="44.06502" lon="3.44626">
        <ele>897.53</ele>
        <time>2019-08-25T12:24:29Z</time>
      </trkpt>
      <trkpt lat="44.06497" lon="3.44629">
        <ele>897.05</ele>
        <time>2019-08-25T12:24:42Z</time>
      </trkpt>
      <trkpt lat="44.06492" lon="3.44632">
        <ele>894.64</ele>
        <time>2019-08-25T12:24:51Z</time>
      </trkpt>
      <trkpt lat="44.06487" lon="3.44631">
        <ele>892.24</ele>
        <time>2019-08-25T12:24:58Z</time>
      </trkpt>
      <trkpt lat="44.06483" lon="3.44634">
        <ele>891.28</ele>
        <time>2019-08-25T12:25:03Z</time>
      </trkpt>
      <trkpt lat="44.06473" lon="3.44636">
        <ele>888.88</ele>
        <time>2019-08-25T12:25:14Z</time>
      </trkpt>
      <trkpt lat="44.06464" lon="3.44637">
        <ele>885.99</ele>
        <time>2019-08-25T12:25:22Z</time>
      </trkpt>
      <trkpt lat="44.06453" lon="3.44639">
        <ele>884.55</ele>
        <time>2019-08-25T12:25:34Z</time>
      </trkpt>
      <trkpt lat="44.06451" lon="3.44639">
        <ele>884.07</ele>
        <time>2019-08-25T12:25:37Z</time>
      </trkpt>
      <trkpt lat="44.06449" lon="3.44641">
        <ele>885.03</ele>
        <time>2019-08-25T12:25:43Z</time>
      </trkpt>
      <trkpt lat="44.06444" lon="3.44643">
        <ele>885.99</ele>
        <time>2019-08-25T12:25:49Z</time>
      </trkpt>
      <trkpt lat="44.06433" lon="3.44637">
        <ele>887.43</ele>
        <time>2019-08-25T12:26:00Z</time>
      </trkpt>
      <trkpt lat="44.06424" lon="3.44631">
        <ele>886.95</ele>
        <time>2019-08-25T12:26:09Z</time>
      </trkpt>
      <trkpt lat="44.06421" lon="3.44625">
        <ele>890.8</ele>
        <time>2019-08-25T12:26:15Z</time>
      </trkpt>
      <trkpt lat="44.06413" lon="3.44623">
        <ele>891.28</ele>
        <time>2019-08-25T12:26:22Z</time>
      </trkpt>
      <trkpt lat="44.06411" lon="3.44624">
        <ele>892.24</ele>
        <time>2019-08-25T12:26:24Z</time>
      </trkpt>
      <trkpt lat="44.06407" lon="3.44626">
        <ele>891.76</ele>
        <time>2019-08-25T12:26:37Z</time>
      </trkpt>
      <trkpt lat="44.06413" lon="3.44626">
        <ele>892.72</ele>
        <time>2019-08-25T12:26:53Z</time>
      </trkpt>
      <trkpt lat="44.06421" lon="3.44632">
        <ele>890.8</ele>
        <time>2019-08-25T12:27:05Z</time>
      </trkpt>
      <trkpt lat="44.06424" lon="3.44631">
        <ele>889.84</ele>
        <time>2019-08-25T12:27:09Z</time>
      </trkpt>
      <trkpt lat="44.06426" lon="3.44635">
        <ele>888.88</ele>
        <time>2019-08-25T12:27:12Z</time>
      </trkpt>
      <trkpt lat="44.06428" lon="3.44636">
        <ele>887.91</ele>
        <time>2019-08-25T12:27:25Z</time>
      </trkpt>
      <trkpt lat="44.06425" lon="3.44634">
        <ele>887.43</ele>
        <time>2019-08-25T12:27:29Z</time>
      </trkpt>
      <trkpt lat="44.06422" lon="3.44632">
        <ele>886.95</ele>
        <time>2019-08-25T12:27:32Z</time>
      </trkpt>
      <trkpt lat="44.06414" lon="3.44622">
        <ele>889.84</ele>
        <time>2019-08-25T12:27:43Z</time>
      </trkpt>
      <trkpt lat="44.06412" lon="3.44623">
        <ele>889.84</ele>
        <time>2019-08-25T12:27:53Z</time>
      </trkpt>
      <trkpt lat="44.06416" lon="3.44622">
        <ele>889.84</ele>
        <time>2019-08-25T12:27:56Z</time>
      </trkpt>
      <trkpt lat="44.06418" lon="3.44615">
        <ele>889.84</ele>
        <time>2019-08-25T12:28:02Z</time>
      </trkpt>
      <trkpt lat="44.0642" lon="3.44606">
        <ele>888.88</ele>
        <time>2019-08-25T12:28:10Z</time>
      </trkpt>
      <trkpt lat="44.06425" lon="3.44597">
        <ele>888.4</ele>
        <time>2019-08-25T12:28:16Z</time>
      </trkpt>
      <trkpt lat="44.06431" lon="3.44591">
        <ele>884.07</ele>
        <time>2019-08-25T12:28:29Z</time>
      </trkpt>
      <trkpt lat="44.06438" lon="3.44585">
        <ele>886.95</ele>
        <time>2019-08-25T12:28:41Z</time>
      </trkpt>
      <trkpt lat="44.06445" lon="3.44584">
        <ele>890.32</ele>
        <time>2019-08-25T12:28:53Z</time>
      </trkpt>
      <trkpt lat="44.06448" lon="3.44587">
        <ele>891.76</ele>
        <time>2019-08-25T12:29:06Z</time>
      </trkpt>
      <trkpt lat="44.06444" lon="3.44591">
        <ele>892.72</ele>
        <time>2019-08-25T12:29:18Z</time>
      </trkpt>
      <trkpt lat="44.06443" lon="3.44598">
        <ele>890.32</ele>
        <time>2019-08-25T12:29:30Z</time>
      </trkpt>
      <trkpt lat="44.06446" lon="3.44597">
        <ele>888.4</ele>
        <time>2019-08-25T12:30:02Z</time>
      </trkpt>
      <trkpt lat="44.06445" lon="3.44588">
        <ele>888.4</ele>
        <time>2019-08-25T12:30:16Z</time>
      </trkpt>
      <trkpt lat="44.0645" lon="3.44578">
        <ele>889.84</ele>
        <time>2019-08-25T12:30:27Z</time>
      </trkpt>
      <trkpt lat="44.0645" lon="3.44565">
        <ele>896.09</ele>
        <time>2019-08-25T12:30:40Z</time>
      </trkpt>
      <trkpt lat="44.06446" lon="3.44562">
        <ele>896.09</ele>
        <time>2019-08-25T12:31:00Z</time>
      </trkpt>
      <trkpt lat="44.06448" lon="3.44557">
        <ele>897.53</ele>
        <time>2019-08-25T12:31:15Z</time>
      </trkpt>
      <trkpt lat="44.06452" lon="3.44543">
        <ele>895.61</ele>
        <time>2019-08-25T12:31:27Z</time>
      </trkpt>
      <trkpt lat="44.06453" lon="3.44542">
        <ele>895.61</ele>
        <time>2019-08-25T12:31:28Z</time>
      </trkpt>
      <trkpt lat="44.06454" lon="3.44533">
        <ele>894.64</ele>
        <time>2019-08-25T12:31:34Z</time>
      </trkpt>
      <trkpt lat="44.06456" lon="3.44527">
        <ele>893.2</ele>
        <time>2019-08-25T12:31:38Z</time>
      </trkpt>
      <trkpt lat="44.06457" lon="3.44516">
        <ele>892.24</ele>
        <time>2019-08-25T12:31:46Z</time>
      </trkpt>
      <trkpt lat="44.06457" lon="3.44504">
        <ele>890.8</ele>
        <time>2019-08-25T12:31:58Z</time>
      </trkpt>
      <trkpt lat="44.06454" lon="3.44507">
        <ele>888.88</ele>
        <time>2019-08-25T12:32:19Z</time>
      </trkpt>
      <trkpt lat="44.06452" lon="3.44509">
        <ele>885.99</ele>
        <time>2019-08-25T12:32:32Z</time>
      </trkpt>
      <trkpt lat="44.06456" lon="3.44512">
        <ele>873.98</ele>
        <time>2019-08-25T12:32:51Z</time>
      </trkpt>
      <trkpt lat="44.06458" lon="3.44512">
        <ele>876.38</ele>
        <time>2019-08-25T12:33:20Z</time>
      </trkpt>
      <trkpt lat="44.06462" lon="3.44508">
        <ele>888.88</ele>
        <time>2019-08-25T12:33:48Z</time>
      </trkpt>
      <trkpt lat="44.06458" lon="3.44507">
        <ele>891.28</ele>
        <time>2019-08-25T12:34:16Z</time>
      </trkpt>
      <trkpt lat="44.06454" lon="3.44505">
        <ele>889.84</ele>
        <time>2019-08-25T12:34:38Z</time>
      </trkpt>
      <trkpt lat="44.06453" lon="3.44506">
        <ele>889.84</ele>
        <time>2019-08-25T12:35:00Z</time>
      </trkpt>
      <trkpt lat="44.06457" lon="3.44508">
        <ele>888.4</ele>
        <time>2019-08-25T12:35:26Z</time>
      </trkpt>
      <trkpt lat="44.06457" lon="3.44504">
        <ele>891.76</ele>
        <time>2019-08-25T12:35:56Z</time>
      </trkpt>
      <trkpt lat="44.06458" lon="3.44507">
        <ele>889.84</ele>
        <time>2019-08-25T12:36:19Z</time>
      </trkpt>
      <trkpt lat="44.06461" lon="3.44509">
        <ele>888.88</ele>
        <time>2019-08-25T12:36:46Z</time>
      </trkpt>
      <trkpt lat="44.06464" lon="3.44509">
        <ele>886.47</ele>
        <time>2019-08-25T12:37:17Z</time>
      </trkpt>
      <trkpt lat="44.06459" lon="3.44507">
        <ele>887.43</ele>
        <time>2019-08-25T12:37:40Z</time>
      </trkpt>
      <trkpt lat="44.06463" lon="3.44509">
        <ele>888.4</ele>
        <time>2019-08-25T12:38:07Z</time>
      </trkpt>
      <trkpt lat="44.06457" lon="3.44509">
        <ele>888.4</ele>
        <time>2019-08-25T12:38:41Z</time>
      </trkpt>
      <trkpt lat="44.06455" lon="3.44506">
        <ele>888.4</ele>
        <time>2019-08-25T12:39:11Z</time>
      </trkpt>
      <trkpt lat="44.06456" lon="3.44506">
        <ele>885.03</ele>
        <time>2019-08-25T12:39:46Z</time>
      </trkpt>
      <trkpt lat="44.06455" lon="3.44504">
        <ele>885.99</ele>
        <time>2019-08-25T12:40:00Z</time>
      </trkpt>
      <trkpt lat="44.06454" lon="3.44502">
        <ele>885.99</ele>
        <time>2019-08-25T12:40:19Z</time>
      </trkpt>
      <trkpt lat="44.06457" lon="3.44501">
        <ele>887.91</ele>
        <time>2019-08-25T12:40:45Z</time>
      </trkpt>
      <trkpt lat="44.0646" lon="3.44504">
        <ele>890.32</ele>
        <time>2019-08-25T12:41:03Z</time>
      </trkpt>
      <trkpt lat="44.06464" lon="3.44491">
        <ele>892.24</ele>
        <time>2019-08-25T12:41:15Z</time>
      </trkpt>
      <trkpt lat="44.06472" lon="3.44476">
        <ele>889.36</ele>
        <time>2019-08-25T12:41:30Z</time>
      </trkpt>
      <trkpt lat="44.06474" lon="3.44475">
        <ele>889.84</ele>
        <time>2019-08-25T12:41:32Z</time>
      </trkpt>
      <trkpt lat="44.06484" lon="3.4447">
        <ele>890.32</ele>
        <time>2019-08-25T12:41:44Z</time>
      </trkpt>
      <trkpt lat="44.06499" lon="3.44466">
        <ele>890.32</ele>
        <time>2019-08-25T12:41:56Z</time>
      </trkpt>
      <trkpt lat="44.06505" lon="3.44466">
        <ele>891.28</ele>
        <time>2019-08-25T12:42:01Z</time>
      </trkpt>
      <trkpt lat="44.06524" lon="3.44466">
        <ele>891.28</ele>
        <time>2019-08-25T12:42:17Z</time>
      </trkpt>
      <trkpt lat="44.06538" lon="3.44463">
        <ele>889.36</ele>
        <time>2019-08-25T12:42:28Z</time>
      </trkpt>
      <trkpt lat="44.0654" lon="3.44461">
        <ele>888.88</ele>
        <time>2019-08-25T12:42:30Z</time>
      </trkpt>
      <trkpt lat="44.06544" lon="3.44459">
        <ele>888.4</ele>
        <time>2019-08-25T12:42:34Z</time>
      </trkpt>
      <trkpt lat="44.06549" lon="3.44455">
        <ele>888.4</ele>
        <time>2019-08-25T12:42:39Z</time>
      </trkpt>
      <trkpt lat="44.06553" lon="3.44447">
        <ele>888.4</ele>
        <time>2019-08-25T12:42:45Z</time>
      </trkpt>
      <trkpt lat="44.06558" lon="3.44438">
        <ele>886.47</ele>
        <time>2019-08-25T12:42:53Z</time>
      </trkpt>
      <trkpt lat="44.06561" lon="3.4442">
        <ele>886.47</ele>
        <time>2019-08-25T12:43:06Z</time>
      </trkpt>
      <trkpt lat="44.06563" lon="3.44403">
        <ele>885.03</ele>
        <time>2019-08-25T12:43:17Z</time>
      </trkpt>
      <trkpt lat="44.06565" lon="3.44395">
        <ele>883.59</ele>
        <time>2019-08-25T12:43:22Z</time>
      </trkpt>
      <trkpt lat="44.0657" lon="3.44373">
        <ele>883.11</ele>
        <time>2019-08-25T12:43:36Z</time>
      </trkpt>
      <trkpt lat="44.06575" lon="3.44353">
        <ele>883.11</ele>
        <time>2019-08-25T12:43:49Z</time>
      </trkpt>
      <trkpt lat="44.06575" lon="3.44352">
        <ele>883.11</ele>
        <time>2019-08-25T12:43:50Z</time>
      </trkpt>
      <trkpt lat="44.06576" lon="3.44348">
        <ele>883.11</ele>
        <time>2019-08-25T12:43:52Z</time>
      </trkpt>
      <trkpt lat="44.06581" lon="3.44326">
        <ele>883.11</ele>
        <time>2019-08-25T12:44:05Z</time>
      </trkpt>
      <trkpt lat="44.06583" lon="3.44318">
        <ele>883.11</ele>
        <time>2019-08-25T12:44:10Z</time>
      </trkpt>
      <trkpt lat="44.06584" lon="3.44315">
        <ele>883.59</ele>
        <time>2019-08-25T12:44:12Z</time>
      </trkpt>
      <trkpt lat="44.06584" lon="3.44295">
        <ele>882.63</ele>
        <time>2019-08-25T12:44:24Z</time>
      </trkpt>
      <trkpt lat="44.06588" lon="3.44282">
        <ele>883.59</ele>
        <time>2019-08-25T12:44:32Z</time>
      </trkpt>
      <trkpt lat="44.06591" lon="3.44263">
        <ele>883.59</ele>
        <time>2019-08-25T12:44:44Z</time>
      </trkpt>
      <trkpt lat="44.06591" lon="3.44254">
        <ele>883.11</ele>
        <time>2019-08-25T12:44:50Z</time>
      </trkpt>
      <trkpt lat="44.06588" lon="3.44232">
        <ele>881.67</ele>
        <time>2019-08-25T12:45:03Z</time>
      </trkpt>
      <trkpt lat="44.06582" lon="3.44222">
        <ele>880.71</ele>
        <time>2019-08-25T12:45:16Z</time>
      </trkpt>
      <trkpt lat="44.06581" lon="3.44221">
        <ele>880.71</ele>
        <time>2019-08-25T12:45:17Z</time>
      </trkpt>
      <trkpt lat="44.06574" lon="3.44212">
        <ele>880.22</ele>
        <time>2019-08-25T12:45:25Z</time>
      </trkpt>
      <trkpt lat="44.06573" lon="3.44203">
        <ele>880.71</ele>
        <time>2019-08-25T12:45:31Z</time>
      </trkpt>
      <trkpt lat="44.06585" lon="3.44183">
        <ele>881.67</ele>
        <time>2019-08-25T12:45:48Z</time>
      </trkpt>
      <trkpt lat="44.06592" lon="3.44174">
        <ele>880.71</ele>
        <time>2019-08-25T12:45:57Z</time>
      </trkpt>
      <trkpt lat="44.06596" lon="3.44171">
        <ele>879.74</ele>
        <time>2019-08-25T12:46:01Z</time>
      </trkpt>
      <trkpt lat="44.06599" lon="3.44169">
        <ele>879.26</ele>
        <time>2019-08-25T12:46:04Z</time>
      </trkpt>
      <trkpt lat="44.06602" lon="3.44164">
        <ele>878.78</ele>
        <time>2019-08-25T12:46:07Z</time>
      </trkpt>
      <trkpt lat="44.06616" lon="3.44149">
        <ele>876.86</ele>
        <time>2019-08-25T12:46:21Z</time>
      </trkpt>
      <trkpt lat="44.06631" lon="3.44137">
        <ele>877.82</ele>
        <time>2019-08-25T12:46:34Z</time>
      </trkpt>
      <trkpt lat="44.06643" lon="3.44133">
        <ele>877.82</ele>
        <time>2019-08-25T12:46:44Z</time>
      </trkpt>
      <trkpt lat="44.06653" lon="3.4413">
        <ele>876.86</ele>
        <time>2019-08-25T12:46:53Z</time>
      </trkpt>
      <trkpt lat="44.06659" lon="3.44126">
        <ele>875.9</ele>
        <time>2019-08-25T12:46:59Z</time>
      </trkpt>
      <trkpt lat="44.06662" lon="3.44123">
        <ele>874.46</ele>
        <time>2019-08-25T12:47:02Z</time>
      </trkpt>
      <trkpt lat="44.06666" lon="3.44102">
        <ele>872.53</ele>
        <time>2019-08-25T12:47:17Z</time>
      </trkpt>
      <trkpt lat="44.06663" lon="3.44084">
        <ele>874.46</ele>
        <time>2019-08-25T12:47:25Z</time>
      </trkpt>
      <trkpt lat="44.06661" lon="3.44074">
        <ele>874.94</ele>
        <time>2019-08-25T12:47:31Z</time>
      </trkpt>
      <trkpt lat="44.06669" lon="3.4405">
        <ele>875.42</ele>
        <time>2019-08-25T12:47:47Z</time>
      </trkpt>
      <trkpt lat="44.06672" lon="3.44045">
        <ele>875.42</ele>
        <time>2019-08-25T12:47:51Z</time>
      </trkpt>
      <trkpt lat="44.06685" lon="3.44027">
        <ele>875.42</ele>
        <time>2019-08-25T12:48:07Z</time>
      </trkpt>
      <trkpt lat="44.06701" lon="3.44014">
        <ele>875.9</ele>
        <time>2019-08-25T12:48:21Z</time>
      </trkpt>
      <trkpt lat="44.06709" lon="3.44008">
        <ele>876.38</ele>
        <time>2019-08-25T12:48:30Z</time>
      </trkpt>
      <trkpt lat="44.06721" lon="3.44003">
        <ele>876.86</ele>
        <time>2019-08-25T12:48:39Z</time>
      </trkpt>
      <trkpt lat="44.06726" lon="3.43998">
        <ele>876.38</ele>
        <time>2019-08-25T12:48:44Z</time>
      </trkpt>
      <trkpt lat="44.0674" lon="3.43991">
        <ele>874.94</ele>
        <time>2019-08-25T12:48:57Z</time>
      </trkpt>
      <trkpt lat="44.06748" lon="3.43988">
        <ele>874.46</ele>
        <time>2019-08-25T12:49:03Z</time>
      </trkpt>
      <trkpt lat="44.06763" lon="3.43988">
        <ele>872.53</ele>
        <time>2019-08-25T12:49:15Z</time>
      </trkpt>
      <trkpt lat="44.06781" lon="3.4399">
        <ele>871.57</ele>
        <time>2019-08-25T12:49:29Z</time>
      </trkpt>
      <trkpt lat="44.06792" lon="3.43988">
        <ele>871.57</ele>
        <time>2019-08-25T12:49:39Z</time>
      </trkpt>
      <trkpt lat="44.06808" lon="3.43986">
        <ele>870.61</ele>
        <time>2019-08-25T12:49:52Z</time>
      </trkpt>
      <trkpt lat="44.06811" lon="3.43985">
        <ele>870.13</ele>
        <time>2019-08-25T12:49:54Z</time>
      </trkpt>
      <trkpt lat="44.06825" lon="3.43984">
        <ele>867.73</ele>
        <time>2019-08-25T12:50:06Z</time>
      </trkpt>
      <trkpt lat="44.06844" lon="3.43981">
        <ele>870.13</ele>
        <time>2019-08-25T12:50:22Z</time>
      </trkpt>
      <trkpt lat="44.06849" lon="3.43972">
        <ele>870.61</ele>
        <time>2019-08-25T12:50:29Z</time>
      </trkpt>
      <trkpt lat="44.06846" lon="3.43948">
        <ele>870.13</ele>
        <time>2019-08-25T12:50:41Z</time>
      </trkpt>
      <trkpt lat="44.0684" lon="3.43935">
        <ele>871.57</ele>
        <time>2019-08-25T12:50:49Z</time>
      </trkpt>
      <trkpt lat="44.06826" lon="3.43918">
        <ele>871.57</ele>
        <time>2019-08-25T12:51:03Z</time>
      </trkpt>
      <trkpt lat="44.06816" lon="3.43905">
        <ele>866.77</ele>
        <time>2019-08-25T12:51:15Z</time>
      </trkpt>
      <trkpt lat="44.06807" lon="3.43884">
        <ele>863.4</ele>
        <time>2019-08-25T12:51:30Z</time>
      </trkpt>
      <trkpt lat="44.06806" lon="3.43881">
        <ele>863.4</ele>
        <time>2019-08-25T12:51:32Z</time>
      </trkpt>
      <trkpt lat="44.06805" lon="3.43877">
        <ele>862.92</ele>
        <time>2019-08-25T12:51:34Z</time>
      </trkpt>
      <trkpt lat="44.06795" lon="3.43857">
        <ele>861.48</ele>
        <time>2019-08-25T12:51:48Z</time>
      </trkpt>
      <trkpt lat="44.06787" lon="3.43847">
        <ele>861.48</ele>
        <time>2019-08-25T12:51:56Z</time>
      </trkpt>
      <trkpt lat="44.06785" lon="3.43843">
        <ele>861.96</ele>
        <time>2019-08-25T12:51:59Z</time>
      </trkpt>
      <trkpt lat="44.06783" lon="3.43835">
        <ele>861.96</ele>
        <time>2019-08-25T12:52:04Z</time>
      </trkpt>
      <trkpt lat="44.06782" lon="3.43827">
        <ele>860.52</ele>
        <time>2019-08-25T12:52:10Z</time>
      </trkpt>
      <trkpt lat="44.06783" lon="3.43818">
        <ele>860.52</ele>
        <time>2019-08-25T12:52:15Z</time>
      </trkpt>
      <trkpt lat="44.06785" lon="3.43808">
        <ele>859.56</ele>
        <time>2019-08-25T12:52:22Z</time>
      </trkpt>
      <trkpt lat="44.06786" lon="3.43803">
        <ele>859.08</ele>
        <time>2019-08-25T12:52:25Z</time>
      </trkpt>
      <trkpt lat="44.06792" lon="3.43783">
        <ele>857.63</ele>
        <time>2019-08-25T12:52:38Z</time>
      </trkpt>
      <trkpt lat="44.06794" lon="3.43776">
        <ele>858.11</ele>
        <time>2019-08-25T12:52:42Z</time>
      </trkpt>
      <trkpt lat="44.06809" lon="3.43768">
        <ele>857.63</ele>
        <time>2019-08-25T12:52:55Z</time>
      </trkpt>
      <trkpt lat="44.06823" lon="3.43759">
        <ele>861.96</ele>
        <time>2019-08-25T12:53:07Z</time>
      </trkpt>
      <trkpt lat="44.06838" lon="3.43753">
        <ele>861.48</ele>
        <time>2019-08-25T12:53:19Z</time>
      </trkpt>
      <trkpt lat="44.0685" lon="3.43749">
        <ele>860.04</ele>
        <time>2019-08-25T12:53:30Z</time>
      </trkpt>
      <trkpt lat="44.06861" lon="3.43742">
        <ele>860.52</ele>
        <time>2019-08-25T12:53:42Z</time>
      </trkpt>
      <trkpt lat="44.06863" lon="3.43743">
        <ele>861</ele>
        <time>2019-08-25T12:53:43Z</time>
      </trkpt>
      <trkpt lat="44.06868" lon="3.43739">
        <ele>861.48</ele>
        <time>2019-08-25T12:53:47Z</time>
      </trkpt>
      <trkpt lat="44.06884" lon="3.43734">
        <ele>862.44</ele>
        <time>2019-08-25T12:53:58Z</time>
      </trkpt>
      <trkpt lat="44.06901" lon="3.43732">
        <ele>861</ele>
        <time>2019-08-25T12:54:12Z</time>
      </trkpt>
      <trkpt lat="44.06916" lon="3.43722">
        <ele>862.44</ele>
        <time>2019-08-25T12:54:25Z</time>
      </trkpt>
      <trkpt lat="44.06929" lon="3.4371">
        <ele>860.52</ele>
        <time>2019-08-25T12:54:38Z</time>
      </trkpt>
      <trkpt lat="44.06944" lon="3.43704">
        <ele>861</ele>
        <time>2019-08-25T12:54:50Z</time>
      </trkpt>
      <trkpt lat="44.06948" lon="3.43701">
        <ele>861</ele>
        <time>2019-08-25T12:54:53Z</time>
      </trkpt>
      <trkpt lat="44.06959" lon="3.43687">
        <ele>861</ele>
        <time>2019-08-25T12:55:06Z</time>
      </trkpt>
      <trkpt lat="44.06963" lon="3.4368">
        <ele>859.56</ele>
        <time>2019-08-25T12:55:12Z</time>
      </trkpt>
      <trkpt lat="44.06967" lon="3.43676">
        <ele>858.59</ele>
        <time>2019-08-25T12:55:16Z</time>
      </trkpt>
      <trkpt lat="44.06975" lon="3.43665">
        <ele>856.67</ele>
        <time>2019-08-25T12:55:24Z</time>
      </trkpt>
      <trkpt lat="44.06981" lon="3.43657">
        <ele>854.27</ele>
        <time>2019-08-25T12:55:31Z</time>
      </trkpt>
      <trkpt lat="44.0698" lon="3.43643">
        <ele>853.31</ele>
        <time>2019-08-25T12:55:37Z</time>
      </trkpt>
      <trkpt lat="44.06971" lon="3.43635">
        <ele>849.94</ele>
        <time>2019-08-25T12:55:48Z</time>
      </trkpt>
      <trkpt lat="44.06959" lon="3.43637">
        <ele>848.98</ele>
        <time>2019-08-25T12:55:57Z</time>
      </trkpt>
      <trkpt lat="44.06943" lon="3.43637">
        <ele>846.58</ele>
        <time>2019-08-25T12:56:11Z</time>
      </trkpt>
      <trkpt lat="44.06927" lon="3.43632">
        <ele>843.21</ele>
        <time>2019-08-25T12:56:25Z</time>
      </trkpt>
      <trkpt lat="44.06913" lon="3.43628">
        <ele>843.21</ele>
        <time>2019-08-25T12:56:37Z</time>
      </trkpt>
      <trkpt lat="44.069" lon="3.43628">
        <ele>844.66</ele>
        <time>2019-08-25T12:56:48Z</time>
      </trkpt>
      <trkpt lat="44.06888" lon="3.43627">
        <ele>846.58</ele>
        <time>2019-08-25T12:56:57Z</time>
      </trkpt>
      <trkpt lat="44.06873" lon="3.43628">
        <ele>847.54</ele>
        <time>2019-08-25T12:57:10Z</time>
      </trkpt>
      <trkpt lat="44.06859" lon="3.43626">
        <ele>844.18</ele>
        <time>2019-08-25T12:57:22Z</time>
      </trkpt>
      <trkpt lat="44.06852" lon="3.43623">
        <ele>845.62</ele>
        <time>2019-08-25T12:57:33Z</time>
      </trkpt>
      <trkpt lat="44.06845" lon="3.43623">
        <ele>847.06</ele>
        <time>2019-08-25T12:57:54Z</time>
      </trkpt>
      <trkpt lat="44.06832" lon="3.43622">
        <ele>847.06</ele>
        <time>2019-08-25T12:58:05Z</time>
      </trkpt>
      <trkpt lat="44.06825" lon="3.43621">
        <ele>846.1</ele>
        <time>2019-08-25T12:58:12Z</time>
      </trkpt>
      <trkpt lat="44.0682" lon="3.43618">
        <ele>846.1</ele>
        <time>2019-08-25T12:58:16Z</time>
      </trkpt>
      <trkpt lat="44.0681" lon="3.43603">
        <ele>844.66</ele>
        <time>2019-08-25T12:58:28Z</time>
      </trkpt>
      <trkpt lat="44.06808" lon="3.436">
        <ele>844.66</ele>
        <time>2019-08-25T12:58:30Z</time>
      </trkpt>
      <trkpt lat="44.06797" lon="3.4359">
        <ele>843.21</ele>
        <time>2019-08-25T12:58:44Z</time>
      </trkpt>
      <trkpt lat="44.06783" lon="3.43583">
        <ele>844.18</ele>
        <time>2019-08-25T12:58:56Z</time>
      </trkpt>
      <trkpt lat="44.06779" lon="3.43581">
        <ele>843.69</ele>
        <time>2019-08-25T12:58:59Z</time>
      </trkpt>
      <trkpt lat="44.06764" lon="3.43565">
        <ele>843.69</ele>
        <time>2019-08-25T12:59:13Z</time>
      </trkpt>
      <trkpt lat="44.06759" lon="3.43554">
        <ele>842.73</ele>
        <time>2019-08-25T12:59:20Z</time>
      </trkpt>
      <trkpt lat="44.06758" lon="3.43549">
        <ele>841.77</ele>
        <time>2019-08-25T12:59:23Z</time>
      </trkpt>
      <trkpt lat="44.06759" lon="3.43546">
        <ele>840.81</ele>
        <time>2019-08-25T12:59:25Z</time>
      </trkpt>
      <trkpt lat="44.06755" lon="3.43535">
        <ele>841.77</ele>
        <time>2019-08-25T12:59:32Z</time>
      </trkpt>
      <trkpt lat="44.06754" lon="3.43531">
        <ele>841.29</ele>
        <time>2019-08-25T12:59:35Z</time>
      </trkpt>
      <trkpt lat="44.06752" lon="3.43511">
        <ele>839.37</ele>
        <time>2019-08-25T12:59:48Z</time>
      </trkpt>
      <trkpt lat="44.06753" lon="3.4349">
        <ele>839.85</ele>
        <time>2019-08-25T13:00:01Z</time>
      </trkpt>
      <trkpt lat="44.06753" lon="3.43482">
        <ele>839.37</ele>
        <time>2019-08-25T13:00:05Z</time>
      </trkpt>
      <trkpt lat="44.06752" lon="3.4346">
        <ele>841.29</ele>
        <time>2019-08-25T13:00:17Z</time>
      </trkpt>
      <trkpt lat="44.06749" lon="3.43435">
        <ele>842.73</ele>
        <time>2019-08-25T13:00:30Z</time>
      </trkpt>
      <trkpt lat="44.06748" lon="3.43433">
        <ele>842.25</ele>
        <time>2019-08-25T13:00:32Z</time>
      </trkpt>
      <trkpt lat="44.06748" lon="3.43411">
        <ele>842.25</ele>
        <time>2019-08-25T13:00:46Z</time>
      </trkpt>
      <trkpt lat="44.0675" lon="3.43385">
        <ele>841.29</ele>
        <time>2019-08-25T13:01:02Z</time>
      </trkpt>
      <trkpt lat="44.06755" lon="3.43365">
        <ele>841.29</ele>
        <time>2019-08-25T13:01:14Z</time>
      </trkpt>
      <trkpt lat="44.06759" lon="3.4335">
        <ele>841.77</ele>
        <time>2019-08-25T13:01:26Z</time>
      </trkpt>
      <trkpt lat="44.06764" lon="3.43333">
        <ele>840.33</ele>
        <time>2019-08-25T13:01:39Z</time>
      </trkpt>
      <trkpt lat="44.06766" lon="3.43327">
        <ele>840.33</ele>
        <time>2019-08-25T13:01:42Z</time>
      </trkpt>
      <trkpt lat="44.06769" lon="3.4332">
        <ele>840.81</ele>
        <time>2019-08-25T13:01:48Z</time>
      </trkpt>
      <trkpt lat="44.06773" lon="3.433">
        <ele>842.73</ele>
        <time>2019-08-25T13:01:59Z</time>
      </trkpt>
      <trkpt lat="44.06776" lon="3.43294">
        <ele>842.73</ele>
        <time>2019-08-25T13:02:04Z</time>
      </trkpt>
      <trkpt lat="44.06779" lon="3.43281">
        <ele>842.73</ele>
        <time>2019-08-25T13:02:12Z</time>
      </trkpt>
      <trkpt lat="44.06781" lon="3.43273">
        <ele>842.73</ele>
        <time>2019-08-25T13:02:17Z</time>
      </trkpt>
      <trkpt lat="44.06785" lon="3.43265">
        <ele>842.73</ele>
        <time>2019-08-25T13:02:23Z</time>
      </trkpt>
      <trkpt lat="44.06786" lon="3.4326">
        <ele>842.73</ele>
        <time>2019-08-25T13:02:27Z</time>
      </trkpt>
      <trkpt lat="44.0679" lon="3.43257">
        <ele>842.25</ele>
        <time>2019-08-25T13:02:31Z</time>
      </trkpt>
      <trkpt lat="44.06795" lon="3.43244">
        <ele>841.77</ele>
        <time>2019-08-25T13:02:41Z</time>
      </trkpt>
      <trkpt lat="44.06799" lon="3.43238">
        <ele>841.77</ele>
        <time>2019-08-25T13:02:46Z</time>
      </trkpt>
      <trkpt lat="44.0681" lon="3.43216">
        <ele>840.81</ele>
        <time>2019-08-25T13:03:00Z</time>
      </trkpt>
      <trkpt lat="44.06808" lon="3.43194">
        <ele>840.81</ele>
        <time>2019-08-25T13:03:12Z</time>
      </trkpt>
      <trkpt lat="44.06803" lon="3.43177">
        <ele>841.77</ele>
        <time>2019-08-25T13:03:22Z</time>
      </trkpt>
      <trkpt lat="44.06802" lon="3.43173">
        <ele>841.77</ele>
        <time>2019-08-25T13:03:25Z</time>
      </trkpt>
      <trkpt lat="44.06798" lon="3.43152">
        <ele>836.48</ele>
        <time>2019-08-25T13:03:39Z</time>
      </trkpt>
      <trkpt lat="44.06794" lon="3.43135">
        <ele>833.12</ele>
        <time>2019-08-25T13:03:50Z</time>
      </trkpt>
      <trkpt lat="44.06793" lon="3.43134">
        <ele>833.12</ele>
        <time>2019-08-25T13:03:51Z</time>
      </trkpt>
      <trkpt lat="44.0679" lon="3.43124">
        <ele>833.12</ele>
        <time>2019-08-25T13:03:57Z</time>
      </trkpt>
      <trkpt lat="44.06789" lon="3.43119">
        <ele>833.12</ele>
        <time>2019-08-25T13:04:00Z</time>
      </trkpt>
      <trkpt lat="44.06781" lon="3.43104">
        <ele>834.08</ele>
        <time>2019-08-25T13:04:11Z</time>
      </trkpt>
      <trkpt lat="44.06775" lon="3.43095">
        <ele>831.68</ele>
        <time>2019-08-25T13:04:19Z</time>
      </trkpt>
      <trkpt lat="44.06766" lon="3.43094">
        <ele>827.83</ele>
        <time>2019-08-25T13:04:29Z</time>
      </trkpt>
      <trkpt lat="44.06753" lon="3.43103">
        <ele>827.83</ele>
        <time>2019-08-25T13:04:41Z</time>
      </trkpt>
      <trkpt lat="44.06751" lon="3.43108">
        <ele>826.39</ele>
        <time>2019-08-25T13:04:45Z</time>
      </trkpt>
      <trkpt lat="44.06742" lon="3.43125">
        <ele>825.91</ele>
        <time>2019-08-25T13:04:57Z</time>
      </trkpt>
      <trkpt lat="44.0674" lon="3.43127">
        <ele>826.87</ele>
        <time>2019-08-25T13:04:59Z</time>
      </trkpt>
      <trkpt lat="44.06732" lon="3.43145">
        <ele>836</ele>
        <time>2019-08-25T13:05:12Z</time>
      </trkpt>
      <trkpt lat="44.06716" lon="3.43159">
        <ele>840.81</ele>
        <time>2019-08-25T13:05:27Z</time>
      </trkpt>
      <trkpt lat="44.06702" lon="3.43165">
        <ele>842.73</ele>
        <time>2019-08-25T13:05:39Z</time>
      </trkpt>
      <trkpt lat="44.06687" lon="3.43166">
        <ele>843.69</ele>
        <time>2019-08-25T13:05:52Z</time>
      </trkpt>
      <trkpt lat="44.06671" lon="3.43159">
        <ele>845.62</ele>
        <time>2019-08-25T13:06:05Z</time>
      </trkpt>
      <trkpt lat="44.06667" lon="3.43151">
        <ele>847.06</ele>
        <time>2019-08-25T13:06:13Z</time>
      </trkpt>
      <trkpt lat="44.06665" lon="3.43148">
        <ele>847.06</ele>
        <time>2019-08-25T13:06:15Z</time>
      </trkpt>
      <trkpt lat="44.06661" lon="3.43134">
        <ele>845.14</ele>
        <time>2019-08-25T13:06:25Z</time>
      </trkpt>
      <trkpt lat="44.06657" lon="3.43122">
        <ele>841.29</ele>
        <time>2019-08-25T13:06:36Z</time>
      </trkpt>
      <trkpt lat="44.06654" lon="3.43119">
        <ele>839.37</ele>
        <time>2019-08-25T13:06:39Z</time>
      </trkpt>
      <trkpt lat="44.06641" lon="3.43112">
        <ele>836.48</ele>
        <time>2019-08-25T13:06:49Z</time>
      </trkpt>
      <trkpt lat="44.06624" lon="3.43114">
        <ele>842.25</ele>
        <time>2019-08-25T13:07:03Z</time>
      </trkpt>
      <trkpt lat="44.0662" lon="3.43117">
        <ele>843.21</ele>
        <time>2019-08-25T13:07:07Z</time>
      </trkpt>
      <trkpt lat="44.06604" lon="3.43119">
        <ele>845.62</ele>
        <time>2019-08-25T13:07:20Z</time>
      </trkpt>
      <trkpt lat="44.06588" lon="3.43115">
        <ele>847.54</ele>
        <time>2019-08-25T13:07:33Z</time>
      </trkpt>
      <trkpt lat="44.06574" lon="3.43107">
        <ele>845.62</ele>
        <time>2019-08-25T13:07:47Z</time>
      </trkpt>
      <trkpt lat="44.06571" lon="3.43105">
        <ele>846.1</ele>
        <time>2019-08-25T13:07:50Z</time>
      </trkpt>
      <trkpt lat="44.06568" lon="3.43101">
        <ele>846.58</ele>
        <time>2019-08-25T13:07:53Z</time>
      </trkpt>
      <trkpt lat="44.06563" lon="3.43095">
        <ele>846.58</ele>
        <time>2019-08-25T13:07:59Z</time>
      </trkpt>
      <trkpt lat="44.06563" lon="3.43076">
        <ele>848.5</ele>
        <time>2019-08-25T13:08:13Z</time>
      </trkpt>
      <trkpt lat="44.06566" lon="3.43062">
        <ele>848.02</ele>
        <time>2019-08-25T13:08:24Z</time>
      </trkpt>
      <trkpt lat="44.06568" lon="3.43055">
        <ele>847.54</ele>
        <time>2019-08-25T13:08:29Z</time>
      </trkpt>
      <trkpt lat="44.06569" lon="3.43038">
        <ele>848.02</ele>
        <time>2019-08-25T13:08:40Z</time>
      </trkpt>
      <trkpt lat="44.06569" lon="3.43025">
        <ele>848.5</ele>
        <time>2019-08-25T13:08:47Z</time>
      </trkpt>
      <trkpt lat="44.06568" lon="3.43015">
        <ele>847.06</ele>
        <time>2019-08-25T13:08:53Z</time>
      </trkpt>
      <trkpt lat="44.06564" lon="3.42998">
        <ele>848.5</ele>
        <time>2019-08-25T13:09:02Z</time>
      </trkpt>
      <trkpt lat="44.06564" lon="3.42994">
        <ele>849.46</ele>
        <time>2019-08-25T13:09:04Z</time>
      </trkpt>
      <trkpt lat="44.06561" lon="3.42986">
        <ele>850.42</ele>
        <time>2019-08-25T13:09:09Z</time>
      </trkpt>
      <trkpt lat="44.06554" lon="3.42968">
        <ele>850.9</ele>
        <time>2019-08-25T13:09:22Z</time>
      </trkpt>
      <trkpt lat="44.06553" lon="3.4296">
        <ele>851.38</ele>
        <time>2019-08-25T13:09:27Z</time>
      </trkpt>
      <trkpt lat="44.06548" lon="3.42938">
        <ele>855.23</ele>
        <time>2019-08-25T13:09:41Z</time>
      </trkpt>
      <trkpt lat="44.06547" lon="3.42927">
        <ele>855.71</ele>
        <time>2019-08-25T13:09:48Z</time>
      </trkpt>
      <trkpt lat="44.06548" lon="3.42921">
        <ele>854.75</ele>
        <time>2019-08-25T13:09:52Z</time>
      </trkpt>
      <trkpt lat="44.06551" lon="3.4291">
        <ele>855.23</ele>
        <time>2019-08-25T13:10:01Z</time>
      </trkpt>
      <trkpt lat="44.0656" lon="3.42894">
        <ele>857.63</ele>
        <time>2019-08-25T13:10:15Z</time>
      </trkpt>
      <trkpt lat="44.06571" lon="3.4288">
        <ele>860.04</ele>
        <time>2019-08-25T13:10:28Z</time>
      </trkpt>
      <trkpt lat="44.06581" lon="3.42865">
        <ele>860.04</ele>
        <time>2019-08-25T13:10:41Z</time>
      </trkpt>
      <trkpt lat="44.06586" lon="3.42859">
        <ele>860.52</ele>
        <time>2019-08-25T13:10:47Z</time>
      </trkpt>
      <trkpt lat="44.06595" lon="3.42844">
        <ele>861.96</ele>
        <time>2019-08-25T13:10:59Z</time>
      </trkpt>
      <trkpt lat="44.06597" lon="3.42841">
        <ele>861.96</ele>
        <time>2019-08-25T13:11:02Z</time>
      </trkpt>
      <trkpt lat="44.06597" lon="3.42825">
        <ele>865.32</ele>
        <time>2019-08-25T13:11:13Z</time>
      </trkpt>
      <trkpt lat="44.06597" lon="3.42821">
        <ele>866.29</ele>
        <time>2019-08-25T13:11:25Z</time>
      </trkpt>
      <trkpt lat="44.06601" lon="3.42822">
        <ele>866.29</ele>
        <time>2019-08-25T13:11:38Z</time>
      </trkpt>
      <trkpt lat="44.06605" lon="3.4282">
        <ele>866.29</ele>
        <time>2019-08-25T13:11:52Z</time>
      </trkpt>
      <trkpt lat="44.06607" lon="3.42814">
        <ele>868.21</ele>
        <time>2019-08-25T13:12:36Z</time>
      </trkpt>
      <trkpt lat="44.06599" lon="3.42817">
        <ele>868.69</ele>
        <time>2019-08-25T13:12:55Z</time>
      </trkpt>
      <trkpt lat="44.06598" lon="3.42821">
        <ele>863.4</ele>
        <time>2019-08-25T13:13:07Z</time>
      </trkpt>
      <trkpt lat="44.06597" lon="3.42823">
        <ele>864.84</ele>
        <time>2019-08-25T13:13:37Z</time>
      </trkpt>
      <trkpt lat="44.06597" lon="3.42825">
        <ele>869.65</ele>
        <time>2019-08-25T13:14:06Z</time>
      </trkpt>
      <trkpt lat="44.06595" lon="3.4283">
        <ele>869.65</ele>
        <time>2019-08-25T13:14:26Z</time>
      </trkpt>
      <trkpt lat="44.06594" lon="3.42827">
        <ele>871.09</ele>
        <time>2019-08-25T13:14:35Z</time>
      </trkpt>
      <trkpt lat="44.06595" lon="3.42801">
        <ele>870.13</ele>
        <time>2019-08-25T13:14:48Z</time>
      </trkpt>
      <trkpt lat="44.06597" lon="3.42785">
        <ele>867.73</ele>
        <time>2019-08-25T13:14:58Z</time>
      </trkpt>
      <trkpt lat="44.06597" lon="3.42762">
        <ele>862.92</ele>
        <time>2019-08-25T13:15:12Z</time>
      </trkpt>
      <trkpt lat="44.06598" lon="3.42754">
        <ele>863.4</ele>
        <time>2019-08-25T13:15:17Z</time>
      </trkpt>
      <trkpt lat="44.06599" lon="3.42738">
        <ele>864.84</ele>
        <time>2019-08-25T13:15:28Z</time>
      </trkpt>
      <trkpt lat="44.06597" lon="3.42721">
        <ele>865.8</ele>
        <time>2019-08-25T13:15:40Z</time>
      </trkpt>
      <trkpt lat="44.06592" lon="3.427">
        <ele>867.73</ele>
        <time>2019-08-25T13:15:52Z</time>
      </trkpt>
      <trkpt lat="44.06592" lon="3.42681">
        <ele>868.21</ele>
        <time>2019-08-25T13:16:04Z</time>
      </trkpt>
      <trkpt lat="44.06592" lon="3.42678">
        <ele>867.73</ele>
        <time>2019-08-25T13:16:06Z</time>
      </trkpt>
      <trkpt lat="44.06594" lon="3.42661">
        <ele>867.73</ele>
        <time>2019-08-25T13:16:16Z</time>
      </trkpt>
      <trkpt lat="44.06595" lon="3.42654">
        <ele>867.25</ele>
        <time>2019-08-25T13:16:20Z</time>
      </trkpt>
      <trkpt lat="44.06601" lon="3.42628">
        <ele>866.29</ele>
        <time>2019-08-25T13:16:37Z</time>
      </trkpt>
      <trkpt lat="44.06602" lon="3.42627">
        <ele>865.8</ele>
        <time>2019-08-25T13:16:38Z</time>
      </trkpt>
      <trkpt lat="44.0661" lon="3.42617">
        <ele>866.77</ele>
        <time>2019-08-25T13:16:48Z</time>
      </trkpt>
      <trkpt lat="44.06625" lon="3.42613">
        <ele>867.73</ele>
        <time>2019-08-25T13:17:01Z</time>
      </trkpt>
      <trkpt lat="44.06639" lon="3.42613">
        <ele>866.77</ele>
        <time>2019-08-25T13:17:14Z</time>
      </trkpt>
      <trkpt lat="44.06655" lon="3.42612">
        <ele>867.25</ele>
        <time>2019-08-25T13:17:26Z</time>
      </trkpt>
      <trkpt lat="44.06671" lon="3.42609">
        <ele>867.25</ele>
        <time>2019-08-25T13:17:41Z</time>
      </trkpt>
      <trkpt lat="44.06685" lon="3.42606">
        <ele>868.21</ele>
        <time>2019-08-25T13:17:53Z</time>
      </trkpt>
      <trkpt lat="44.06699" lon="3.42601">
        <ele>869.17</ele>
        <time>2019-08-25T13:18:04Z</time>
      </trkpt>
      <trkpt lat="44.067" lon="3.42599">
        <ele>869.17</ele>
        <time>2019-08-25T13:18:06Z</time>
      </trkpt>
      <trkpt lat="44.06709" lon="3.42594">
        <ele>870.13</ele>
        <time>2019-08-25T13:18:14Z</time>
      </trkpt>
      <trkpt lat="44.06719" lon="3.42582">
        <ele>869.65</ele>
        <time>2019-08-25T13:18:27Z</time>
      </trkpt>
      <trkpt lat="44.06731" lon="3.42566">
        <ele>870.13</ele>
        <time>2019-08-25T13:18:41Z</time>
      </trkpt>
      <trkpt lat="44.06732" lon="3.42565">
        <ele>870.13</ele>
        <time>2019-08-25T13:18:42Z</time>
      </trkpt>
      <trkpt lat="44.06734" lon="3.4256">
        <ele>869.17</ele>
        <time>2019-08-25T13:18:46Z</time>
      </trkpt>
      <trkpt lat="44.06742" lon="3.4255">
        <ele>866.29</ele>
        <time>2019-08-25T13:18:55Z</time>
      </trkpt>
      <trkpt lat="44.06746" lon="3.4253">
        <ele>865.8</ele>
        <time>2019-08-25T13:19:07Z</time>
      </trkpt>
      <trkpt lat="44.06749" lon="3.4251">
        <ele>866.29</ele>
        <time>2019-08-25T13:19:18Z</time>
      </trkpt>
      <trkpt lat="44.06752" lon="3.42487">
        <ele>864.84</ele>
        <time>2019-08-25T13:19:32Z</time>
      </trkpt>
      <trkpt lat="44.06754" lon="3.42482">
        <ele>863.88</ele>
        <time>2019-08-25T13:19:35Z</time>
      </trkpt>
      <trkpt lat="44.06755" lon="3.4246">
        <ele>862.44</ele>
        <time>2019-08-25T13:19:47Z</time>
      </trkpt>
      <trkpt lat="44.06748" lon="3.42439">
        <ele>861.96</ele>
        <time>2019-08-25T13:20:01Z</time>
      </trkpt>
      <trkpt lat="44.06742" lon="3.42415">
        <ele>861</ele>
        <time>2019-08-25T13:20:16Z</time>
      </trkpt>
      <trkpt lat="44.06741" lon="3.42407">
        <ele>860.52</ele>
        <time>2019-08-25T13:20:21Z</time>
      </trkpt>
      <trkpt lat="44.06739" lon="3.42403">
        <ele>860.04</ele>
        <time>2019-08-25T13:20:24Z</time>
      </trkpt>
      <trkpt lat="44.06729" lon="3.42389">
        <ele>861.96</ele>
        <time>2019-08-25T13:20:35Z</time>
      </trkpt>
      <trkpt lat="44.06724" lon="3.42383">
        <ele>863.88</ele>
        <time>2019-08-25T13:20:50Z</time>
      </trkpt>
      <trkpt lat="44.06719" lon="3.42379">
        <ele>863.4</ele>
        <time>2019-08-25T13:21:02Z</time>
      </trkpt>
      <trkpt lat="44.06711" lon="3.42372">
        <ele>863.88</ele>
        <time>2019-08-25T13:21:11Z</time>
      </trkpt>
      <trkpt lat="44.06705" lon="3.42369">
        <ele>864.84</ele>
        <time>2019-08-25T13:21:16Z</time>
      </trkpt>
      <trkpt lat="44.067" lon="3.42364">
        <ele>865.32</ele>
        <time>2019-08-25T13:21:20Z</time>
      </trkpt>
      <trkpt lat="44.06698" lon="3.42361">
        <ele>866.29</ele>
        <time>2019-08-25T13:21:23Z</time>
      </trkpt>
      <trkpt lat="44.06695" lon="3.42356">
        <ele>866.77</ele>
        <time>2019-08-25T13:21:27Z</time>
      </trkpt>
      <trkpt lat="44.06688" lon="3.42335">
        <ele>866.29</ele>
        <time>2019-08-25T13:21:40Z</time>
      </trkpt>
      <trkpt lat="44.06684" lon="3.42328">
        <ele>866.29</ele>
        <time>2019-08-25T13:21:45Z</time>
      </trkpt>
      <trkpt lat="44.06677" lon="3.42313">
        <ele>866.77</ele>
        <time>2019-08-25T13:21:59Z</time>
      </trkpt>
      <trkpt lat="44.06666" lon="3.42305">
        <ele>867.25</ele>
        <time>2019-08-25T13:22:11Z</time>
      </trkpt>
      <trkpt lat="44.06665" lon="3.42305">
        <ele>867.25</ele>
        <time>2019-08-25T13:22:12Z</time>
      </trkpt>
      <trkpt lat="44.06658" lon="3.42305">
        <ele>867.73</ele>
        <time>2019-08-25T13:22:18Z</time>
      </trkpt>
      <trkpt lat="44.06653" lon="3.42305">
        <ele>868.69</ele>
        <time>2019-08-25T13:22:21Z</time>
      </trkpt>
      <trkpt lat="44.06647" lon="3.42309">
        <ele>870.13</ele>
        <time>2019-08-25T13:22:26Z</time>
      </trkpt>
      <trkpt lat="44.06645" lon="3.4231">
        <ele>870.61</ele>
        <time>2019-08-25T13:22:28Z</time>
      </trkpt>
      <trkpt lat="44.0663" lon="3.42312">
        <ele>872.05</ele>
        <time>2019-08-25T13:22:40Z</time>
      </trkpt>
      <trkpt lat="44.06619" lon="3.4231">
        <ele>872.05</ele>
        <time>2019-08-25T13:22:50Z</time>
      </trkpt>
      <trkpt lat="44.06604" lon="3.42303">
        <ele>870.13</ele>
        <time>2019-08-25T13:23:04Z</time>
      </trkpt>
      <trkpt lat="44.06595" lon="3.423">
        <ele>870.13</ele>
        <time>2019-08-25T13:23:12Z</time>
      </trkpt>
      <trkpt lat="44.06579" lon="3.42294">
        <ele>871.57</ele>
        <time>2019-08-25T13:23:27Z</time>
      </trkpt>
      <trkpt lat="44.06575" lon="3.42292">
        <ele>871.57</ele>
        <time>2019-08-25T13:23:31Z</time>
      </trkpt>
      <trkpt lat="44.0657" lon="3.42289">
        <ele>872.53</ele>
        <time>2019-08-25T13:23:36Z</time>
      </trkpt>
      <trkpt lat="44.06561" lon="3.42278">
        <ele>872.05</ele>
        <time>2019-08-25T13:23:49Z</time>
      </trkpt>
      <trkpt lat="44.0655" lon="3.42268">
        <ele>873.98</ele>
        <time>2019-08-25T13:24:00Z</time>
      </trkpt>
      <trkpt lat="44.06549" lon="3.42264">
        <ele>873.98</ele>
        <time>2019-08-25T13:24:03Z</time>
      </trkpt>
      <trkpt lat="44.06547" lon="3.42261">
        <ele>873.98</ele>
        <time>2019-08-25T13:24:06Z</time>
      </trkpt>
      <trkpt lat="44.06539" lon="3.42244">
        <ele>872.53</ele>
        <time>2019-08-25T13:24:19Z</time>
      </trkpt>
      <trkpt lat="44.06526" lon="3.42223">
        <ele>872.05</ele>
        <time>2019-08-25T13:24:35Z</time>
      </trkpt>
      <trkpt lat="44.0652" lon="3.42217">
        <ele>873.01</ele>
        <time>2019-08-25T13:24:41Z</time>
      </trkpt>
      <trkpt lat="44.06518" lon="3.42212">
        <ele>873.01</ele>
        <time>2019-08-25T13:24:44Z</time>
      </trkpt>
      <trkpt lat="44.0651" lon="3.42194">
        <ele>873.5</ele>
        <time>2019-08-25T13:24:57Z</time>
      </trkpt>
      <trkpt lat="44.06504" lon="3.42173">
        <ele>875.9</ele>
        <time>2019-08-25T13:25:10Z</time>
      </trkpt>
      <trkpt lat="44.06503" lon="3.42167">
        <ele>876.38</ele>
        <time>2019-08-25T13:25:13Z</time>
      </trkpt>
      <trkpt lat="44.06504" lon="3.42157">
        <ele>877.34</ele>
        <time>2019-08-25T13:25:19Z</time>
      </trkpt>
      <trkpt lat="44.06509" lon="3.4214">
        <ele>876.86</ele>
        <time>2019-08-25T13:25:32Z</time>
      </trkpt>
      <trkpt lat="44.06514" lon="3.42126">
        <ele>874.94</ele>
        <time>2019-08-25T13:25:44Z</time>
      </trkpt>
      <trkpt lat="44.06518" lon="3.42115">
        <ele>870.61</ele>
        <time>2019-08-25T13:25:53Z</time>
      </trkpt>
      <trkpt lat="44.06522" lon="3.42103">
        <ele>869.65</ele>
        <time>2019-08-25T13:26:01Z</time>
      </trkpt>
      <trkpt lat="44.0653" lon="3.42083">
        <ele>871.09</ele>
        <time>2019-08-25T13:26:15Z</time>
      </trkpt>
      <trkpt lat="44.06534" lon="3.42064">
        <ele>871.09</ele>
        <time>2019-08-25T13:26:29Z</time>
      </trkpt>
      <trkpt lat="44.06534" lon="3.42062">
        <ele>871.09</ele>
        <time>2019-08-25T13:26:30Z</time>
      </trkpt>
      <trkpt lat="44.06543" lon="3.42039">
        <ele>875.42</ele>
        <time>2019-08-25T13:26:44Z</time>
      </trkpt>
      <trkpt lat="44.06548" lon="3.42021">
        <ele>873.98</ele>
        <time>2019-08-25T13:26:57Z</time>
      </trkpt>
      <trkpt lat="44.06549" lon="3.42012">
        <ele>873.5</ele>
        <time>2019-08-25T13:27:03Z</time>
      </trkpt>
      <trkpt lat="44.06556" lon="3.41997">
        <ele>872.53</ele>
        <time>2019-08-25T13:27:14Z</time>
      </trkpt>
      <trkpt lat="44.0656" lon="3.41977">
        <ele>872.05</ele>
        <time>2019-08-25T13:27:27Z</time>
      </trkpt>
      <trkpt lat="44.06563" lon="3.41962">
        <ele>871.09</ele>
        <time>2019-08-25T13:27:37Z</time>
      </trkpt>
      <trkpt lat="44.06566" lon="3.41943">
        <ele>869.17</ele>
        <time>2019-08-25T13:27:49Z</time>
      </trkpt>
      <trkpt lat="44.06567" lon="3.41933">
        <ele>868.69</ele>
        <time>2019-08-25T13:27:55Z</time>
      </trkpt>
      <trkpt lat="44.06566" lon="3.41927">
        <ele>868.69</ele>
        <time>2019-08-25T13:27:58Z</time>
      </trkpt>
      <trkpt lat="44.0657" lon="3.41909">
        <ele>869.65</ele>
        <time>2019-08-25T13:28:09Z</time>
      </trkpt>
      <trkpt lat="44.0657" lon="3.41903">
        <ele>869.17</ele>
        <time>2019-08-25T13:28:12Z</time>
      </trkpt>
      <trkpt lat="44.06574" lon="3.41895">
        <ele>867.73</ele>
        <time>2019-08-25T13:28:17Z</time>
      </trkpt>
      <trkpt lat="44.06574" lon="3.41883">
        <ele>867.73</ele>
        <time>2019-08-25T13:28:23Z</time>
      </trkpt>
      <trkpt lat="44.06574" lon="3.41879">
        <ele>868.69</ele>
        <time>2019-08-25T13:28:25Z</time>
      </trkpt>
      <trkpt lat="44.0658" lon="3.41858">
        <ele>872.05</ele>
        <time>2019-08-25T13:28:36Z</time>
      </trkpt>
      <trkpt lat="44.06591" lon="3.41838">
        <ele>871.09</ele>
        <time>2019-08-25T13:28:51Z</time>
      </trkpt>
      <trkpt lat="44.06596" lon="3.4183">
        <ele>872.05</ele>
        <time>2019-08-25T13:28:58Z</time>
      </trkpt>
      <trkpt lat="44.06608" lon="3.41821">
        <ele>873.01</ele>
        <time>2019-08-25T13:29:08Z</time>
      </trkpt>
      <trkpt lat="44.06614" lon="3.41816">
        <ele>873.5</ele>
        <time>2019-08-25T13:29:14Z</time>
      </trkpt>
      <trkpt lat="44.06632" lon="3.41814">
        <ele>874.46</ele>
        <time>2019-08-25T13:29:28Z</time>
      </trkpt>
      <trkpt lat="44.0664" lon="3.41814">
        <ele>875.9</ele>
        <time>2019-08-25T13:29:34Z</time>
      </trkpt>
      <trkpt lat="44.06658" lon="3.4181">
        <ele>878.3</ele>
        <time>2019-08-25T13:29:49Z</time>
      </trkpt>
      <trkpt lat="44.06664" lon="3.4181">
        <ele>879.74</ele>
        <time>2019-08-25T13:29:54Z</time>
      </trkpt>
      <trkpt lat="44.06676" lon="3.41807">
        <ele>882.15</ele>
        <time>2019-08-25T13:30:07Z</time>
      </trkpt>
      <trkpt lat="44.06684" lon="3.41805">
        <ele>882.15</ele>
        <time>2019-08-25T13:30:18Z</time>
      </trkpt>
      <trkpt lat="44.06687" lon="3.41803">
        <ele>881.19</ele>
        <time>2019-08-25T13:30:22Z</time>
      </trkpt>
      <trkpt lat="44.06699" lon="3.41792">
        <ele>879.26</ele>
        <time>2019-08-25T13:30:35Z</time>
      </trkpt>
      <trkpt lat="44.06707" lon="3.41786">
        <ele>876.86</ele>
        <time>2019-08-25T13:30:47Z</time>
      </trkpt>
      <trkpt lat="44.06711" lon="3.41779">
        <ele>875.9</ele>
        <time>2019-08-25T13:30:56Z</time>
      </trkpt>
      <trkpt lat="44.06719" lon="3.41778">
        <ele>874.46</ele>
        <time>2019-08-25T13:31:06Z</time>
      </trkpt>
      <trkpt lat="44.06733" lon="3.41769">
        <ele>874.94</ele>
        <time>2019-08-25T13:31:16Z</time>
      </trkpt>
      <trkpt lat="44.06735" lon="3.41767">
        <ele>875.42</ele>
        <time>2019-08-25T13:31:18Z</time>
      </trkpt>
      <trkpt lat="44.06739" lon="3.41756">
        <ele>877.34</ele>
        <time>2019-08-25T13:31:24Z</time>
      </trkpt>
      <trkpt lat="44.06742" lon="3.41744">
        <ele>874.94</ele>
        <time>2019-08-25T13:31:34Z</time>
      </trkpt>
      <trkpt lat="44.06746" lon="3.41724">
        <ele>879.26</ele>
        <time>2019-08-25T13:31:45Z</time>
      </trkpt>
      <trkpt lat="44.06748" lon="3.41717">
        <ele>879.74</ele>
        <time>2019-08-25T13:31:49Z</time>
      </trkpt>
      <trkpt lat="44.06748" lon="3.41713">
        <ele>880.71</ele>
        <time>2019-08-25T13:31:51Z</time>
      </trkpt>
      <trkpt lat="44.0675" lon="3.4171">
        <ele>880.71</ele>
        <time>2019-08-25T13:31:53Z</time>
      </trkpt>
      <trkpt lat="44.06756" lon="3.41699">
        <ele>879.26</ele>
        <time>2019-08-25T13:32:05Z</time>
      </trkpt>
      <trkpt lat="44.06755" lon="3.41696">
        <ele>878.78</ele>
        <time>2019-08-25T13:32:07Z</time>
      </trkpt>
      <trkpt lat="44.06755" lon="3.41693">
        <ele>879.26</ele>
        <time>2019-08-25T13:32:09Z</time>
      </trkpt>
      <trkpt lat="44.0675" lon="3.41678">
        <ele>881.19</ele>
        <time>2019-08-25T13:32:18Z</time>
      </trkpt>
      <trkpt lat="44.0675" lon="3.41663">
        <ele>883.11</ele>
        <time>2019-08-25T13:32:28Z</time>
      </trkpt>
      <trkpt lat="44.0675" lon="3.41658">
        <ele>883.59</ele>
        <time>2019-08-25T13:32:32Z</time>
      </trkpt>
      <trkpt lat="44.06751" lon="3.41641">
        <ele>882.63</ele>
        <time>2019-08-25T13:32:42Z</time>
      </trkpt>
      <trkpt lat="44.06756" lon="3.41628">
        <ele>882.63</ele>
        <time>2019-08-25T13:32:51Z</time>
      </trkpt>
      <trkpt lat="44.06759" lon="3.41621">
        <ele>882.63</ele>
        <time>2019-08-25T13:32:56Z</time>
      </trkpt>
      <trkpt lat="44.06763" lon="3.41617">
        <ele>882.15</ele>
        <time>2019-08-25T13:33:00Z</time>
      </trkpt>
      <trkpt lat="44.06767" lon="3.41609">
        <ele>880.71</ele>
        <time>2019-08-25T13:33:07Z</time>
      </trkpt>
      <trkpt lat="44.06773" lon="3.41589">
        <ele>880.22</ele>
        <time>2019-08-25T13:33:19Z</time>
      </trkpt>
      <trkpt lat="44.06773" lon="3.41584">
        <ele>880.22</ele>
        <time>2019-08-25T13:33:22Z</time>
      </trkpt>
      <trkpt lat="44.06774" lon="3.41564">
        <ele>882.15</ele>
        <time>2019-08-25T13:33:34Z</time>
      </trkpt>
      <trkpt lat="44.06775" lon="3.41552">
        <ele>884.07</ele>
        <time>2019-08-25T13:33:41Z</time>
      </trkpt>
      <trkpt lat="44.06781" lon="3.41532">
        <ele>884.07</ele>
        <time>2019-08-25T13:33:54Z</time>
      </trkpt>
      <trkpt lat="44.06786" lon="3.41513">
        <ele>884.55</ele>
        <time>2019-08-25T13:34:07Z</time>
      </trkpt>
      <trkpt lat="44.06787" lon="3.41505">
        <ele>884.55</ele>
        <time>2019-08-25T13:34:14Z</time>
      </trkpt>
      <trkpt lat="44.06786" lon="3.41498">
        <ele>884.55</ele>
        <time>2019-08-25T13:34:18Z</time>
      </trkpt>
      <trkpt lat="44.06787" lon="3.41477">
        <ele>883.59</ele>
        <time>2019-08-25T13:34:30Z</time>
      </trkpt>
      <trkpt lat="44.0679" lon="3.41465">
        <ele>883.59</ele>
        <time>2019-08-25T13:34:37Z</time>
      </trkpt>
      <trkpt lat="44.06789" lon="3.41457">
        <ele>883.59</ele>
        <time>2019-08-25T13:34:42Z</time>
      </trkpt>
      <trkpt lat="44.0679" lon="3.41442">
        <ele>883.11</ele>
        <time>2019-08-25T13:34:51Z</time>
      </trkpt>
      <trkpt lat="44.06792" lon="3.41424">
        <ele>882.15</ele>
        <time>2019-08-25T13:35:04Z</time>
      </trkpt>
      <trkpt lat="44.06793" lon="3.41421">
        <ele>882.15</ele>
        <time>2019-08-25T13:35:06Z</time>
      </trkpt>
      <trkpt lat="44.06798" lon="3.41414">
        <ele>880.71</ele>
        <time>2019-08-25T13:35:12Z</time>
      </trkpt>
      <trkpt lat="44.06805" lon="3.41411">
        <ele>880.71</ele>
        <time>2019-08-25T13:35:18Z</time>
      </trkpt>
      <trkpt lat="44.06814" lon="3.41401">
        <ele>882.63</ele>
        <time>2019-08-25T13:35:30Z</time>
      </trkpt>
      <trkpt lat="44.06818" lon="3.41399">
        <ele>883.11</ele>
        <time>2019-08-25T13:35:34Z</time>
      </trkpt>
      <trkpt lat="44.06828" lon="3.41386">
        <ele>884.07</ele>
        <time>2019-08-25T13:35:47Z</time>
      </trkpt>
      <trkpt lat="44.06838" lon="3.41377">
        <ele>883.59</ele>
        <time>2019-08-25T13:35:59Z</time>
      </trkpt>
      <trkpt lat="44.06839" lon="3.41375">
        <ele>883.59</ele>
        <time>2019-08-25T13:36:01Z</time>
      </trkpt>
      <trkpt lat="44.06849" lon="3.41364">
        <ele>883.59</ele>
        <time>2019-08-25T13:36:13Z</time>
      </trkpt>
      <trkpt lat="44.06855" lon="3.41354">
        <ele>883.59</ele>
        <time>2019-08-25T13:36:24Z</time>
      </trkpt>
      <trkpt lat="44.06858" lon="3.41353">
        <ele>884.55</ele>
        <time>2019-08-25T13:36:27Z</time>
      </trkpt>
      <trkpt lat="44.0687" lon="3.41353">
        <ele>886.47</ele>
        <time>2019-08-25T13:36:41Z</time>
      </trkpt>
      <trkpt lat="44.06878" lon="3.41353">
        <ele>888.88</ele>
        <time>2019-08-25T13:36:51Z</time>
      </trkpt>
      <trkpt lat="44.06884" lon="3.41355">
        <ele>891.28</ele>
        <time>2019-08-25T13:36:57Z</time>
      </trkpt>
      <trkpt lat="44.06893" lon="3.41352">
        <ele>891.28</ele>
        <time>2019-08-25T13:37:08Z</time>
      </trkpt>
      <trkpt lat="44.06899" lon="3.41344">
        <ele>890.32</ele>
        <time>2019-08-25T13:37:19Z</time>
      </trkpt>
      <trkpt lat="44.06904" lon="3.41334">
        <ele>890.8</ele>
        <time>2019-08-25T13:37:32Z</time>
      </trkpt>
      <trkpt lat="44.06905" lon="3.41334">
        <ele>890.32</ele>
        <time>2019-08-25T13:37:34Z</time>
      </trkpt>
      <trkpt lat="44.06911" lon="3.4133">
        <ele>891.76</ele>
        <time>2019-08-25T13:37:46Z</time>
      </trkpt>
      <trkpt lat="44.06913" lon="3.41326">
        <ele>893.68</ele>
        <time>2019-08-25T13:37:55Z</time>
      </trkpt>
      <trkpt lat="44.06916" lon="3.41325">
        <ele>899.93</ele>
        <time>2019-08-25T13:38:06Z</time>
      </trkpt>
      <trkpt lat="44.06924" lon="3.4132">
        <ele>902.82</ele>
        <time>2019-08-25T13:38:17Z</time>
      </trkpt>
      <trkpt lat="44.06931" lon="3.41317">
        <ele>904.74</ele>
        <time>2019-08-25T13:38:28Z</time>
      </trkpt>
      <trkpt lat="44.06938" lon="3.41315">
        <ele>906.18</ele>
        <time>2019-08-25T13:38:37Z</time>
      </trkpt>
      <trkpt lat="44.06945" lon="3.41312">
        <ele>906.18</ele>
        <time>2019-08-25T13:38:47Z</time>
      </trkpt>
      <trkpt lat="44.06949" lon="3.41305">
        <ele>906.18</ele>
        <time>2019-08-25T13:38:57Z</time>
      </trkpt>
      <trkpt lat="44.06958" lon="3.41299">
        <ele>906.66</ele>
        <time>2019-08-25T13:39:06Z</time>
      </trkpt>
      <trkpt lat="44.06966" lon="3.41298">
        <ele>908.1</ele>
        <time>2019-08-25T13:39:16Z</time>
      </trkpt>
      <trkpt lat="44.06974" lon="3.41292">
        <ele>910.51</ele>
        <time>2019-08-25T13:39:27Z</time>
      </trkpt>
      <trkpt lat="44.06981" lon="3.41289">
        <ele>913.39</ele>
        <time>2019-08-25T13:39:38Z</time>
      </trkpt>
      <trkpt lat="44.06987" lon="3.41284">
        <ele>915.31</ele>
        <time>2019-08-25T13:39:48Z</time>
      </trkpt>
      <trkpt lat="44.06992" lon="3.41281">
        <ele>917.72</ele>
        <time>2019-08-25T13:39:58Z</time>
      </trkpt>
      <trkpt lat="44.06997" lon="3.41275">
        <ele>921.08</ele>
        <time>2019-08-25T13:40:11Z</time>
      </trkpt>
      <trkpt lat="44.06999" lon="3.4127">
        <ele>922.04</ele>
        <time>2019-08-25T13:40:23Z</time>
      </trkpt>
      <trkpt lat="44.07003" lon="3.41273">
        <ele>926.37</ele>
        <time>2019-08-25T13:40:34Z</time>
      </trkpt>
      <trkpt lat="44.07013" lon="3.41272">
        <ele>927.33</ele>
        <time>2019-08-25T13:40:45Z</time>
      </trkpt>
      <trkpt lat="44.07016" lon="3.41272">
        <ele>928.77</ele>
        <time>2019-08-25T13:40:52Z</time>
      </trkpt>
      <trkpt lat="44.07023" lon="3.41272">
        <ele>927.81</ele>
        <time>2019-08-25T13:41:04Z</time>
      </trkpt>
      <trkpt lat="44.07025" lon="3.41268">
        <ele>931.65</ele>
        <time>2019-08-25T13:41:26Z</time>
      </trkpt>
      <trkpt lat="44.07021" lon="3.41271">
        <ele>937.42</ele>
        <time>2019-08-25T13:41:53Z</time>
      </trkpt>
      <trkpt lat="44.0702" lon="3.41274">
        <ele>937.9</ele>
        <time>2019-08-25T13:42:10Z</time>
      </trkpt>
      <trkpt lat="44.07022" lon="3.41267">
        <ele>937.9</ele>
        <time>2019-08-25T13:42:21Z</time>
      </trkpt>
      <trkpt lat="44.0703" lon="3.41265">
        <ele>938.38</ele>
        <time>2019-08-25T13:42:34Z</time>
      </trkpt>
      <trkpt lat="44.07035" lon="3.41264">
        <ele>940.31</ele>
        <time>2019-08-25T13:42:43Z</time>
      </trkpt>
      <trkpt lat="44.07041" lon="3.41259">
        <ele>942.23</ele>
        <time>2019-08-25T13:42:55Z</time>
      </trkpt>
      <trkpt lat="44.07045" lon="3.41259">
        <ele>946.56</ele>
        <time>2019-08-25T13:43:05Z</time>
      </trkpt>
      <trkpt lat="44.0705" lon="3.41258">
        <ele>946.07</ele>
        <time>2019-08-25T13:43:17Z</time>
      </trkpt>
      <trkpt lat="44.07058" lon="3.41259">
        <ele>949.44</ele>
        <time>2019-08-25T13:43:30Z</time>
      </trkpt>
      <trkpt lat="44.07064" lon="3.41253">
        <ele>949.44</ele>
        <time>2019-08-25T13:43:43Z</time>
      </trkpt>
      <trkpt lat="44.07069" lon="3.41251">
        <ele>950.88</ele>
        <time>2019-08-25T13:43:55Z</time>
      </trkpt>
      <trkpt lat="44.07075" lon="3.41247">
        <ele>951.84</ele>
        <time>2019-08-25T13:44:07Z</time>
      </trkpt>
      <trkpt lat="44.07081" lon="3.41246">
        <ele>951.36</ele>
        <time>2019-08-25T13:44:18Z</time>
      </trkpt>
      <trkpt lat="44.07087" lon="3.41253">
        <ele>952.8</ele>
        <time>2019-08-25T13:44:31Z</time>
      </trkpt>
      <trkpt lat="44.07094" lon="3.4125">
        <ele>962.9</ele>
        <time>2019-08-25T13:44:45Z</time>
      </trkpt>
      <trkpt lat="44.07093" lon="3.41243">
        <ele>966.74</ele>
        <time>2019-08-25T13:44:55Z</time>
      </trkpt>
      <trkpt lat="44.07092" lon="3.41232">
        <ele>968.18</ele>
        <time>2019-08-25T13:45:08Z</time>
      </trkpt>
      <trkpt lat="44.07095" lon="3.41219">
        <ele>969.63</ele>
        <time>2019-08-25T13:45:20Z</time>
      </trkpt>
      <trkpt lat="44.07095" lon="3.41218">
        <ele>969.63</ele>
        <time>2019-08-25T13:45:21Z</time>
      </trkpt>
      <trkpt lat="44.07091" lon="3.41203">
        <ele>968.67</ele>
        <time>2019-08-25T13:45:33Z</time>
      </trkpt>
      <trkpt lat="44.0709" lon="3.41193">
        <ele>968.67</ele>
        <time>2019-08-25T13:45:44Z</time>
      </trkpt>
      <trkpt lat="44.07088" lon="3.41184">
        <ele>972.51</ele>
        <time>2019-08-25T13:45:54Z</time>
      </trkpt>
      <trkpt lat="44.07085" lon="3.41174">
        <ele>972.51</ele>
        <time>2019-08-25T13:46:06Z</time>
      </trkpt>
      <trkpt lat="44.07083" lon="3.41166">
        <ele>974.91</ele>
        <time>2019-08-25T13:46:17Z</time>
      </trkpt>
      <trkpt lat="44.07083" lon="3.41163">
        <ele>978.76</ele>
        <time>2019-08-25T13:46:29Z</time>
      </trkpt>
      <trkpt lat="44.07088" lon="3.4116">
        <ele>981.16</ele>
        <time>2019-08-25T13:46:39Z</time>
      </trkpt>
      <trkpt lat="44.07098" lon="3.41156">
        <ele>984.05</ele>
        <time>2019-08-25T13:46:53Z</time>
      </trkpt>
      <trkpt lat="44.07102" lon="3.41153">
        <ele>985.49</ele>
        <time>2019-08-25T13:47:04Z</time>
      </trkpt>
      <trkpt lat="44.07108" lon="3.41151">
        <ele>988.37</ele>
        <time>2019-08-25T13:47:16Z</time>
      </trkpt>
      <trkpt lat="44.07115" lon="3.41151">
        <ele>990.78</ele>
        <time>2019-08-25T13:47:27Z</time>
      </trkpt>
      <trkpt lat="44.07121" lon="3.41151">
        <ele>992.22</ele>
        <time>2019-08-25T13:47:38Z</time>
      </trkpt>
      <trkpt lat="44.07128" lon="3.41147">
        <ele>994.14</ele>
        <time>2019-08-25T13:47:49Z</time>
      </trkpt>
      <trkpt lat="44.07135" lon="3.41146">
        <ele>995.1</ele>
        <time>2019-08-25T13:47:59Z</time>
      </trkpt>
      <trkpt lat="44.07137" lon="3.41134">
        <ele>996.54</ele>
        <time>2019-08-25T13:48:25Z</time>
      </trkpt>
      <trkpt lat="44.07135" lon="3.41121">
        <ele>993.18</ele>
        <time>2019-08-25T13:48:40Z</time>
      </trkpt>
      <trkpt lat="44.07137" lon="3.41115">
        <ele>994.62</ele>
        <time>2019-08-25T13:48:53Z</time>
      </trkpt>
      <trkpt lat="44.07142" lon="3.4111">
        <ele>996.06</ele>
        <time>2019-08-25T13:49:05Z</time>
      </trkpt>
      <trkpt lat="44.07149" lon="3.41107">
        <ele>997.51</ele>
        <time>2019-08-25T13:49:17Z</time>
      </trkpt>
      <trkpt lat="44.07154" lon="3.41104">
        <ele>998.47</ele>
        <time>2019-08-25T13:49:25Z</time>
      </trkpt>
      <trkpt lat="44.07163" lon="3.41104">
        <ele>1000.87</ele>
        <time>2019-08-25T13:49:35Z</time>
      </trkpt>
      <trkpt lat="44.07176" lon="3.41106">
        <ele>1003.75</ele>
        <time>2019-08-25T13:49:50Z</time>
      </trkpt>
      <trkpt lat="44.07184" lon="3.41097">
        <ele>1004.72</ele>
        <time>2019-08-25T13:50:03Z</time>
      </trkpt>
      <trkpt lat="44.0719" lon="3.41084">
        <ele>1008.08</ele>
        <time>2019-08-25T13:50:17Z</time>
      </trkpt>
      <trkpt lat="44.07192" lon="3.41086">
        <ele>1012.41</ele>
        <time>2019-08-25T13:50:30Z</time>
      </trkpt>
      <trkpt lat="44.07193" lon="3.41086">
        <ele>1015.77</ele>
        <time>2019-08-25T13:50:49Z</time>
      </trkpt>
      <trkpt lat="44.07193" lon="3.41084">
        <ele>1017.21</ele>
        <time>2019-08-25T13:51:11Z</time>
      </trkpt>
      <trkpt lat="44.07192" lon="3.41086">
        <ele>1017.69</ele>
        <time>2019-08-25T13:51:32Z</time>
      </trkpt>
      <trkpt lat="44.07192" lon="3.41084">
        <ele>1017.21</ele>
        <time>2019-08-25T13:51:50Z</time>
      </trkpt>
      <trkpt lat="44.07191" lon="3.41087">
        <ele>1015.77</ele>
        <time>2019-08-25T13:52:08Z</time>
      </trkpt>
      <trkpt lat="44.07193" lon="3.41084">
        <ele>1017.69</ele>
        <time>2019-08-25T13:52:23Z</time>
      </trkpt>
      <trkpt lat="44.07193" lon="3.41083">
        <ele>1019.13</ele>
        <time>2019-08-25T13:52:47Z</time>
      </trkpt>
      <trkpt lat="44.07194" lon="3.41085">
        <ele>1019.13</ele>
        <time>2019-08-25T13:53:12Z</time>
      </trkpt>
      <trkpt lat="44.07192" lon="3.41084">
        <ele>1018.17</ele>
        <time>2019-08-25T13:53:29Z</time>
      </trkpt>
      <trkpt lat="44.07193" lon="3.41083">
        <ele>1020.1</ele>
        <time>2019-08-25T13:53:54Z</time>
      </trkpt>
      <trkpt lat="44.07192" lon="3.41084">
        <ele>1022.02</ele>
        <time>2019-08-25T13:54:19Z</time>
      </trkpt>
      <trkpt lat="44.07192" lon="3.41083">
        <ele>1020.1</ele>
        <time>2019-08-25T13:54:51Z</time>
      </trkpt>
      <trkpt lat="44.07193" lon="3.41083">
        <ele>1020.58</ele>
        <time>2019-08-25T13:55:10Z</time>
      </trkpt>
      <trkpt lat="44.07193" lon="3.41084">
        <ele>1021.06</ele>
        <time>2019-08-25T13:55:32Z</time>
      </trkpt>
      <trkpt lat="44.07192" lon="3.41086">
        <ele>1019.62</ele>
        <time>2019-08-25T13:55:48Z</time>
      </trkpt>
      <trkpt lat="44.07192" lon="3.41085">
        <ele>1021.06</ele>
        <time>2019-08-25T13:56:04Z</time>
      </trkpt>
      <trkpt lat="44.07192" lon="3.41084">
        <ele>1021.54</ele>
        <time>2019-08-25T13:56:19Z</time>
      </trkpt>
      <trkpt lat="44.07192" lon="3.41085">
        <ele>1020.1</ele>
        <time>2019-08-25T13:56:37Z</time>
      </trkpt>
      <trkpt lat="44.07194" lon="3.41085">
        <ele>1020.1</ele>
        <time>2019-08-25T13:56:41Z</time>
      </trkpt>
      <trkpt lat="44.07202" lon="3.41085">
        <ele>1017.69</ele>
        <time>2019-08-25T13:56:49Z</time>
      </trkpt>
      <trkpt lat="44.0721" lon="3.41087">
        <ele>1016.73</ele>
        <time>2019-08-25T13:56:56Z</time>
      </trkpt>
      <trkpt lat="44.07226" lon="3.41083">
        <ele>1015.77</ele>
        <time>2019-08-25T13:57:12Z</time>
      </trkpt>
      <trkpt lat="44.07232" lon="3.41079">
        <ele>1012.89</ele>
        <time>2019-08-25T13:57:23Z</time>
      </trkpt>
      <trkpt lat="44.07237" lon="3.41074">
        <ele>1012.89</ele>
        <time>2019-08-25T13:57:34Z</time>
      </trkpt>
      <trkpt lat="44.0724" lon="3.41072">
        <ele>1013.85</ele>
        <time>2019-08-25T13:57:50Z</time>
      </trkpt>
      <trkpt lat="44.07243" lon="3.41071">
        <ele>1012.89</ele>
        <time>2019-08-25T13:58:05Z</time>
      </trkpt>
      <trkpt lat="44.07252" lon="3.41069">
        <ele>1005.68</ele>
        <time>2019-08-25T13:58:19Z</time>
      </trkpt>
      <trkpt lat="44.0726" lon="3.41059">
        <ele>998.95</ele>
        <time>2019-08-25T13:58:32Z</time>
      </trkpt>
      <trkpt lat="44.07265" lon="3.41049">
        <ele>997.02</ele>
        <time>2019-08-25T13:58:42Z</time>
      </trkpt>
      <trkpt lat="44.07275" lon="3.41038">
        <ele>995.58</ele>
        <time>2019-08-25T13:58:54Z</time>
      </trkpt>
      <trkpt lat="44.07287" lon="3.41026">
        <ele>994.14</ele>
        <time>2019-08-25T13:59:06Z</time>
      </trkpt>
      <trkpt lat="44.07297" lon="3.41026">
        <ele>991.74</ele>
        <time>2019-08-25T13:59:18Z</time>
      </trkpt>
      <trkpt lat="44.07304" lon="3.41016">
        <ele>987.41</ele>
        <time>2019-08-25T13:59:31Z</time>
      </trkpt>
      <trkpt lat="44.07313" lon="3.41001">
        <ele>988.85</ele>
        <time>2019-08-25T13:59:43Z</time>
      </trkpt>
      <trkpt lat="44.0732" lon="3.40992">
        <ele>985.49</ele>
        <time>2019-08-25T13:59:53Z</time>
      </trkpt>
      <trkpt lat="44.07328" lon="3.40981">
        <ele>982.12</ele>
        <time>2019-08-25T14:00:05Z</time>
      </trkpt>
      <trkpt lat="44.07329" lon="3.40966">
        <ele>981.16</ele>
        <time>2019-08-25T14:00:17Z</time>
      </trkpt>
      <trkpt lat="44.07331" lon="3.4095">
        <ele>980.2</ele>
        <time>2019-08-25T14:00:29Z</time>
      </trkpt>
      <trkpt lat="44.07332" lon="3.40948">
        <ele>979.72</ele>
        <time>2019-08-25T14:00:31Z</time>
      </trkpt>
      <trkpt lat="44.07342" lon="3.40937">
        <ele>976.84</ele>
        <time>2019-08-25T14:00:43Z</time>
      </trkpt>
      <trkpt lat="44.07346" lon="3.4092">
        <ele>972.03</ele>
        <time>2019-08-25T14:00:57Z</time>
      </trkpt>
      <trkpt lat="44.07346" lon="3.40898">
        <ele>970.11</ele>
        <time>2019-08-25T14:01:12Z</time>
      </trkpt>
      <trkpt lat="44.07348" lon="3.40892">
        <ele>971.07</ele>
        <time>2019-08-25T14:01:15Z</time>
      </trkpt>
      <trkpt lat="44.07352" lon="3.4088">
        <ele>972.51</ele>
        <time>2019-08-25T14:01:32Z</time>
      </trkpt>
      <trkpt lat="44.07353" lon="3.40873">
        <ele>972.03</ele>
        <time>2019-08-25T14:01:54Z</time>
      </trkpt>
      <trkpt lat="44.0735" lon="3.40858">
        <ele>972.99</ele>
        <time>2019-08-25T14:02:07Z</time>
      </trkpt>
      <trkpt lat="44.07351" lon="3.40853">
        <ele>972.51</ele>
        <time>2019-08-25T14:02:17Z</time>
      </trkpt>
      <trkpt lat="44.07347" lon="3.40855">
        <ele>971.55</ele>
        <time>2019-08-25T14:02:32Z</time>
      </trkpt>
      <trkpt lat="44.07351" lon="3.4085">
        <ele>970.11</ele>
        <time>2019-08-25T14:02:50Z</time>
      </trkpt>
      <trkpt lat="44.07353" lon="3.4084">
        <ele>971.55</ele>
        <time>2019-08-25T14:03:02Z</time>
      </trkpt>
      <trkpt lat="44.07352" lon="3.40839">
        <ele>970.11</ele>
        <time>2019-08-25T14:03:13Z</time>
      </trkpt>
      <trkpt lat="44.07351" lon="3.40837">
        <ele>969.63</ele>
        <time>2019-08-25T14:03:26Z</time>
      </trkpt>
      <trkpt lat="44.07351" lon="3.40838">
        <ele>969.63</ele>
        <time>2019-08-25T14:03:43Z</time>
      </trkpt>
      <trkpt lat="44.07351" lon="3.40837">
        <ele>974.43</ele>
        <time>2019-08-25T14:04:03Z</time>
      </trkpt>
      <trkpt lat="44.07349" lon="3.40836">
        <ele>973.47</ele>
        <time>2019-08-25T14:04:32Z</time>
      </trkpt>
      <trkpt lat="44.07354" lon="3.40837">
        <ele>972.51</ele>
        <time>2019-08-25T14:04:45Z</time>
      </trkpt>
      <trkpt lat="44.07351" lon="3.40839">
        <ele>974.43</ele>
        <time>2019-08-25T14:05:01Z</time>
      </trkpt>
      <trkpt lat="44.07352" lon="3.4084">
        <ele>973.47</ele>
        <time>2019-08-25T14:05:19Z</time>
      </trkpt>
      <trkpt lat="44.07353" lon="3.40841">
        <ele>975.88</ele>
        <time>2019-08-25T14:05:53Z</time>
      </trkpt>
      <trkpt lat="44.07351" lon="3.40842">
        <ele>973.47</ele>
        <time>2019-08-25T14:06:24Z</time>
      </trkpt>
      <trkpt lat="44.07352" lon="3.40843">
        <ele>973.95</ele>
        <time>2019-08-25T14:06:55Z</time>
      </trkpt>
      <trkpt lat="44.07354" lon="3.40846">
        <ele>977.32</ele>
        <time>2019-08-25T14:07:22Z</time>
      </trkpt>
      <trkpt lat="44.07353" lon="3.40848">
        <ele>977.32</ele>
        <time>2019-08-25T14:07:54Z</time>
      </trkpt>
      <trkpt lat="44.07354" lon="3.40842">
        <ele>976.36</ele>
        <time>2019-08-25T14:08:32Z</time>
      </trkpt>
      <trkpt lat="44.07354" lon="3.40843">
        <ele>977.8</ele>
        <time>2019-08-25T14:08:58Z</time>
      </trkpt>
      <trkpt lat="44.07354" lon="3.40841">
        <ele>976.36</ele>
        <time>2019-08-25T14:09:25Z</time>
      </trkpt>
      <trkpt lat="44.07352" lon="3.40842">
        <ele>974.91</ele>
        <time>2019-08-25T14:10:01Z</time>
      </trkpt>
      <trkpt lat="44.07354" lon="3.40845">
        <ele>976.84</ele>
        <time>2019-08-25T14:10:26Z</time>
      </trkpt>
      <trkpt lat="44.07354" lon="3.40845">
        <ele>974.43</ele>
        <time>2019-08-25T14:10:51Z</time>
      </trkpt>
      <trkpt lat="44.07356" lon="3.40842">
        <ele>976.84</ele>
        <time>2019-08-25T14:11:19Z</time>
      </trkpt>
      <trkpt lat="44.07355" lon="3.40839">
        <ele>974.91</ele>
        <time>2019-08-25T14:11:38Z</time>
      </trkpt>
      <trkpt lat="44.07354" lon="3.40845">
        <ele>970.59</ele>
        <time>2019-08-25T14:11:52Z</time>
      </trkpt>
      <trkpt lat="44.07354" lon="3.40857">
        <ele>967.7</ele>
        <time>2019-08-25T14:12:03Z</time>
      </trkpt>
      <trkpt lat="44.07355" lon="3.40867">
        <ele>965.3</ele>
        <time>2019-08-25T14:12:13Z</time>
      </trkpt>
      <trkpt lat="44.07354" lon="3.40884">
        <ele>964.34</ele>
        <time>2019-08-25T14:12:26Z</time>
      </trkpt>
      <trkpt lat="44.0736" lon="3.40888">
        <ele>962.9</ele>
        <time>2019-08-25T14:12:42Z</time>
      </trkpt>
      <trkpt lat="44.07369" lon="3.40885">
        <ele>960.01</ele>
        <time>2019-08-25T14:12:57Z</time>
      </trkpt>
      <trkpt lat="44.0738" lon="3.40879">
        <ele>959.05</ele>
        <time>2019-08-25T14:13:10Z</time>
      </trkpt>
      <trkpt lat="44.07386" lon="3.40873">
        <ele>957.61</ele>
        <time>2019-08-25T14:13:22Z</time>
      </trkpt>
      <trkpt lat="44.0739" lon="3.4087">
        <ele>956.65</ele>
        <time>2019-08-25T14:13:25Z</time>
      </trkpt>
      <trkpt lat="44.07403" lon="3.40866">
        <ele>953.77</ele>
        <time>2019-08-25T14:13:37Z</time>
      </trkpt>
      <trkpt lat="44.0741" lon="3.4086">
        <ele>949.92</ele>
        <time>2019-08-25T14:13:48Z</time>
      </trkpt>
      <trkpt lat="44.07421" lon="3.4085">
        <ele>948.96</ele>
        <time>2019-08-25T14:14:01Z</time>
      </trkpt>
      <trkpt lat="44.07428" lon="3.40844">
        <ele>947.04</ele>
        <time>2019-08-25T14:14:13Z</time>
      </trkpt>
      <trkpt lat="44.07438" lon="3.40837">
        <ele>946.56</ele>
        <time>2019-08-25T14:14:27Z</time>
      </trkpt>
      <trkpt lat="44.07449" lon="3.40831">
        <ele>942.71</ele>
        <time>2019-08-25T14:14:40Z</time>
      </trkpt>
      <trkpt lat="44.07456" lon="3.4082">
        <ele>938.86</ele>
        <time>2019-08-25T14:14:53Z</time>
      </trkpt>
      <trkpt lat="44.07461" lon="3.40815">
        <ele>938.86</ele>
        <time>2019-08-25T14:15:06Z</time>
      </trkpt>
      <trkpt lat="44.07471" lon="3.40803">
        <ele>937.42</ele>
        <time>2019-08-25T14:15:19Z</time>
      </trkpt>
      <trkpt lat="44.07474" lon="3.40787">
        <ele>932.14</ele>
        <time>2019-08-25T14:15:32Z</time>
      </trkpt>
      <trkpt lat="44.07478" lon="3.40776">
        <ele>928.77</ele>
        <time>2019-08-25T14:15:43Z</time>
      </trkpt>
      <trkpt lat="44.07484" lon="3.40762">
        <ele>928.77</ele>
        <time>2019-08-25T14:15:56Z</time>
      </trkpt>
      <trkpt lat="44.07483" lon="3.40757">
        <ele>930.21</ele>
        <time>2019-08-25T14:16:15Z</time>
      </trkpt>
      <trkpt lat="44.07483" lon="3.40758">
        <ele>934.06</ele>
        <time>2019-08-25T14:16:39Z</time>
      </trkpt>
      <trkpt lat="44.07487" lon="3.40756">
        <ele>932.62</ele>
        <time>2019-08-25T14:16:55Z</time>
      </trkpt>
      <trkpt lat="44.0749" lon="3.40748">
        <ele>929.73</ele>
        <time>2019-08-25T14:17:08Z</time>
      </trkpt>
      <trkpt lat="44.07497" lon="3.40745">
        <ele>927.81</ele>
        <time>2019-08-25T14:17:19Z</time>
      </trkpt>
      <trkpt lat="44.07508" lon="3.40734">
        <ele>925.89</ele>
        <time>2019-08-25T14:17:33Z</time>
      </trkpt>
      <trkpt lat="44.07516" lon="3.4073">
        <ele>923</ele>
        <time>2019-08-25T14:17:46Z</time>
      </trkpt>
      <trkpt lat="44.07517" lon="3.40731">
        <ele>920.6</ele>
        <time>2019-08-25T14:18:08Z</time>
      </trkpt>
      <trkpt lat="44.07523" lon="3.4072">
        <ele>917.72</ele>
        <time>2019-08-25T14:18:19Z</time>
      </trkpt>
      <trkpt lat="44.07527" lon="3.40721">
        <ele>917.72</ele>
        <time>2019-08-25T14:18:30Z</time>
      </trkpt>
      <trkpt lat="44.07534" lon="3.40715">
        <ele>913.87</ele>
        <time>2019-08-25T14:18:45Z</time>
      </trkpt>
      <trkpt lat="44.07534" lon="3.40696">
        <ele>913.87</ele>
        <time>2019-08-25T14:18:58Z</time>
      </trkpt>
      <trkpt lat="44.07534" lon="3.40693">
        <ele>912.43</ele>
        <time>2019-08-25T14:19:02Z</time>
      </trkpt>
      <trkpt lat="44.07534" lon="3.40681">
        <ele>910.03</ele>
        <time>2019-08-25T14:19:11Z</time>
      </trkpt>
      <trkpt lat="44.07534" lon="3.40668">
        <ele>908.1</ele>
        <time>2019-08-25T14:19:22Z</time>
      </trkpt>
      <trkpt lat="44.07535" lon="3.40657">
        <ele>904.74</ele>
        <time>2019-08-25T14:19:32Z</time>
      </trkpt>
      <trkpt lat="44.07538" lon="3.40645">
        <ele>899.93</ele>
        <time>2019-08-25T14:19:44Z</time>
      </trkpt>
      <trkpt lat="44.07542" lon="3.40633">
        <ele>896.57</ele>
        <time>2019-08-25T14:19:56Z</time>
      </trkpt>
      <trkpt lat="44.07549" lon="3.40625">
        <ele>893.2</ele>
        <time>2019-08-25T14:20:09Z</time>
      </trkpt>
      <trkpt lat="44.0755" lon="3.40619">
        <ele>891.76</ele>
        <time>2019-08-25T14:20:20Z</time>
      </trkpt>
      <trkpt lat="44.07552" lon="3.40618">
        <ele>889.84</ele>
        <time>2019-08-25T14:20:46Z</time>
      </trkpt>
      <trkpt lat="44.07556" lon="3.4062">
        <ele>893.68</ele>
        <time>2019-08-25T14:21:13Z</time>
      </trkpt>
      <trkpt lat="44.07557" lon="3.40609">
        <ele>900.89</ele>
        <time>2019-08-25T14:21:35Z</time>
      </trkpt>
      <trkpt lat="44.07556" lon="3.40604">
        <ele>902.33</ele>
        <time>2019-08-25T14:21:37Z</time>
      </trkpt>
      <trkpt lat="44.07548" lon="3.40587">
        <ele>901.37</ele>
        <time>2019-08-25T14:21:49Z</time>
      </trkpt>
      <trkpt lat="44.07547" lon="3.40582">
        <ele>900.89</ele>
        <time>2019-08-25T14:21:54Z</time>
      </trkpt>
      <trkpt lat="44.07544" lon="3.40562">
        <ele>903.3</ele>
        <time>2019-08-25T14:22:09Z</time>
      </trkpt>
      <trkpt lat="44.07546" lon="3.40551">
        <ele>902.82</ele>
        <time>2019-08-25T14:22:20Z</time>
      </trkpt>
      <trkpt lat="44.07542" lon="3.40524">
        <ele>902.33</ele>
        <time>2019-08-25T14:22:32Z</time>
      </trkpt>
      <trkpt lat="44.07541" lon="3.40504">
        <ele>903.78</ele>
        <time>2019-08-25T14:22:44Z</time>
      </trkpt>
      <trkpt lat="44.07539" lon="3.40478">
        <ele>904.26</ele>
        <time>2019-08-25T14:22:59Z</time>
      </trkpt>
      <trkpt lat="44.07539" lon="3.40458">
        <ele>903.78</ele>
        <time>2019-08-25T14:23:11Z</time>
      </trkpt>
      <trkpt lat="44.0754" lon="3.40452">
        <ele>903.78</ele>
        <time>2019-08-25T14:23:14Z</time>
      </trkpt>
      <trkpt lat="44.07537" lon="3.40436">
        <ele>901.85</ele>
        <time>2019-08-25T14:23:26Z</time>
      </trkpt>
      <trkpt lat="44.07537" lon="3.40429">
        <ele>901.85</ele>
        <time>2019-08-25T14:23:31Z</time>
      </trkpt>
      <trkpt lat="44.07533" lon="3.40415">
        <ele>900.41</ele>
        <time>2019-08-25T14:23:44Z</time>
      </trkpt>
      <trkpt lat="44.07528" lon="3.40408">
        <ele>899.45</ele>
        <time>2019-08-25T14:23:51Z</time>
      </trkpt>
      <trkpt lat="44.07522" lon="3.40402">
        <ele>899.93</ele>
        <time>2019-08-25T14:23:57Z</time>
      </trkpt>
      <trkpt lat="44.07519" lon="3.40401">
        <ele>899.93</ele>
        <time>2019-08-25T14:23:59Z</time>
      </trkpt>
      <trkpt lat="44.0751" lon="3.40398">
        <ele>901.37</ele>
        <time>2019-08-25T14:24:06Z</time>
      </trkpt>
      <trkpt lat="44.07505" lon="3.40388">
        <ele>901.85</ele>
        <time>2019-08-25T14:24:20Z</time>
      </trkpt>
      <trkpt lat="44.075" lon="3.40386">
        <ele>898.97</ele>
        <time>2019-08-25T14:24:33Z</time>
      </trkpt>
      <trkpt lat="44.07491" lon="3.40389">
        <ele>896.57</ele>
        <time>2019-08-25T14:24:45Z</time>
      </trkpt>
      <trkpt lat="44.07487" lon="3.40389">
        <ele>893.68</ele>
        <time>2019-08-25T14:24:57Z</time>
      </trkpt>
      <trkpt lat="44.07486" lon="3.40382">
        <ele>889.84</ele>
        <time>2019-08-25T14:25:09Z</time>
      </trkpt>
      <trkpt lat="44.07484" lon="3.40364">
        <ele>886.47</ele>
        <time>2019-08-25T14:25:22Z</time>
      </trkpt>
      <trkpt lat="44.07482" lon="3.40348">
        <ele>882.63</ele>
        <time>2019-08-25T14:25:35Z</time>
      </trkpt>
      <trkpt lat="44.07472" lon="3.4033">
        <ele>882.15</ele>
        <time>2019-08-25T14:25:48Z</time>
      </trkpt>
      <trkpt lat="44.07469" lon="3.40324">
        <ele>882.63</ele>
        <time>2019-08-25T14:25:53Z</time>
      </trkpt>
      <trkpt lat="44.07468" lon="3.40318">
        <ele>882.15</ele>
        <time>2019-08-25T14:25:56Z</time>
      </trkpt>
      <trkpt lat="44.0746" lon="3.40298">
        <ele>881.67</ele>
        <time>2019-08-25T14:26:09Z</time>
      </trkpt>
      <trkpt lat="44.07456" lon="3.4029">
        <ele>877.82</ele>
        <time>2019-08-25T14:26:20Z</time>
      </trkpt>
      <trkpt lat="44.07451" lon="3.40279">
        <ele>874.94</ele>
        <time>2019-08-25T14:26:31Z</time>
      </trkpt>
      <trkpt lat="44.07445" lon="3.40268">
        <ele>870.61</ele>
        <time>2019-08-25T14:26:45Z</time>
      </trkpt>
      <trkpt lat="44.07438" lon="3.40258">
        <ele>869.65</ele>
        <time>2019-08-25T14:26:57Z</time>
      </trkpt>
      <trkpt lat="44.0743" lon="3.40251">
        <ele>867.25</ele>
        <time>2019-08-25T14:27:09Z</time>
      </trkpt>
      <trkpt lat="44.07423" lon="3.40243">
        <ele>865.32</ele>
        <time>2019-08-25T14:27:20Z</time>
      </trkpt>
      <trkpt lat="44.07422" lon="3.40238">
        <ele>863.88</ele>
        <time>2019-08-25T14:27:25Z</time>
      </trkpt>
      <trkpt lat="44.07417" lon="3.40229">
        <ele>858.59</ele>
        <time>2019-08-25T14:27:37Z</time>
      </trkpt>
      <trkpt lat="44.07411" lon="3.40218">
        <ele>853.79</ele>
        <time>2019-08-25T14:27:50Z</time>
      </trkpt>
      <trkpt lat="44.07401" lon="3.40211">
        <ele>850.9</ele>
        <time>2019-08-25T14:28:04Z</time>
      </trkpt>
      <trkpt lat="44.07393" lon="3.40207">
        <ele>850.42</ele>
        <time>2019-08-25T14:28:15Z</time>
      </trkpt>
      <trkpt lat="44.07386" lon="3.402">
        <ele>850.9</ele>
        <time>2019-08-25T14:28:26Z</time>
      </trkpt>
      <trkpt lat="44.0738" lon="3.40191">
        <ele>847.06</ele>
        <time>2019-08-25T14:28:41Z</time>
      </trkpt>
      <trkpt lat="44.07375" lon="3.40187">
        <ele>843.69</ele>
        <time>2019-08-25T14:28:52Z</time>
      </trkpt>
      <trkpt lat="44.07369" lon="3.40175">
        <ele>840.81</ele>
        <time>2019-08-25T14:29:04Z</time>
      </trkpt>
      <trkpt lat="44.07365" lon="3.40164">
        <ele>838.41</ele>
        <time>2019-08-25T14:29:17Z</time>
      </trkpt>
      <trkpt lat="44.07359" lon="3.40156">
        <ele>837.93</ele>
        <time>2019-08-25T14:29:28Z</time>
      </trkpt>
      <trkpt lat="44.07352" lon="3.40147">
        <ele>836.96</ele>
        <time>2019-08-25T14:29:39Z</time>
      </trkpt>
      <trkpt lat="44.07348" lon="3.40136">
        <ele>834.08</ele>
        <time>2019-08-25T14:29:52Z</time>
      </trkpt>
      <trkpt lat="44.07341" lon="3.40124">
        <ele>828.79</ele>
        <time>2019-08-25T14:30:05Z</time>
      </trkpt>
      <trkpt lat="44.0734" lon="3.40109">
        <ele>823.99</ele>
        <time>2019-08-25T14:30:18Z</time>
      </trkpt>
      <trkpt lat="44.07341" lon="3.401">
        <ele>816.3</ele>
        <time>2019-08-25T14:30:32Z</time>
      </trkpt>
      <trkpt lat="44.07343" lon="3.40086">
        <ele>812.93</ele>
        <time>2019-08-25T14:30:46Z</time>
      </trkpt>
      <trkpt lat="44.07344" lon="3.40065">
        <ele>814.85</ele>
        <time>2019-08-25T14:30:59Z</time>
      </trkpt>
      <trkpt lat="44.07348" lon="3.40052">
        <ele>813.41</ele>
        <time>2019-08-25T14:31:11Z</time>
      </trkpt>
      <trkpt lat="44.07344" lon="3.40041">
        <ele>810.53</ele>
        <time>2019-08-25T14:31:25Z</time>
      </trkpt>
      <trkpt lat="44.07337" lon="3.40047">
        <ele>811.01</ele>
        <time>2019-08-25T14:31:37Z</time>
      </trkpt>
      <trkpt lat="44.07327" lon="3.4005">
        <ele>811.49</ele>
        <time>2019-08-25T14:31:49Z</time>
      </trkpt>
      <trkpt lat="44.07326" lon="3.40046">
        <ele>806.2</ele>
        <time>2019-08-25T14:32:02Z</time>
      </trkpt>
      <trkpt lat="44.07327" lon="3.40032">
        <ele>805.24</ele>
        <time>2019-08-25T14:32:15Z</time>
      </trkpt>
      <trkpt lat="44.0733" lon="3.4002">
        <ele>802.84</ele>
        <time>2019-08-25T14:32:28Z</time>
      </trkpt>
      <trkpt lat="44.07332" lon="3.40006">
        <ele>800.92</ele>
        <time>2019-08-25T14:32:38Z</time>
      </trkpt>
      <trkpt lat="44.07334" lon="3.39992">
        <ele>799.95</ele>
        <time>2019-08-25T14:32:52Z</time>
      </trkpt>
      <trkpt lat="44.07337" lon="3.39981">
        <ele>796.11</ele>
        <time>2019-08-25T14:33:05Z</time>
      </trkpt>
      <trkpt lat="44.07335" lon="3.39981">
        <ele>794.19</ele>
        <time>2019-08-25T14:33:19Z</time>
      </trkpt>
      <trkpt lat="44.07326" lon="3.39986">
        <ele>793.71</ele>
        <time>2019-08-25T14:33:40Z</time>
      </trkpt>
      <trkpt lat="44.07318" lon="3.39983">
        <ele>791.78</ele>
        <time>2019-08-25T14:33:54Z</time>
      </trkpt>
      <trkpt lat="44.07321" lon="3.39975">
        <ele>788.9</ele>
        <time>2019-08-25T14:34:01Z</time>
      </trkpt>
      <trkpt lat="44.07328" lon="3.39957">
        <ele>789.86</ele>
        <time>2019-08-25T14:34:17Z</time>
      </trkpt>
      <trkpt lat="44.07335" lon="3.39938">
        <ele>788.9</ele>
        <time>2019-08-25T14:34:30Z</time>
      </trkpt>
      <trkpt lat="44.0734" lon="3.3992">
        <ele>787.94</ele>
        <time>2019-08-25T14:34:43Z</time>
      </trkpt>
      <trkpt lat="44.07343" lon="3.39908">
        <ele>784.09</ele>
        <time>2019-08-25T14:34:55Z</time>
      </trkpt>
      <trkpt lat="44.07348" lon="3.39897">
        <ele>778.81</ele>
        <time>2019-08-25T14:35:08Z</time>
      </trkpt>
      <trkpt lat="44.07354" lon="3.39888">
        <ele>774</ele>
        <time>2019-08-25T14:35:21Z</time>
      </trkpt>
      <trkpt lat="44.07359" lon="3.39877">
        <ele>773.52</ele>
        <time>2019-08-25T14:35:32Z</time>
      </trkpt>
      <trkpt lat="44.07363" lon="3.39866">
        <ele>772.08</ele>
        <time>2019-08-25T14:35:44Z</time>
      </trkpt>
      <trkpt lat="44.07371" lon="3.3985">
        <ele>770.63</ele>
        <time>2019-08-25T14:35:57Z</time>
      </trkpt>
      <trkpt lat="44.07372" lon="3.39836">
        <ele>768.23</ele>
        <time>2019-08-25T14:36:09Z</time>
      </trkpt>
      <trkpt lat="44.07376" lon="3.39825">
        <ele>766.31</ele>
        <time>2019-08-25T14:36:19Z</time>
      </trkpt>
      <trkpt lat="44.07377" lon="3.39808">
        <ele>766.31</ele>
        <time>2019-08-25T14:36:32Z</time>
      </trkpt>
      <trkpt lat="44.0738" lon="3.39792">
        <ele>763.9</ele>
        <time>2019-08-25T14:36:47Z</time>
      </trkpt>
      <trkpt lat="44.07386" lon="3.39782">
        <ele>761.02</ele>
        <time>2019-08-25T14:36:59Z</time>
      </trkpt>
      <trkpt lat="44.07391" lon="3.39767">
        <ele>759.58</ele>
        <time>2019-08-25T14:37:12Z</time>
      </trkpt>
      <trkpt lat="44.07396" lon="3.39754">
        <ele>756.69</ele>
        <time>2019-08-25T14:37:25Z</time>
      </trkpt>
      <trkpt lat="44.07397" lon="3.3974">
        <ele>752.37</ele>
        <time>2019-08-25T14:37:37Z</time>
      </trkpt>
      <trkpt lat="44.074" lon="3.39729">
        <ele>751.89</ele>
        <time>2019-08-25T14:37:47Z</time>
      </trkpt>
      <trkpt lat="44.07405" lon="3.39719">
        <ele>748.04</ele>
        <time>2019-08-25T14:38:00Z</time>
      </trkpt>
      <trkpt lat="44.07409" lon="3.39704">
        <ele>747.08</ele>
        <time>2019-08-25T14:38:13Z</time>
      </trkpt>
      <trkpt lat="44.07413" lon="3.39692">
        <ele>745.64</ele>
        <time>2019-08-25T14:38:24Z</time>
      </trkpt>
      <trkpt lat="44.07417" lon="3.39681">
        <ele>745.16</ele>
        <time>2019-08-25T14:38:37Z</time>
      </trkpt>
      <trkpt lat="44.07422" lon="3.39668">
        <ele>742.76</ele>
        <time>2019-08-25T14:38:50Z</time>
      </trkpt>
      <trkpt lat="44.07425" lon="3.39651">
        <ele>740.83</ele>
        <time>2019-08-25T14:39:05Z</time>
      </trkpt>
      <trkpt lat="44.07427" lon="3.39634">
        <ele>737.95</ele>
        <time>2019-08-25T14:39:21Z</time>
      </trkpt>
      <trkpt lat="44.07432" lon="3.39625">
        <ele>732.18</ele>
        <time>2019-08-25T14:39:35Z</time>
      </trkpt>
      <trkpt lat="44.07434" lon="3.39615">
        <ele>727.86</ele>
        <time>2019-08-25T14:39:47Z</time>
      </trkpt>
      <trkpt lat="44.07437" lon="3.39605">
        <ele>726.41</ele>
        <time>2019-08-25T14:39:58Z</time>
      </trkpt>
      <trkpt lat="44.0744" lon="3.39594">
        <ele>724.01</ele>
        <time>2019-08-25T14:40:09Z</time>
      </trkpt>
      <trkpt lat="44.07439" lon="3.39591">
        <ele>722.09</ele>
        <time>2019-08-25T14:40:20Z</time>
      </trkpt>
      <trkpt lat="44.07432" lon="3.39589">
        <ele>716.8</ele>
        <time>2019-08-25T14:40:32Z</time>
      </trkpt>
      <trkpt lat="44.07421" lon="3.3959">
        <ele>715.36</ele>
        <time>2019-08-25T14:40:46Z</time>
      </trkpt>
      <trkpt lat="44.07412" lon="3.39591">
        <ele>711.99</ele>
        <time>2019-08-25T14:41:00Z</time>
      </trkpt>
      <trkpt lat="44.07401" lon="3.39591">
        <ele>710.07</ele>
        <time>2019-08-25T14:41:13Z</time>
      </trkpt>
      <trkpt lat="44.07395" lon="3.39584">
        <ele>707.67</ele>
        <time>2019-08-25T14:41:25Z</time>
      </trkpt>
      <trkpt lat="44.07395" lon="3.39575">
        <ele>706.71</ele>
        <time>2019-08-25T14:41:32Z</time>
      </trkpt>
      <trkpt lat="44.07397" lon="3.39562">
        <ele>706.71</ele>
        <time>2019-08-25T14:41:40Z</time>
      </trkpt>
      <trkpt lat="44.074" lon="3.39546">
        <ele>706.23</ele>
        <time>2019-08-25T14:41:54Z</time>
      </trkpt>
      <trkpt lat="44.07396" lon="3.39531">
        <ele>704.78</ele>
        <time>2019-08-25T14:42:07Z</time>
      </trkpt>
      <trkpt lat="44.07396" lon="3.39514">
        <ele>704.78</ele>
        <time>2019-08-25T14:42:16Z</time>
      </trkpt>
      <trkpt lat="44.074" lon="3.39508">
        <ele>705.26</ele>
        <time>2019-08-25T14:42:21Z</time>
      </trkpt>
      <trkpt lat="44.07404" lon="3.395">
        <ele>704.3</ele>
        <time>2019-08-25T14:42:27Z</time>
      </trkpt>
      <trkpt lat="44.07407" lon="3.39494">
        <ele>704.3</ele>
        <time>2019-08-25T14:42:31Z</time>
      </trkpt>
      <trkpt lat="44.07413" lon="3.39481">
        <ele>702.86</ele>
        <time>2019-08-25T14:42:43Z</time>
      </trkpt>
      <trkpt lat="44.07413" lon="3.39479">
        <ele>702.38</ele>
        <time>2019-08-25T14:42:44Z</time>
      </trkpt>
      <trkpt lat="44.07419" lon="3.39472">
        <ele>701.9</ele>
        <time>2019-08-25T14:42:52Z</time>
      </trkpt>
      <trkpt lat="44.07423" lon="3.39468">
        <ele>700.94</ele>
        <time>2019-08-25T14:42:56Z</time>
      </trkpt>
      <trkpt lat="44.07435" lon="3.39462">
        <ele>698.05</ele>
        <time>2019-08-25T14:43:09Z</time>
      </trkpt>
      <trkpt lat="44.07438" lon="3.39453">
        <ele>695.65</ele>
        <time>2019-08-25T14:43:19Z</time>
      </trkpt>
      <trkpt lat="44.07442" lon="3.39447">
        <ele>693.73</ele>
        <time>2019-08-25T14:43:26Z</time>
      </trkpt>
      <trkpt lat="44.07442" lon="3.39441">
        <ele>691.81</ele>
        <time>2019-08-25T14:43:30Z</time>
      </trkpt>
      <trkpt lat="44.07445" lon="3.39436">
        <ele>691.33</ele>
        <time>2019-08-25T14:43:34Z</time>
      </trkpt>
      <trkpt lat="44.07446" lon="3.3942">
        <ele>688.44</ele>
        <time>2019-08-25T14:43:48Z</time>
      </trkpt>
      <trkpt lat="44.07449" lon="3.39407">
        <ele>686.52</ele>
        <time>2019-08-25T14:44:00Z</time>
      </trkpt>
      <trkpt lat="44.07454" lon="3.39387">
        <ele>683.15</ele>
        <time>2019-08-25T14:44:15Z</time>
      </trkpt>
      <trkpt lat="44.07456" lon="3.39383">
        <ele>682.19</ele>
        <time>2019-08-25T14:44:18Z</time>
      </trkpt>
      <trkpt lat="44.07463" lon="3.39358">
        <ele>679.31</ele>
        <time>2019-08-25T14:44:33Z</time>
      </trkpt>
      <trkpt lat="44.07464" lon="3.39355">
        <ele>679.31</ele>
        <time>2019-08-25T14:44:35Z</time>
      </trkpt>
      <trkpt lat="44.07466" lon="3.39331">
        <ele>677.87</ele>
        <time>2019-08-25T14:44:49Z</time>
      </trkpt>
      <trkpt lat="44.07468" lon="3.39317">
        <ele>676.42</ele>
        <time>2019-08-25T14:45:01Z</time>
      </trkpt>
      <trkpt lat="44.07471" lon="3.393">
        <ele>674.02</ele>
        <time>2019-08-25T14:45:14Z</time>
      </trkpt>
      <trkpt lat="44.07482" lon="3.39283">
        <ele>669.7</ele>
        <time>2019-08-25T14:45:29Z</time>
      </trkpt>
      <trkpt lat="44.07493" lon="3.39274">
        <ele>664.41</ele>
        <time>2019-08-25T14:45:41Z</time>
      </trkpt>
      <trkpt lat="44.07505" lon="3.39265">
        <ele>659.6</ele>
        <time>2019-08-25T14:45:54Z</time>
      </trkpt>
      <trkpt lat="44.07515" lon="3.39258">
        <ele>659.6</ele>
        <time>2019-08-25T14:46:02Z</time>
      </trkpt>
      <trkpt lat="44.07521" lon="3.39251">
        <ele>659.6</ele>
        <time>2019-08-25T14:46:08Z</time>
      </trkpt>
      <trkpt lat="44.07535" lon="3.39245">
        <ele>657.2</ele>
        <time>2019-08-25T14:46:22Z</time>
      </trkpt>
      <trkpt lat="44.07542" lon="3.3924">
        <ele>654.31</ele>
        <time>2019-08-25T14:46:29Z</time>
      </trkpt>
      <trkpt lat="44.07549" lon="3.39229">
        <ele>650.47</ele>
        <time>2019-08-25T14:46:39Z</time>
      </trkpt>
      <trkpt lat="44.0756" lon="3.39221">
        <ele>644.7</ele>
        <time>2019-08-25T14:46:52Z</time>
      </trkpt>
      <trkpt lat="44.07569" lon="3.39213">
        <ele>640.86</ele>
        <time>2019-08-25T14:47:04Z</time>
      </trkpt>
      <trkpt lat="44.07575" lon="3.39205">
        <ele>637.49</ele>
        <time>2019-08-25T14:47:17Z</time>
      </trkpt>
      <trkpt lat="44.07578" lon="3.39204">
        <ele>637.01</ele>
        <time>2019-08-25T14:47:30Z</time>
      </trkpt>
      <trkpt lat="44.07581" lon="3.39197">
        <ele>634.61</ele>
        <time>2019-08-25T14:47:44Z</time>
      </trkpt>
      <trkpt lat="44.07582" lon="3.39195">
        <ele>635.09</ele>
        <time>2019-08-25T14:47:50Z</time>
      </trkpt>
      <trkpt lat="44.07583" lon="3.39181">
        <ele>632.2</ele>
        <time>2019-08-25T14:48:05Z</time>
      </trkpt>
      <trkpt lat="44.07584" lon="3.39169">
        <ele>633.17</ele>
        <time>2019-08-25T14:48:16Z</time>
      </trkpt>
      <trkpt lat="44.07583" lon="3.39153">
        <ele>632.2</ele>
        <time>2019-08-25T14:48:32Z</time>
      </trkpt>
      <trkpt lat="44.07585" lon="3.3915">
        <ele>631.24</ele>
        <time>2019-08-25T14:48:42Z</time>
      </trkpt>
      <trkpt lat="44.07586" lon="3.39148">
        <ele>630.76</ele>
        <time>2019-08-25T14:48:44Z</time>
      </trkpt>
      <trkpt lat="44.07592" lon="3.39145">
        <ele>625.96</ele>
        <time>2019-08-25T14:48:55Z</time>
      </trkpt>
      <trkpt lat="44.076" lon="3.39141">
        <ele>622.11</ele>
        <time>2019-08-25T14:49:07Z</time>
      </trkpt>
      <trkpt lat="44.07607" lon="3.39134">
        <ele>617.3</ele>
        <time>2019-08-25T14:49:20Z</time>
      </trkpt>
      <trkpt lat="44.0761" lon="3.3913">
        <ele>613.94</ele>
        <time>2019-08-25T14:49:30Z</time>
      </trkpt>
      <trkpt lat="44.07617" lon="3.39124">
        <ele>610.57</ele>
        <time>2019-08-25T14:49:41Z</time>
      </trkpt>
      <trkpt lat="44.07622" lon="3.39115">
        <ele>609.13</ele>
        <time>2019-08-25T14:49:54Z</time>
      </trkpt>
      <trkpt lat="44.07626" lon="3.39104">
        <ele>609.61</ele>
        <time>2019-08-25T14:50:06Z</time>
      </trkpt>
      <trkpt lat="44.07634" lon="3.391">
        <ele>610.09</ele>
        <time>2019-08-25T14:50:17Z</time>
      </trkpt>
      <trkpt lat="44.07641" lon="3.39095">
        <ele>608.65</ele>
        <time>2019-08-25T14:50:29Z</time>
      </trkpt>
      <trkpt lat="44.07645" lon="3.39096">
        <ele>605.29</ele>
        <time>2019-08-25T14:50:41Z</time>
      </trkpt>
      <trkpt lat="44.0765" lon="3.39096">
        <ele>601.92</ele>
        <time>2019-08-25T14:50:52Z</time>
      </trkpt>
      <trkpt lat="44.07654" lon="3.39095">
        <ele>599.52</ele>
        <time>2019-08-25T14:51:05Z</time>
      </trkpt>
      <trkpt lat="44.07656" lon="3.39095">
        <ele>596.64</ele>
        <time>2019-08-25T14:51:20Z</time>
      </trkpt>
      <trkpt lat="44.07661" lon="3.39096">
        <ele>592.31</ele>
        <time>2019-08-25T14:51:30Z</time>
      </trkpt>
      <trkpt lat="44.07666" lon="3.39088">
        <ele>590.39</ele>
        <time>2019-08-25T14:51:43Z</time>
      </trkpt>
      <trkpt lat="44.07665" lon="3.39081">
        <ele>589.91</ele>
        <time>2019-08-25T14:51:54Z</time>
      </trkpt>
      <trkpt lat="44.07659" lon="3.39071">
        <ele>588.95</ele>
        <time>2019-08-25T14:52:09Z</time>
      </trkpt>
      <trkpt lat="44.07659" lon="3.39069">
        <ele>589.43</ele>
        <time>2019-08-25T14:52:36Z</time>
      </trkpt>
      <trkpt lat="44.07657" lon="3.39069">
        <ele>588.46</ele>
        <time>2019-08-25T14:52:50Z</time>
      </trkpt>
      <trkpt lat="44.07657" lon="3.39064">
        <ele>589.91</ele>
        <time>2019-08-25T14:53:05Z</time>
      </trkpt>
      <trkpt lat="44.07657" lon="3.39063">
        <ele>589.91</ele>
        <time>2019-08-25T14:53:26Z</time>
      </trkpt>
      <trkpt lat="44.07658" lon="3.39064">
        <ele>587.98</ele>
        <time>2019-08-25T14:53:50Z</time>
      </trkpt>
      <trkpt lat="44.07669" lon="3.39071">
        <ele>585.1</ele>
        <time>2019-08-25T14:54:04Z</time>
      </trkpt>
      <trkpt lat="44.07672" lon="3.39074">
        <ele>584.62</ele>
        <time>2019-08-25T14:54:07Z</time>
      </trkpt>
      <trkpt lat="44.07676" lon="3.3908">
        <ele>583.18</ele>
        <time>2019-08-25T14:54:14Z</time>
      </trkpt>
      <trkpt lat="44.07679" lon="3.39086">
        <ele>581.25</ele>
        <time>2019-08-25T14:54:22Z</time>
      </trkpt>
      <trkpt lat="44.07683" lon="3.39088">
        <ele>581.73</ele>
        <time>2019-08-25T14:54:25Z</time>
      </trkpt>
      <trkpt lat="44.07691" lon="3.39105">
        <ele>585.1</ele>
        <time>2019-08-25T14:54:38Z</time>
      </trkpt>
      <trkpt lat="44.07691" lon="3.39113">
        <ele>584.62</ele>
        <time>2019-08-25T14:54:45Z</time>
      </trkpt>
      <trkpt lat="44.07691" lon="3.39117">
        <ele>584.62</ele>
        <time>2019-08-25T14:54:47Z</time>
      </trkpt>
      <trkpt lat="44.0769" lon="3.3913">
        <ele>585.1</ele>
        <time>2019-08-25T14:54:55Z</time>
      </trkpt>
      <trkpt lat="44.0769" lon="3.39136">
        <ele>585.58</ele>
        <time>2019-08-25T14:55:01Z</time>
      </trkpt>
      <trkpt lat="44.07691" lon="3.39139">
        <ele>585.58</ele>
        <time>2019-08-25T14:55:03Z</time>
      </trkpt>
      <trkpt lat="44.07692" lon="3.39143">
        <ele>585.58</ele>
        <time>2019-08-25T14:55:07Z</time>
      </trkpt>
      <trkpt lat="44.07696" lon="3.39148">
        <ele>585.58</ele>
        <time>2019-08-25T14:55:12Z</time>
      </trkpt>
      <trkpt lat="44.07705" lon="3.39153">
        <ele>586.54</ele>
        <time>2019-08-25T14:55:20Z</time>
      </trkpt>
      <trkpt lat="44.07711" lon="3.39153">
        <ele>588.46</ele>
        <time>2019-08-25T14:55:27Z</time>
      </trkpt>
      <trkpt lat="44.07721" lon="3.39154">
        <ele>593.27</ele>
        <time>2019-08-25T14:55:39Z</time>
      </trkpt>
      <trkpt lat="44.07726" lon="3.39155">
        <ele>592.79</ele>
        <time>2019-08-25T14:55:44Z</time>
      </trkpt>
      <trkpt lat="44.0774" lon="3.39164">
        <ele>593.27</ele>
        <time>2019-08-25T14:55:59Z</time>
      </trkpt>
      <trkpt lat="44.07743" lon="3.39165">
        <ele>593.27</ele>
        <time>2019-08-25T14:56:03Z</time>
      </trkpt>
      <trkpt lat="44.07749" lon="3.39168">
        <ele>593.75</ele>
        <time>2019-08-25T14:56:10Z</time>
      </trkpt>
      <trkpt lat="44.0776" lon="3.39174">
        <ele>594.23</ele>
        <time>2019-08-25T14:56:23Z</time>
      </trkpt>
      <trkpt lat="44.07766" lon="3.39178">
        <ele>595.19</ele>
        <time>2019-08-25T14:56:30Z</time>
      </trkpt>
      <trkpt lat="44.07767" lon="3.3918">
        <ele>595.19</ele>
        <time>2019-08-25T14:56:32Z</time>
      </trkpt>
      <trkpt lat="44.07772" lon="3.39184">
        <ele>595.67</ele>
        <time>2019-08-25T14:56:37Z</time>
      </trkpt>
      <trkpt lat="44.07775" lon="3.39189">
        <ele>594.71</ele>
        <time>2019-08-25T14:56:42Z</time>
      </trkpt>
      <trkpt lat="44.07782" lon="3.39202">
        <ele>594.71</ele>
        <time>2019-08-25T14:56:55Z</time>
      </trkpt>
      <trkpt lat="44.07786" lon="3.39218">
        <ele>594.71</ele>
        <time>2019-08-25T14:57:08Z</time>
      </trkpt>
      <trkpt lat="44.07787" lon="3.39221">
        <ele>594.23</ele>
        <time>2019-08-25T14:57:11Z</time>
      </trkpt>
      <trkpt lat="44.07796" lon="3.39236">
        <ele>595.19</ele>
        <time>2019-08-25T14:57:26Z</time>
      </trkpt>
      <trkpt lat="44.07797" lon="3.39236">
        <ele>595.19</ele>
        <time>2019-08-25T14:57:27Z</time>
      </trkpt>
      <trkpt lat="44.07803" lon="3.39236">
        <ele>595.67</ele>
        <time>2019-08-25T14:57:33Z</time>
      </trkpt>
      <trkpt lat="44.07819" lon="3.39228">
        <ele>598.56</ele>
        <time>2019-08-25T14:57:49Z</time>
      </trkpt>
      <trkpt lat="44.07819" lon="3.39229">
        <ele>599.04</ele>
        <time>2019-08-25T14:57:50Z</time>
      </trkpt>
      <trkpt lat="44.07832" lon="3.39231">
        <ele>602.4</ele>
        <time>2019-08-25T14:58:02Z</time>
      </trkpt>
      <trkpt lat="44.07842" lon="3.39242">
        <ele>604.81</ele>
        <time>2019-08-25T14:58:17Z</time>
      </trkpt>
      <trkpt lat="44.0785" lon="3.39254">
        <ele>606.25</ele>
        <time>2019-08-25T14:58:32Z</time>
      </trkpt>
      <trkpt lat="44.07859" lon="3.39269">
        <ele>610.09</ele>
        <time>2019-08-25T14:58:48Z</time>
      </trkpt>
      <trkpt lat="44.07869" lon="3.39283">
        <ele>612.5</ele>
        <time>2019-08-25T14:59:03Z</time>
      </trkpt>
      <trkpt lat="44.07872" lon="3.39298">
        <ele>613.94</ele>
        <time>2019-08-25T14:59:16Z</time>
      </trkpt>
      <trkpt lat="44.07869" lon="3.39306">
        <ele>616.34</ele>
        <time>2019-08-25T14:59:23Z</time>
      </trkpt>
      <trkpt lat="44.07862" lon="3.39313">
        <ele>616.82</ele>
        <time>2019-08-25T14:59:34Z</time>
      </trkpt>
      <trkpt lat="44.0786" lon="3.39315">
        <ele>615.86</ele>
        <time>2019-08-25T14:59:37Z</time>
      </trkpt>
      <trkpt lat="44.07854" lon="3.39327">
        <ele>612.5</ele>
        <time>2019-08-25T14:59:49Z</time>
      </trkpt>
      <trkpt lat="44.07847" lon="3.39334">
        <ele>612.02</ele>
        <time>2019-08-25T15:00:01Z</time>
      </trkpt>
      <trkpt lat="44.07845" lon="3.39337">
        <ele>612.98</ele>
        <time>2019-08-25T15:00:19Z</time>
      </trkpt>
      <trkpt lat="44.07843" lon="3.39339">
        <ele>614.9</ele>
        <time>2019-08-25T15:00:22Z</time>
      </trkpt>
      <trkpt lat="44.07834" lon="3.3934">
        <ele>619.23</ele>
        <time>2019-08-25T15:00:34Z</time>
      </trkpt>
      <trkpt lat="44.07834" lon="3.39339">
        <ele>619.71</ele>
        <time>2019-08-25T15:00:35Z</time>
      </trkpt>
      <trkpt lat="44.07833" lon="3.39335">
        <ele>620.67</ele>
        <time>2019-08-25T15:00:38Z</time>
      </trkpt>
      <trkpt lat="44.0783" lon="3.39325">
        <ele>624.03</ele>
        <time>2019-08-25T15:00:48Z</time>
      </trkpt>
      <trkpt lat="44.07828" lon="3.39323">
        <ele>624.51</ele>
        <time>2019-08-25T15:00:50Z</time>
      </trkpt>
      <trkpt lat="44.07822" lon="3.39322">
        <ele>626.44</ele>
        <time>2019-08-25T15:00:56Z</time>
      </trkpt>
      <trkpt lat="44.07811" lon="3.39321">
        <ele>625.96</ele>
        <time>2019-08-25T15:01:10Z</time>
      </trkpt>
      <trkpt lat="44.07801" lon="3.39323">
        <ele>627.4</ele>
        <time>2019-08-25T15:01:23Z</time>
      </trkpt>
      <trkpt lat="44.07797" lon="3.39332">
        <ele>627.4</ele>
        <time>2019-08-25T15:01:33Z</time>
      </trkpt>
      <trkpt lat="44.07803" lon="3.39336">
        <ele>627.88</ele>
        <time>2019-08-25T15:01:45Z</time>
      </trkpt>
      <trkpt lat="44.07802" lon="3.39336">
        <ele>629.32</ele>
        <time>2019-08-25T15:02:02Z</time>
      </trkpt>
      <trkpt lat="44.07803" lon="3.39336">
        <ele>629.32</ele>
        <time>2019-08-25T15:02:16Z</time>
      </trkpt>
      <trkpt lat="44.07802" lon="3.39337">
        <ele>629.32</ele>
        <time>2019-08-25T15:02:38Z</time>
      </trkpt>
      <trkpt lat="44.07802" lon="3.39334">
        <ele>629.8</ele>
        <time>2019-08-25T15:02:53Z</time>
      </trkpt>
      <trkpt lat="44.07801" lon="3.39335">
        <ele>628.84</ele>
        <time>2019-08-25T15:03:07Z</time>
      </trkpt>
    </trkseg>
  </trk>
</gpx>